GFSMA_250_spd_000.txt.gz
Wind_Speed
39 39 38 37 36 37 37 36 35 35 34 31 30 30 30 30 30 28 26 28 38 51 69 68 67 60 67 63 62 61 60 60 62 58 58 59 60 64 65 67 69 69 69
42 40 39 40 38 37 36 36 38 40 40 40 39 38 37 34 34 37 37 35 34 36 51 65 76 71 64 69 68 70 66 61 62 68 65 64 66 62 65 67 67 68 69
45 48 47 46 46 47 48 46 45 45 45 46 48 47 46 45 43 43 43 44 44 44 41 42 65 79 75 72 72 72 74 72 70 65 72 70 70 70 63 66 67 63 65
49 50 50 51 52 53 53 52 52 53 55 56 57 56 56 56 56 55 52 51 51 52 52 50 48 55 76 80 76 76 81 80 77 76 72 77 76 75 71 68 67 66 66
56 57 58 59 59 60 61 59 58 58 61 63 65 65 65 65 64 64 63 64 62 60 60 61 61 57 58 67 83 84 83 84 85 82 82 82 81 80 79 76 73 69 69
61 64 67 69 69 70 68 67 69 70 68 63 64 68 71 72 75 74 73 71 71 71 69 67 68 68 68 66 64 78 87 88 84 89 85 88 87 84 81 76 79 76 73
70 71 69 69 70 72 74 74 74 74 74 78 73 73 76 75 81 83 84 82 80 78 77 77 77 77 76 76 74 73 74 88 95 90 93 92 92 91 90 82 81 80 83
71 70 70 73 76 77 76 82 84 86 84 86 86 86 80 83 87 90 93 92 90 88 87 84 87 86 85 85 82 80 80 78 82 92 92 97 96 96 94 92 88 84 86
73 74 77 82 83 84 87 89 91 94 94 95 98 94 93 89 93 93 93 101 97 95 94 92 90 94 95 94 92 89 86 84 84 82 92 98 100 101 101 98 98 94 89
80 81 84 87 87 88 90 94 94 97 100 99 101 103 99 98 98 98 99 96 102 96 95 99 100 96 99 102 101 100 96 92 89 88 89 96 105 108 106 105 102 103 97
87 90 92 95 99 100 103 105 107 108 108 107 106 103 105 100 102 100 101 103 99 97 92 93 96 100 99 104 106 108 107 104 101 97 94 95 100 108 111 112 108 108 108
96 100 104 106 111 114 116 115 116 111 110 107 106 106 105 107 101 102 100 102 104 94 92 92 91 96 99 102 107 111 113 112 110 107 103 100 99 100 113 114 117 114 111
107 109 114 119 121 121 123 124 117 110 107 106 105 104 105 105 105 100 97 99 100 98 89 90 87 87 93 101 109 111 114 117 118 115 112 108 105 104 104 108 114 120 119
117 121 123 125 126 129 128 121 109 104 101 97 98 98 98 96 95 95 93 92 93 91 89 89 87 88 89 95 103 110 117 118 119 122 121 118 114 111 109 108 109 114 121
126 127 131 132 130 125 115 107 102 97 94 89 90 88 91 91 90 89 88 88 87 86 85 88 87 88 89 93 97 105 114 117 118 120 124 127 124 120 116 113 112 112 116
130 133 131 131 124 112 105 99 94 92 92 90 89 88 88 90 91 92 89 86 85 84 81 84 87 87 87 90 90 94 102 108 113 118 120 124 128 129 126 122 119 118 117
132 130 126 115 108 103 99 96 93 90 85 82 80 78 77 79 82 84 85 85 84 81 78 83 85 86 89 89 89 92 93 95 100 108 116 119 120 125 129 129 128 125 123
124 115 109 105 101 99 98 93 88 82 77 74 72 71 68 67 69 73 75 77 80 79 75 79 82 86 90 91 93 92 92 92 95 98 101 107 114 118 122 127 131 133 132
110 107 104 101 99 95 91 84 79 75 72 69 66 63 62 60 61 61 64 67 71 73 72 73 80 84 87 91 94 94 93 92 92 92 92 96 99 108 113 119 126 129 132
105 102 99 94 91 86 82 78 73 69 64 60 57 55 54 54 55 55 56 59 61 64 66 68 75 81 83 88 92 95 95 92 90 89 88 88 90 92 102 112 117 118 124
101 96 89 83 80 76 73 70 66 61 59 57 54 52 50 49 49 49 51 53 55 58 60 62 68 76 81 84 86 93 94 94 91 90 88 86 84 86 90 98 105 111 115
93 86 80 75 71 67 65 62 61 57 55 53 50 48 47 47 47 47 48 50 51 53 55 55 60 68 74 73 77 83 86 89 88 88 87 86 82 81 85 91 96 99 104
83 79 75 70 66 62 61 58 56 54 50 45 42 42 41 41 43 44 46 47 47 48 50 50 55 61 64 65 68 74 77 81 81 81 80 82 77 76 80 84 88 93 98
76 73 68 65 62 57 54 51 51 49 47 43 40 38 39 40 39 39 41 42 43 45 45 49 52 56 60 61 63 67 69 72 73 75 75 76 75 75 74 77 82 88 93
71 67 65 61 57 53 50 48 46 46 45 40 37 36 37 38 36 35 36 36 36 37 41 43 46 48 50 51 54 58 63 63 65 67 69 68 69 69 69 74 80 84 90
67 64 60 54 50 48 47 45 42 41 39 34 33 36 36 33 31 31 32 32 32 34 36 38 41 44 46 46 49 53 55 57 59 61 64 62 63 63 63 67 73 79 85

GFSMA_250_spd_003.txt.gz
Wind_Speed
43 44 44 44 45 42 39 37 36 37 37 36 35 33 32 32 31 30 29 31 27 25 38 57 61 58 58 58 60 61 58 57 52 55 59 56 60 61 60 62 65 68 68
46 47 48 49 47 47 46 45 45 45 45 45 45 44 42 40 39 38 37 37 39 36 34 35 58 66 69 61 60 66 64 61 62 62 59 60 61 63 61 64 65 69 69
48 48 49 51 52 53 54 53 53 53 54 53 53 51 50 48 47 48 48 46 45 45 45 43 43 49 74 73 68 64 70 67 66 66 64 65 66 62 63 62 64 64 70
53 54 54 56 56 58 59 60 61 60 60 59 59 60 59 59 58 55 55 56 55 55 54 54 52 52 51 61 79 80 70 73 72 72 72 70 63 69 68 67 64 65 68
56 56 59 61 62 63 65 66 65 62 60 62 63 63 61 61 63 63 66 63 64 61 62 63 61 61 60 58 60 74 80 81 79 78 77 70 74 75 74 73 71 71 67
60 62 64 66 67 67 66 67 68 69 68 72 71 66 69 69 69 69 69 70 71 70 70 68 70 72 68 69 66 65 69 81 83 82 82 83 81 76 73 75 77 76 75
67 67 67 69 70 70 70 72 74 73 73 74 73 74 73 73 74 79 81 83 80 77 74 76 76 78 78 79 77 76 73 71 74 86 87 87 84 85 82 80 80 81 78
72 74 75 77 79 81 84 85 85 83 82 84 86 86 85 84 87 86 86 88 92 91 89 87 86 86 83 85 87 86 82 82 79 78 87 91 93 91 91 86 86 81 80
75 77 80 81 83 87 88 88 89 90 90 90 98 101 99 92 99 98 97 93 92 98 99 98 95 91 90 87 90 95 92 89 88 85 82 85 96 97 96 94 90 90 87
83 88 91 93 96 98 99 99 102 101 105 102 105 110 110 109 109 109 108 108 102 98 102 106 107 97 98 95 93 97 100 99 96 94 92 91 88 99 103 102 99 99 94
93 95 98 102 106 107 107 110 112 113 114 114 115 116 116 117 117 111 110 113 114 104 106 107 109 106 101 104 101 97 102 106 106 103 100 98 97 94 98 106 106 103 101
103 107 110 114 116 118 119 122 123 124 121 121 123 124 118 117 116 115 111 109 110 111 105 106 105 105 108 106 106 103 102 109 112 114 111 107 104 101 100 100 107 107 104
111 114 117 121 124 127 129 130 131 130 126 122 117 113 109 103 100 100 102 102 101 105 107 102 99 101 104 110 102 102 104 106 112 118 121 116 113 109 106 105 104 111 113
118 122 126 129 134 135 134 133 133 128 122 112 103 96 96 98 95 93 91 93 98 98 101 100 99 96 96 102 103 94 100 104 111 116 122 125 122 119 114 111 110 107 112
126 132 136 140 138 134 131 127 117 109 103 99 98 98 97 95 92 93 86 88 89 91 91 92 96 93 87 87 94 94 95 102 109 115 120 126 131 128 124 119 116 112 112
134 138 137 134 125 118 114 108 103 101 99 99 97 94 93 88 84 84 83 84 87 87 87 89 92 90 86 82 85 90 90 95 103 111 115 123 130 134 133 129 125 121 116
139 137 131 121 114 108 108 104 102 100 97 93 89 83 80 77 73 74 74 75 79 80 80 83 87 88 87 85 83 83 86 90 96 105 114 118 124 131 136 135 133 130 127
132 120 112 109 109 106 103 100 96 93 88 83 80 76 72 69 67 66 66 68 71 74 74 75 78 82 84 86 87 82 85 89 91 99 108 114 121 126 133 138 137 136 134
116 113 111 109 106 103 99 94 89 82 79 76 71 68 65 61 60 59 60 60 62 66 67 69 72 75 78 84 86 85 86 87 86 89 100 110 114 119 127 131 133 137 138
112 109 108 105 99 93 86 84 80 77 73 70 66 63 60 57 57 56 56 56 56 58 60 62 66 69 72 77 81 84 86 85 84 85 88 99 107 110 114 120 128 130 134
109 106 100 93 87 83 78 78 74 72 67 64 62 58 56 55 55 54 54 55 55 53 52 55 62 65 66 70 74 78 81 82 82 83 80 84 92 99 105 108 112 117 126
101 95 88 83 79 75 69 70 67 66 64 60 55 52 49 47 49 49 49 51 52 51 49 50 57 61 62 62 64 70 73 76 79 79 78 77 80 85 93 97 102 105 112
88 83 79 75 71 67 62 65 62 59 56 54 48 43 41 40 41 43 44 44 46 46 47 47 52 55 54 56 59 64 67 69 73 76 74 73 74 77 84 87 89 93 102
79 75 70 66 62 62 58 58 55 51 48 46 42 38 37 38 39 40 38 40 40 40 40 43 49 52 52 52 54 59 61 63 66 69 71 71 73 75 77 80 84 88 92
72 69 63 60 59 59 54 53 50 46 42 40 37 36 35 37 34 34 32 32 33 33 36 40 44 48 49 50 51 55 59 58 61 63 64 66 71 74 73 76 81 85 90
65 63 60 57 55 54 51 50 47 45 39 36 35 36 34 33 32 32 31 30 30 32 33 35 39 42 44 45 48 52 52 54 57 60 64 62 66 66 68 72 74 78 86

GFSMA_250_spd_006.txt.gz
Wind_Speed
50 48 48 47 47 47 47 45 44 43 42 41 41 41 42 42 40 36 35 35 31 27 26 29 47 58 62 58 59 55 59 57 59 57 52 53 57 58 58 58 58 57 57
50 48 47 47 49 49 49 50 50 50 49 49 49 49 47 44 44 45 42 41 43 39 36 35 35 48 63 68 64 61 58 59 56 57 54 57 56 56 59 60 63 62 62
49 51 51 52 51 50 51 53 54 56 56 57 57 55 53 53 50 46 45 43 50 51 46 45 43 43 47 60 65 66 64 62 63 60 62 61 63 60 58 58 59 61 63
55 56 55 55 55 56 58 60 60 58 58 58 58 56 55 55 56 55 55 55 51 53 57 56 53 52 50 52 59 67 70 66 63 65 67 68 65 65 62 63 61 64 62
58 59 61 61 60 59 60 61 60 61 62 64 64 63 67 65 65 64 63 62 62 60 54 58 61 62 61 58 56 61 69 69 71 72 70 72 71 69 70 66 67 66 65
63 63 64 66 66 65 65 66 66 67 70 70 71 73 74 75 73 71 70 66 64 65 66 64 63 63 67 68 67 67 67 68 77 75 77 79 76 74 73 71 74 68 68
68 67 68 69 69 72 74 75 75 77 78 81 81 81 80 81 81 81 79 74 73 74 71 73 72 72 73 72 73 77 75 75 73 75 80 84 82 80 79 74 78 75 78
69 74 75 75 78 80 82 85 87 87 86 89 91 92 92 89 91 93 90 88 87 86 86 86 84 82 79 81 81 84 85 83 84 81 79 82 87 86 85 84 84 86 79
78 81 82 84 88 91 94 96 96 98 97 97 101 103 101 99 100 101 103 102 101 99 96 97 97 92 93 89 88 92 90 94 93 93 89 85 87 90 93 92 91 91 88
86 89 93 94 96 98 102 104 107 109 110 109 108 111 115 117 115 109 111 111 113 113 109 108 108 103 102 101 98 96 98 103 97 100 99 96 91 89 95 99 99 98 97
94 97 98 103 104 106 110 114 114 117 120 120 122 123 123 119 117 111 101 102 108 115 119 114 114 112 116 109 112 107 104 106 110 107 106 105 102 99 95 100 104 103 103
101 105 109 112 116 117 120 121 124 125 127 130 131 125 121 114 106 104 100 91 90 99 109 118 111 112 117 114 112 117 115 111 110 111 109 112 111 110 107 101 103 108 106
110 115 118 122 124 126 128 129 133 135 133 130 127 117 108 102 99 95 92 91 82 81 91 99 104 102 106 98 100 106 117 118 115 112 111 112 115 118 114 111 106 104 111
119 122 125 130 132 132 133 134 133 127 120 113 110 104 99 98 96 96 94 90 87 83 85 85 91 92 98 96 96 91 98 111 110 112 110 113 116 121 123 119 116 112 108
128 132 134 137 135 132 130 125 120 113 111 110 107 104 101 99 95 93 91 87 82 80 81 85 86 88 92 95 93 89 90 95 106 112 113 114 115 120 126 127 123 120 116
134 137 137 134 128 122 117 114 112 109 105 103 101 98 95 90 86 83 78 76 73 71 71 76 81 84 87 93 93 84 81 84 94 105 109 110 113 117 123 128 129 127 124
137 133 125 119 114 111 109 107 105 103 100 94 90 84 79 75 72 70 68 67 65 64 64 70 73 78 83 88 92 86 77 78 90 100 106 105 109 116 121 125 131 133 130
128 124 120 118 116 114 111 106 103 98 90 85 81 78 74 70 67 64 62 60 59 58 57 63 69 73 76 81 84 84 78 79 83 88 97 104 107 113 119 125 131 136 137
118 117 118 115 112 108 104 98 93 86 81 79 75 73 71 66 62 59 57 56 54 54 53 56 63 66 71 75 75 77 75 76 82 88 93 93 102 108 117 125 129 136 140
116 116 113 110 104 97 89 88 85 79 75 73 68 65 65 64 60 56 54 53 52 52 50 51 55 60 64 67 68 70 71 72 78 88 93 90 93 101 107 120 126 130 138
112 109 104 97 91 84 79 79 79 74 70 67 64 61 58 58 57 53 49 49 49 47 49 51 53 56 57 58 60 62 65 68 71 78 86 91 90 94 100 110 122 128 133
99 94 89 83 79 75 72 72 71 66 63 61 59 55 52 50 49 48 46 45 46 45 46 48 51 52 54 52 52 54 57 60 64 69 76 85 89 89 94 101 110 119 125
85 81 77 74 74 70 65 64 63 61 59 55 52 50 48 47 45 44 45 43 43 43 44 45 47 48 48 49 47 49 53 55 57 62 67 76 84 87 91 93 96 106 114
79 76 72 70 67 66 60 58 58 56 53 47 44 43 46 46 41 39 42 38 38 39 40 41 42 42 45 44 47 47 48 49 52 56 59 65 74 81 84 86 89 93 101
75 72 67 63 61 61 57 54 50 49 47 45 44 42 44 44 38 36 36 33 32 33 36 37 37 37 38 41 44 48 49 47 50 53 56 59 67 72 76 81 85 89 93
68 66 62 57 55 53 50 49 49 48 45 42 40 39 38 37 35 34 33 30 29 31 33 33 33 34 35 37 39 42 44 45 45 50 52 52 60 63 69 76 81 85 87

GFSMA_250_spd_009.txt.gz
Wind_Speed
55 54 53 50 47 49 50 50 50 50 47 45 43 44 42 42 41 40 40 39 38 34 34 33 31 39 53 52 52 54 57 52 58 61 61 58 56 53 59 60 58 59 62
55 55 52 51 52 53 53 53 51 52 50 49 48 47 48 47 46 46 43 41 44 45 42 40 41 39 43 57 57 59 62 61 62 54 65 57 54 55 54 60 62 63 61
52 55 55 57 56 56 56 57 56 54 52 51 50 50 48 48 49 50 49 47 44 45 49 47 48 48 48 47 60 67 67 66 67 68 70 68 66 61 61 60 61 63 61
62 62 60 60 62 62 60 59 59 57 57 57 55 54 53 54 55 56 56 55 56 55 53 54 51 55 56 58 56 64 75 76 72 72 72 76 68 65 67 62 61 61 61
61 62 64 67 67 65 64 64 64 65 65 66 65 62 62 61 61 63 63 63 65 64 62 62 63 61 58 63 64 64 65 76 80 78 76 75 73 72 66 66 67 64 61
66 69 70 69 70 68 66 69 71 73 72 72 72 72 73 74 75 75 74 74 72 72 72 72 69 69 69 65 66 71 72 71 71 77 81 82 78 77 75 73 70 70 64
68 71 75 76 74 74 76 79 79 80 82 83 82 82 82 84 84 85 86 85 83 79 78 79 80 76 76 75 75 72 78 80 79 76 79 84 86 83 80 79 76 74 71
75 74 76 79 80 81 85 87 88 87 89 94 94 93 90 90 93 93 93 95 95 94 90 89 84 84 85 84 83 82 80 84 89 86 83 82 88 90 88 85 83 80 78
82 85 87 87 88 89 92 95 98 100 101 104 107 107 104 101 99 99 100 100 100 100 101 101 98 97 96 95 93 92 90 89 90 93 92 90 87 87 92 92 89 87 84
89 93 96 98 100 101 103 105 108 112 114 115 116 116 117 116 111 104 107 110 111 111 113 116 115 112 112 111 105 104 104 102 98 95 97 99 96 94 92 97 96 94 91
96 100 103 105 109 113 117 119 121 124 123 123 122 122 124 121 117 108 99 106 110 113 113 116 118 115 117 118 115 116 114 110 109 108 102 102 105 104 101 97 99 102 99
106 110 112 114 118 122 124 125 125 124 123 122 123 122 115 112 109 106 97 88 88 95 94 96 97 101 107 113 115 118 117 117 116 117 115 113 110 112 110 107 102 103 105
112 115 122 126 129 132 129 129 127 124 119 116 112 109 104 101 97 96 94 89 86 86 90 92 90 91 94 100 107 112 116 114 123 124 125 123 119 116 119 115 112 108 107
122 128 128 131 134 132 129 125 121 115 109 105 101 100 96 95 91 90 88 85 83 82 87 91 91 89 89 90 94 100 106 108 115 128 130 128 123 122 121 121 119 117 114
129 132 135 135 132 128 124 118 113 110 108 105 100 95 90 87 85 85 83 80 76 77 79 86 88 89 89 90 95 97 100 102 108 115 123 132 134 124 123 123 125 124 121
135 136 138 132 126 120 116 111 109 107 104 101 94 88 84 80 77 74 71 68 65 62 65 72 76 81 85 86 90 95 97 101 107 102 107 119 132 129 126 124 123 125 126
138 132 128 124 119 115 111 108 105 102 96 90 86 81 78 74 70 68 64 62 60 57 56 67 67 71 76 79 85 92 94 98 98 98 96 100 118 127 127 121 126 125 126
129 124 123 118 114 110 106 101 97 93 87 81 77 75 71 68 67 63 60 58 57 56 53 61 64 65 68 72 76 84 90 95 96 98 90 95 103 113 117 120 126 130 129
116 118 116 113 110 104 98 93 89 86 80 76 73 70 67 63 62 60 56 53 52 53 52 55 61 61 63 66 71 74 81 86 89 90 85 90 101 104 106 109 118 125 131
108 106 103 98 93 88 84 81 81 79 75 72 69 66 62 58 56 56 54 54 50 50 51 53 57 57 60 62 64 67 71 76 78 78 77 82 91 99 102 105 109 116 126
103 95 89 84 81 78 75 74 75 71 69 67 64 62 61 57 54 51 51 51 46 44 48 49 54 55 56 58 58 58 61 66 69 70 72 74 85 97 102 103 108 114 120
93 87 82 77 76 74 70 69 69 66 64 62 59 59 57 54 50 45 43 44 42 39 41 42 46 49 50 52 53 53 55 56 57 62 66 70 78 92 100 102 104 110 114
86 82 77 75 73 69 66 63 63 62 59 57 53 50 49 47 45 42 39 39 36 35 37 37 38 40 41 42 45 49 51 52 54 58 63 69 75 84 93 99 100 102 106
82 78 74 70 66 65 62 60 56 55 53 50 48 47 47 45 40 40 40 37 33 35 36 34 35 35 38 38 41 42 45 48 52 55 56 63 69 78 84 90 96 99 100
77 74 69 64 62 61 59 56 53 52 49 45 43 42 41 39 38 37 36 33 32 32 33 32 32 33 35 35 38 41 42 46 50 52 52 58 64 70 76 83 90 95 97
72 69 65 60 58 56 54 52 50 47 44 41 39 37 35 34 33 32 30 29 31 30 30 31 29 30 32 33 36 38 41 43 46 48 43 52 59 63 69 77 83 88 92

GFSMA_250_spd_012.txt.gz
Wind_Speed
56 51 49 48 48 48 48 50 52 51 50 52 52 52 52 50 49 48 47 46 46 45 41 39 40 39 39 50 59 59 60 58 54 56 58 60 68 71 73 76 72 71 72
60 60 50 49 55 54 52 53 53 54 57 57 58 56 55 55 55 54 50 49 49 50 50 45 43 48 48 48 49 57 59 62 66 62 64 62 65 71 76 77 71 72 70
60 53 56 57 58 57 58 56 57 59 59 60 59 59 56 57 59 59 59 58 56 55 54 52 49 47 53 55 54 51 60 64 66 69 66 66 68 68 71 70 67 66 68
59 59 62 64 65 63 61 62 62 63 63 63 63 63 62 63 65 65 64 64 62 60 60 59 56 55 52 56 61 60 58 65 73 69 72 72 74 67 74 73 62 63 63
62 63 67 68 67 69 71 70 69 67 67 68 68 68 68 69 71 72 70 70 69 70 69 68 67 66 64 61 61 63 67 65 68 79 77 75 73 72 72 75 68 69 63
65 68 70 71 71 72 75 76 76 76 76 77 77 77 78 80 82 82 82 80 79 79 78 79 79 78 76 74 72 68 67 72 73 72 82 82 80 79 76 73 77 71 69
69 71 74 76 78 80 82 83 82 84 86 85 83 84 83 86 89 92 92 91 90 91 89 89 87 87 87 85 82 81 75 75 76 78 77 80 86 87 84 84 82 81 78
76 79 82 85 87 88 88 89 91 92 93 95 94 95 92 94 97 97 99 100 100 102 102 100 98 95 94 94 94 91 88 85 80 80 82 84 83 88 90 90 90 86 83
84 87 91 92 92 92 93 95 98 101 103 105 105 107 108 107 106 109 111 109 110 112 111 109 108 108 105 102 100 99 98 95 91 88 87 88 90 89 90 90 94 92 90
90 95 98 99 102 104 106 108 110 114 117 117 118 119 121 118 116 113 115 117 119 119 119 117 114 113 114 112 109 108 105 103 103 100 94 93 92 96 95 93 95 97 96
98 102 106 108 110 114 117 119 122 125 127 126 126 128 129 122 115 114 106 109 110 117 122 123 120 115 116 115 117 116 114 115 112 109 104 99 101 99 99 99 97 98 100
103 108 112 114 118 123 128 131 132 133 132 131 126 122 117 109 103 102 97 93 94 98 102 110 112 113 112 113 116 120 121 123 124 118 116 115 110 108 104 104 105 103 102
110 115 119 123 127 133 136 134 134 132 129 125 119 114 110 105 98 93 89 83 83 88 93 98 98 100 101 105 106 113 120 124 130 128 128 127 120 116 113 109 110 111 109
119 122 124 129 134 134 132 130 128 124 120 114 108 103 98 96 92 87 84 82 77 79 87 93 97 99 98 99 102 104 109 117 122 128 135 134 130 125 123 120 117 118 117
126 128 130 131 132 129 129 126 120 115 109 103 98 92 87 84 82 81 79 77 75 72 75 89 97 98 96 96 99 100 103 106 111 118 130 131 131 130 132 130 126 123 124
129 132 130 129 128 129 127 119 113 110 104 97 89 83 79 75 73 71 69 68 69 65 66 77 90 92 93 95 97 96 98 102 106 112 119 121 122 125 128 134 134 130 130
130 129 125 124 121 119 115 108 103 96 93 90 85 80 76 73 70 66 63 61 60 59 57 68 77 80 82 85 88 90 93 97 101 107 115 118 118 117 118 127 134 135 136
123 123 122 117 113 108 102 98 92 89 85 81 77 74 72 68 65 62 60 60 58 56 53 61 69 72 73 74 79 82 85 89 95 100 108 116 115 115 112 118 124 131 134
125 123 115 108 99 94 91 88 83 80 76 74 72 68 65 62 60 57 55 55 55 53 49 53 62 63 65 67 72 75 77 80 88 95 100 109 114 112 113 113 117 122 130
119 113 106 98 91 86 82 79 77 75 72 68 66 63 60 57 55 53 52 52 51 50 49 47 56 57 56 60 63 67 71 73 80 86 90 98 106 109 112 112 107 108 116
110 103 97 91 86 82 78 76 73 69 67 64 62 58 55 53 49 47 47 47 47 46 45 45 49 54 55 55 56 59 64 67 74 76 79 85 95 101 105 107 104 104 106
101 93 88 82 79 76 73 71 68 66 62 58 55 54 52 48 46 43 42 43 44 44 42 40 44 49 50 48 48 52 59 62 67 71 73 78 83 88 90 93 99 102 104
92 86 81 78 75 71 69 66 62 61 59 55 53 52 52 48 44 43 39 40 42 42 38 38 43 46 43 42 43 49 53 55 61 63 67 70 74 79 82 83 90 98 103
82 78 75 72 68 66 64 61 59 55 52 49 49 48 47 45 43 41 38 35 35 36 35 38 41 36 36 37 41 45 47 51 55 57 60 63 65 72 74 78 82 93 104
78 74 70 67 64 61 59 56 54 50 47 46 43 43 43 40 38 36 33 31 31 31 32 34 32 33 34 37 39 41 43 46 50 52 55 58 59 65 68 73 80 89 100
74 71 67 63 60 57 54 52 50 50 48 45 42 39 36 35 33 31 29 27 27 26 27 28 29 30 29 30 34 36 38 41 44 46 49 57 56 59 64 70 77 84 93

GFSMA_250_spd_018.txt.gz
Wind_Speed
69 67 69 68 67 68 68 69 72 69 69 64 58 58 59 59 57 54 53 53 54 53 51 51 49 45 42 40 41 40 39 45 68 74 84 89 88 94 88 90 74 88 88
63 65 67 69 68 65 66 66 65 69 70 69 64 62 63 64 62 57 56 58 59 59 57 54 53 50 48 46 43 44 46 43 54 68 70 80 86 88 96 90 92 90 85
68 70 69 71 72 71 68 68 70 71 72 71 68 68 68 68 67 64 62 62 64 64 64 62 59 54 54 54 51 51 51 52 53 55 65 67 80 78 84 93 94 84 78
74 73 75 77 74 72 71 72 75 76 75 71 71 73 72 74 73 73 73 74 74 72 69 68 67 65 61 59 59 58 56 55 58 57 61 67 69 72 69 76 86 90 93
77 78 81 79 76 78 80 80 80 78 76 75 73 73 77 79 79 81 81 81 81 81 81 79 75 73 72 70 67 66 65 63 60 61 63 66 69 74 73 75 72 74 79
85 83 79 79 80 82 82 81 81 80 80 79 81 83 87 89 88 89 89 90 90 90 88 87 85 84 81 79 78 76 73 72 71 68 65 70 70 72 76 76 78 76 78
81 80 81 81 82 81 83 84 85 87 89 91 91 91 93 95 98 101 102 102 103 102 100 97 95 92 91 90 87 86 84 82 79 79 76 71 73 76 76 75 81 82 80
81 82 83 83 85 88 87 88 89 90 94 96 98 99 101 103 107 108 111 112 111 108 107 106 105 104 102 101 98 95 94 93 90 87 86 84 81 75 78 81 80 82 85
82 84 86 88 90 92 91 92 96 98 101 105 110 112 112 111 112 111 113 113 113 112 112 114 114 113 114 113 112 108 104 103 102 99 95 93 91 87 83 79 83 83 84
84 87 89 92 93 95 98 102 106 109 112 115 118 120 123 124 122 116 117 117 119 120 121 121 121 119 117 119 122 121 119 115 112 111 108 104 101 97 95 90 85 87 89
85 86 89 93 98 103 107 111 113 117 120 123 126 126 127 126 125 123 113 115 115 117 118 121 123 122 117 110 114 121 129 130 127 124 119 115 113 109 103 102 96 91 90
85 90 95 100 104 108 113 116 120 126 128 128 126 125 123 119 119 119 111 103 100 101 100 104 110 110 109 107 107 108 115 122 130 134 132 127 122 118 114 109 106 102 96
91 96 101 107 113 118 122 121 124 126 122 122 121 119 120 118 115 111 103 94 89 88 87 90 91 94 97 99 99 102 107 110 116 125 133 137 134 130 124 119 113 111 107
98 104 110 117 120 122 122 124 124 120 118 118 117 113 111 105 100 94 89 82 79 77 79 80 82 84 87 89 91 96 101 105 107 115 123 130 137 138 135 130 124 119 116
107 112 114 116 119 121 120 119 118 116 113 112 108 103 98 93 88 83 79 75 70 69 71 75 75 77 78 81 83 88 93 97 101 105 115 123 129 136 139 138 133 129 124
108 111 114 115 116 117 116 114 110 108 107 103 96 92 87 83 80 77 73 70 68 63 62 73 73 74 74 74 76 80 86 90 94 98 104 112 122 127 132 137 137 136 133
114 114 115 115 115 115 112 108 103 99 95 92 88 83 81 77 76 71 68 65 63 60 54 66 67 71 71 71 71 71 76 82 86 90 95 101 110 117 121 127 135 138 138
118 118 118 114 112 110 106 99 95 91 88 85 82 79 76 72 69 66 64 62 58 55 51 53 64 66 64 66 66 65 70 75 78 82 86 93 99 105 113 117 121 131 136
118 117 117 113 110 103 95 91 88 86 83 79 76 73 70 67 65 63 60 58 55 54 51 50 59 61 61 62 62 62 63 66 72 76 79 84 90 96 103 109 112 117 125
120 119 116 110 100 94 89 86 83 80 76 72 70 68 66 62 60 58 57 55 52 50 48 46 51 56 57 56 57 58 60 58 65 70 73 77 83 90 96 102 104 105 115
122 119 111 102 94 90 87 82 79 76 72 69 67 64 61 58 55 53 51 51 50 48 46 45 46 50 50 51 53 52 55 56 59 66 69 72 75 81 89 94 97 100 107
121 115 106 95 89 86 82 78 75 72 68 64 63 63 59 57 55 52 49 47 46 46 45 43 43 46 47 47 49 48 49 55 56 60 64 69 69 73 80 84 89 96 100
115 110 100 93 86 81 76 73 72 69 64 60 60 58 57 53 50 48 45 42 41 39 39 38 39 41 43 41 45 47 45 49 54 56 60 64 63 67 71 77 80 87 94
110 101 95 89 84 78 73 71 69 66 62 56 54 53 50 48 45 44 42 39 36 35 34 33 33 34 37 39 40 43 42 46 48 52 55 58 57 62 65 69 75 82 86
103 97 90 84 79 73 70 67 66 63 58 54 52 49 47 45 43 41 39 37 35 33 32 32 31 31 31 33 35 35 38 41 41 44 53 53 52 54 60 64 70 76 80
100 92 85 79 74 69 67 64 62 59 57 54 51 48 44 42 40 37 35 32 30 30 29 28 27 27 27 28 30 31 33 33 34 40 47 44 46 52 57 59 63 68 74

GFSMA_250_spd_021.txt.gz
Wind_Speed
68 64 64 63 63 62 64 67 65 68 70 69 66 65 63 61 61 61 56 54 55 52 51 50 48 46 44 44 42 40 38 41 40 39 56 89 90 89 90 89 83 74 77
69 66 67 70 69 69 71 72 72 71 71 71 70 70 69 68 67 65 61 60 60 58 56 55 54 51 50 50 49 47 44 43 47 46 48 59 94 92 95 96 89 90 76
69 73 74 76 77 77 75 79 74 74 73 73 73 73 72 70 68 67 66 66 64 63 62 61 62 62 61 59 56 54 52 49 48 53 54 54 65 87 96 97 92 93 88
72 78 84 79 82 84 86 84 81 77 76 75 75 75 74 74 74 73 71 70 70 70 70 70 70 69 69 67 66 64 61 58 56 54 59 62 60 71 78 81 97 98 91
84 90 87 85 87 89 89 89 83 79 79 78 78 79 81 81 80 79 80 79 80 80 79 79 78 77 76 76 75 73 70 68 65 63 62 66 69 66 70 73 86 102 104
88 95 92 94 92 88 87 83 84 83 83 83 85 85 85 84 85 85 86 87 87 87 87 86 86 86 86 86 85 83 81 77 74 73 71 70 71 75 74 71 76 87 87
93 95 94 90 88 85 86 86 87 88 89 89 88 87 88 89 91 92 95 95 95 96 98 99 98 96 94 94 94 93 92 89 84 83 81 79 77 79 77 79 78 81 83
88 88 85 85 88 89 89 89 89 89 89 89 91 94 95 99 102 105 107 110 112 112 112 112 111 110 109 107 106 103 101 100 98 93 90 89 87 83 85 81 82 83 84
81 84 85 85 86 88 90 90 91 94 98 102 105 108 108 110 113 116 117 118 121 122 123 122 123 123 123 121 119 118 114 109 107 106 103 99 97 94 91 89 86 85 88
79 81 83 85 87 88 90 93 97 103 108 112 115 118 118 120 120 117 119 121 123 125 126 124 123 121 118 116 115 117 124 124 120 117 114 111 107 104 101 97 94 91 87
78 79 81 83 86 90 95 101 107 111 113 114 117 119 120 119 123 125 121 122 120 121 121 119 115 112 114 113 109 107 110 119 128 129 126 124 120 115 110 107 103 99 95
76 76 80 87 92 98 104 110 113 115 115 117 119 116 114 117 120 121 115 112 112 115 110 105 104 102 102 102 102 102 106 108 110 119 126 129 131 127 121 117 112 108 104
78 83 89 94 99 104 108 112 114 116 115 114 114 115 117 119 118 114 109 100 95 97 96 92 90 89 88 89 90 92 97 105 108 108 115 124 127 132 132 127 121 117 111
85 88 93 101 106 112 112 113 114 114 111 109 111 111 111 109 104 98 92 85 81 80 83 82 82 80 79 79 81 83 88 94 100 105 109 114 122 127 134 136 131 125 121
88 96 102 105 113 113 115 113 111 112 107 105 104 101 99 96 93 88 82 76 70 69 73 77 74 73 72 72 75 74 78 85 90 96 101 107 114 121 127 133 138 135 128
97 103 108 112 112 111 110 111 109 104 100 97 94 91 90 86 83 78 75 71 66 61 61 72 73 69 67 68 69 69 71 76 81 86 91 97 105 114 121 127 133 138 135
104 107 110 111 110 111 112 108 100 97 92 89 86 84 80 77 76 73 69 67 64 59 55 68 66 69 67 62 62 65 68 71 75 79 83 88 94 102 111 121 127 134 140
109 109 111 111 113 114 108 101 95 91 87 82 79 77 75 72 70 68 65 63 59 55 51 56 63 64 65 63 59 59 65 65 69 74 77 81 86 91 99 110 120 127 131
111 113 114 114 117 111 103 95 90 84 81 78 76 73 71 69 67 65 62 59 55 52 48 46 57 57 58 60 58 57 58 61 63 67 72 76 80 83 88 97 109 119 127
113 113 115 117 115 107 95 89 83 80 77 75 72 70 68 66 65 63 61 58 55 53 50 45 51 52 52 52 52 54 54 53 57 61 66 71 75 78 82 87 96 106 115
114 116 117 116 108 97 90 85 81 78 75 73 70 68 66 63 61 58 55 52 51 50 47 44 46 48 49 49 46 48 50 47 54 59 61 65 69 74 75 80 86 95 106
116 116 116 111 102 93 85 80 78 75 72 70 67 66 63 59 57 53 49 47 46 46 44 41 40 40 42 44 44 41 41 44 49 55 58 60 64 69 73 74 78 85 95
117 116 112 103 95 89 82 78 75 73 71 67 64 62 60 56 54 52 49 46 44 42 41 39 38 37 37 38 38 37 38 40 44 49 55 56 59 62 67 71 71 78 86
116 112 106 97 91 85 79 76 74 72 68 64 61 58 57 54 52 49 46 43 41 39 38 36 36 34 33 34 35 34 35 37 38 43 47 48 54 56 59 65 68 72 78
112 107 101 93 87 81 77 74 73 70 66 63 59 56 54 51 47 45 43 40 38 36 35 33 32 31 30 30 30 31 32 34 35 38 40 41 48 51 52 58 65 67 72
107 102 97 90 83 77 74 73 70 66 63 61 57 53 49 45 41 40 38 37 35 33 32 31 29 28 28 27 26 26 28 30 33 35 36 39 47 49 47 52 58 63 68

GFSMA_250_spd_024.txt.gz
Wind_Speed
84 81 75 70 66 60 62 68 68 73 74 71 71 67 64 61 60 59 58 59 58 57 55 55 54 53 52 51 48 45 43 41 40 38 40 42 77 80 83 79 79 83 73
76 75 73 70 72 72 70 72 74 80 81 82 81 81 75 71 69 67 66 63 64 61 57 55 55 57 59 57 55 52 50 47 45 44 44 48 51 83 88 86 82 86 84
68 71 73 73 73 75 78 81 84 84 87 90 91 83 80 76 71 70 71 71 68 66 65 62 60 60 61 61 59 58 57 56 53 52 51 48 53 69 89 94 90 88 86
68 75 74 69 70 72 80 81 87 94 97 94 86 84 80 79 78 74 73 73 73 72 69 69 68 68 67 66 66 65 65 63 61 59 57 55 56 61 77 97 97 94 97
67 73 74 78 81 85 88 92 98 100 93 88 85 84 83 83 82 81 78 77 77 76 75 72 74 75 73 74 75 76 75 73 71 69 66 64 62 63 69 71 100 103 98
83 85 90 93 96 98 99 98 95 91 88 87 87 85 85 84 80 80 80 82 82 82 84 84 82 85 83 83 85 84 83 82 80 78 76 72 70 68 70 76 78 96 102
84 89 93 95 93 91 90 88 91 89 90 89 86 83 83 84 83 85 90 92 95 96 98 99 98 95 95 94 96 93 95 93 90 88 85 83 80 77 75 77 83 84 89
86 84 83 85 86 88 87 88 89 89 89 86 85 88 90 94 99 98 102 107 109 109 112 112 112 111 109 107 106 104 105 104 103 100 97 94 91 88 84 81 85 88 85
79 81 83 84 85 85 87 87 87 86 89 93 94 98 102 106 108 113 116 117 119 120 121 122 123 121 120 122 123 122 119 118 115 111 110 105 102 99 95 91 88 91 93
79 81 82 83 84 84 82 83 88 93 95 100 106 109 111 115 119 118 119 121 121 125 125 124 121 119 116 115 112 115 119 129 131 128 122 118 114 110 106 102 98 94 96
75 75 76 76 78 81 85 90 94 97 104 109 114 118 121 121 121 117 113 115 119 120 117 119 115 112 109 108 106 105 103 112 113 117 126 131 126 122 117 113 109 105 101
67 69 73 78 83 87 91 95 100 106 110 115 118 120 119 114 114 117 118 118 116 117 113 108 105 102 97 93 94 94 100 103 106 112 117 120 124 129 127 123 119 115 111
71 76 81 84 86 90 96 101 106 110 112 113 114 111 110 110 110 111 110 105 101 102 100 96 91 87 85 83 82 82 86 92 98 103 107 110 114 118 126 130 129 125 121
75 80 84 88 92 99 103 107 109 109 110 110 110 106 104 104 103 100 97 92 88 88 89 86 83 77 74 73 76 77 78 81 88 95 103 105 109 114 116 120 125 128 129
81 86 89 94 99 104 108 109 109 108 111 110 103 101 100 98 96 92 88 83 77 73 77 79 76 70 67 67 69 71 74 76 80 86 93 101 106 110 114 115 118 125 128
87 91 96 100 105 107 108 108 108 111 109 105 101 98 95 92 89 84 79 74 70 65 65 74 71 66 63 62 62 65 70 73 75 79 84 90 96 104 111 114 117 120 124
94 97 101 104 104 106 108 108 110 109 105 101 96 92 87 84 80 75 72 68 66 63 57 71 65 64 62 59 56 58 63 68 70 73 77 81 86 93 100 110 117 119 123
100 103 103 101 104 106 108 108 108 106 100 93 89 84 80 76 72 70 67 64 61 60 54 61 64 61 60 59 55 55 57 62 66 68 69 77 80 84 89 97 108 118 122
106 108 104 103 105 107 109 110 106 99 91 86 82 77 73 70 70 67 63 61 59 57 54 53 58 55 56 56 56 56 53 55 61 64 66 72 72 78 81 87 96 106 118
109 109 105 105 109 110 108 106 99 91 85 81 76 72 70 68 66 64 62 60 57 55 52 50 52 50 49 49 52 53 53 52 53 58 63 65 69 74 77 80 86 94 104
110 107 106 108 110 110 106 100 91 84 80 76 72 71 68 66 64 62 58 57 55 54 51 48 47 44 43 43 46 48 50 49 48 50 58 63 65 69 73 77 80 86 95
108 107 108 108 110 106 103 95 86 81 76 72 71 69 65 63 61 59 57 54 51 50 49 46 45 43 41 39 41 41 44 45 44 47 51 59 60 64 68 73 77 82 87
109 108 110 110 107 104 98 88 82 77 73 71 69 65 62 59 58 58 55 51 47 44 43 43 42 39 37 35 36 36 37 39 42 43 49 55 58 60 65 69 73 76 82
108 109 109 109 104 101 91 84 79 74 72 70 66 62 59 56 55 55 51 47 43 41 39 37 36 34 33 32 31 33 34 34 36 39 46 51 56 56 58 64 68 72 78
106 108 109 104 102 95 86 80 76 72 70 66 62 59 55 54 53 50 47 44 40 39 37 35 32 30 28 28 28 29 30 31 33 37 44 47 51 52 53 57 64 68 73
108 108 104 102 99 89 83 77 72 70 66 62 58 55 53 51 48 45 43 40 38 37 35 32 30 27 26 25 25 25 26 28 30 33 37 43 47 48 49 53 60 64 67

GFSMA_250_spd_027.txt.gz
Wind_Speed
87 83 81 82 79 72 67 66 70 70 65 64 74 78 80 77 75 75 69 66 64 60 58 53 53 54 54 52 49 49 50 50 48 45 44 43 52 76 78 76 71 67 70
75 74 75 74 70 69 70 71 66 67 70 66 77 79 81 87 89 93 87 70 67 65 65 61 59 57 56 56 54 52 53 55 54 52 50 47 48 62 81 85 79 74 70
68 65 69 69 68 69 69 62 71 70 77 81 87 88 91 95 97 95 81 78 74 68 68 67 67 66 63 59 59 60 58 58 59 59 57 54 54 55 77 85 86 84 79
60 59 58 63 70 75 72 78 82 84 90 93 94 99 97 90 87 86 84 80 76 77 70 68 70 72 68 66 66 66 66 64 63 64 64 62 61 60 64 82 84 92 90
65 68 72 75 78 80 81 89 92 93 95 98 94 89 88 84 83 82 83 80 77 75 74 72 67 72 72 70 71 72 70 70 71 69 69 68 67 66 66 67 88 98 96
75 78 82 82 87 89 92 94 99 101 94 91 89 88 89 88 86 83 81 80 81 83 82 82 84 83 80 80 79 81 77 79 77 77 78 77 75 74 74 72 75 92 102
79 79 82 87 91 93 96 97 93 90 90 90 87 85 86 85 85 85 85 87 90 92 92 92 94 96 97 95 95 94 94 91 86 86 87 87 86 82 81 79 79 80 99
72 75 80 81 82 86 89 89 89 90 89 86 85 83 83 87 92 95 96 99 102 103 108 111 113 113 110 111 109 111 112 105 103 101 98 96 96 94 91 88 85 82 81
76 79 82 86 88 88 88 87 83 80 82 85 90 91 93 95 98 104 109 114 117 118 120 121 123 123 124 120 120 118 118 121 122 117 112 108 105 103 101 98 95 92 90
76 77 77 79 79 77 74 76 81 83 87 91 96 101 105 108 111 110 114 119 122 123 124 122 119 117 117 116 115 116 114 113 119 128 124 121 117 113 110 107 104 101 97
67 69 69 69 69 72 76 82 86 92 98 102 104 107 111 113 115 116 112 112 111 114 119 119 118 116 115 112 109 110 103 106 108 111 119 123 118 121 120 115 112 110 107
65 63 65 68 72 77 82 90 94 98 101 105 110 110 110 111 111 108 107 107 106 108 112 113 111 107 102 99 94 92 89 88 95 103 104 111 119 116 119 123 121 117 115
64 64 69 74 79 85 92 97 99 102 106 108 106 106 106 109 109 106 102 99 98 100 101 99 94 90 85 83 83 80 80 79 82 91 95 101 107 114 115 120 125 126 122
67 70 76 81 88 94 99 103 104 108 108 105 104 103 106 103 98 96 96 93 89 89 90 89 87 80 75 73 74 75 74 72 76 82 85 93 101 107 113 117 120 124 128
71 75 81 88 94 100 104 106 109 108 106 104 105 108 107 101 98 95 92 89 84 79 79 81 78 74 70 68 68 70 72 71 72 75 79 84 93 99 107 114 117 120 122
77 82 88 95 101 105 108 110 108 107 107 107 108 108 102 98 94 92 88 83 78 71 63 76 74 69 68 65 63 64 67 68 71 71 74 78 83 91 99 108 116 118 121
83 89 95 101 106 108 111 109 106 109 108 107 106 103 97 94 92 87 82 77 72 68 60 69 68 64 63 61 60 59 61 66 68 72 72 73 76 82 91 99 109 117 119
91 96 101 106 109 111 110 107 108 108 109 106 101 96 92 90 86 80 75 72 69 66 60 59 67 61 58 56 57 57 58 60 64 69 71 70 71 78 83 90 99 108 116
98 102 106 110 112 111 110 108 107 106 105 101 97 91 88 83 78 74 71 68 65 62 60 56 60 58 54 52 53 53 54 56 57 62 65 67 70 71 77 83 90 98 108
103 107 110 111 108 108 108 107 107 105 99 96 92 88 82 77 72 70 67 64 62 60 58 55 55 54 51 49 49 49 50 52 53 54 57 62 66 66 73 77 82 88 97
110 112 112 109 107 108 110 108 106 99 97 92 88 82 74 71 69 66 63 61 59 58 55 52 51 49 47 44 45 46 46 47 50 50 49 56 60 64 68 74 76 81 88
111 110 107 106 107 111 112 106 100 98 92 89 82 75 70 66 65 62 60 58 55 54 51 48 46 43 42 40 42 42 40 42 44 43 47 50 56 62 64 70 70 75 82
105 105 106 106 110 107 107 101 97 94 89 83 75 70 66 63 61 58 55 53 52 48 46 45 43 40 39 38 37 36 37 39 39 38 42 47 54 60 59 63 68 74 79
103 105 108 110 110 101 100 97 92 89 84 75 71 67 63 61 58 55 52 51 48 45 42 41 40 39 36 33 32 32 34 35 37 37 39 43 50 55 56 57 66 70 73
106 110 112 107 103 98 99 91 90 86 77 70 66 64 61 58 55 53 50 47 43 42 40 39 37 34 32 30 29 28 30 30 33 35 38 41 45 52 54 55 61 64 69
111 113 107 101 102 99 94 89 87 80 72 67 63 60 59 55 53 50 47 44 41 39 37 35 33 31 29 28 26 25 25 27 29 33 36 37 41 46 49 49 53 58 64

GFSMA_250_spd_030.txt.gz
Wind_Speed
87 94 99 100 100 101 98 93 87 77 69 67 70 73 64 73 75 80 78 82 79 80 76 62 55 53 54 52 55 55 53 51 47 51 52 48 47 50 70 70 68 65 65
98 102 104 99 99 95 89 78 73 73 68 71 72 75 74 78 85 87 87 84 89 88 77 71 66 60 59 58 58 59 59 58 54 53 56 57 54 54 65 77 77 75 71
99 98 98 95 84 81 80 75 73 73 77 79 83 81 87 88 90 93 94 95 82 78 76 72 66 65 63 62 61 60 61 62 61 59 60 60 61 57 56 79 83 81 79
94 92 90 84 81 82 79 79 82 84 84 88 89 91 91 93 91 85 83 85 83 78 75 74 72 69 68 69 65 66 66 63 64 66 65 64 65 67 65 60 87 88 90
82 80 80 81 82 81 83 84 86 88 86 83 83 88 88 90 92 89 82 79 80 80 80 77 73 71 71 70 72 71 71 67 70 71 69 70 70 71 72 70 83 95 98
72 75 78 80 83 82 86 87 87 88 88 86 84 84 81 80 79 78 76 78 81 82 84 85 85 84 84 83 82 81 79 78 77 76 76 80 79 77 77 79 79 94 102
66 68 71 75 79 81 82 84 84 81 80 77 74 70 69 71 79 83 87 90 93 95 98 99 100 100 99 97 95 95 94 93 91 88 85 85 86 86 84 83 84 86 95
69 71 74 75 75 76 76 74 72 69 69 70 69 74 77 80 87 93 98 102 105 109 111 112 113 113 113 110 110 111 107 106 104 102 99 96 93 93 93 93 92 93 92
65 66 68 69 70 71 71 69 67 67 68 73 79 83 86 91 95 101 105 108 111 116 119 120 118 116 113 113 113 115 111 110 112 114 113 109 106 101 99 99 100 100 101
64 65 66 67 69 71 72 71 71 73 77 80 86 93 98 102 104 104 106 109 111 114 116 114 111 108 108 107 106 106 104 100 100 109 121 123 114 112 108 104 106 106 108
62 64 67 69 70 70 71 73 77 80 85 91 96 101 106 109 111 111 105 104 103 106 108 109 109 109 110 107 105 104 100 98 101 104 105 108 117 120 118 116 111 113 112
63 63 67 70 71 73 75 77 81 87 93 99 105 108 109 110 109 106 103 97 93 98 103 104 103 103 102 100 97 96 92 91 89 90 93 97 101 111 118 119 120 117 118
68 69 71 71 73 76 80 85 91 97 102 107 111 112 110 106 102 100 99 96 91 90 94 100 98 95 91 86 83 82 81 81 79 81 83 85 91 98 106 114 120 123 126
73 72 71 73 78 84 90 94 98 102 108 112 111 109 107 105 106 105 99 94 86 86 89 91 92 85 77 73 73 72 72 72 72 72 77 81 84 89 97 105 112 120 128
77 75 75 79 86 93 97 102 107 110 110 110 108 105 106 109 105 101 96 93 90 83 79 85 81 76 71 70 68 69 70 69 70 68 70 75 78 84 91 98 107 114 123
80 79 83 88 93 99 104 107 111 109 105 105 109 108 109 106 102 97 96 93 90 82 71 76 78 72 70 69 67 67 67 67 69 69 68 70 73 78 84 93 101 110 120
81 83 89 94 100 104 108 111 109 107 107 106 108 106 105 101 101 98 94 89 83 77 70 70 72 70 67 63 64 63 63 63 64 67 68 68 69 72 78 85 94 104 113
84 89 94 101 104 107 110 107 103 105 108 108 108 104 101 100 98 94 89 82 77 73 68 65 68 65 61 58 58 60 60 60 62 63 65 65 66 70 74 78 86 95 106
92 96 101 104 107 109 105 103 103 106 109 107 103 99 97 96 93 87 81 76 72 70 67 62 61 62 58 55 54 54 55 56 57 60 59 61 65 68 70 73 80 87 99
97 101 104 107 107 104 104 105 103 104 107 106 102 97 94 89 86 81 76 71 68 66 63 61 58 56 55 53 49 50 50 49 54 56 55 55 60 66 68 70 74 80 88
103 105 107 109 103 104 108 106 106 102 99 99 96 94 90 82 79 76 71 67 63 61 59 58 56 54 52 49 46 45 43 45 47 48 52 52 53 60 65 67 69 76 80
109 109 106 102 105 107 110 111 110 108 99 94 92 89 83 76 75 70 68 64 59 58 58 55 54 49 46 42 41 41 38 39 43 41 46 49 49 53 60 63 65 69 75
112 106 103 105 105 108 109 111 103 99 96 90 87 82 77 72 70 65 61 59 58 57 55 54 49 44 41 38 38 37 37 37 39 38 42 44 45 49 54 62 64 66 71
109 107 106 107 108 112 113 99 95 96 92 87 82 76 74 67 65 62 59 55 55 54 53 50 45 43 40 38 36 35 35 34 35 36 39 39 42 47 51 57 59 60 65
107 107 105 101 104 109 100 99 96 93 88 81 75 73 70 63 61 59 56 54 53 52 49 45 43 41 38 36 33 31 31 31 31 33 36 37 39 43 49 50 53 55 58
111 111 111 114 102 97 99 99 92 86 82 77 73 68 66 60 59 56 53 52 51 50 47 41 39 37 35 33 30 29 29 29 29 30 33 34 36 40 43 42 46 49 53

GFSMA_250_spd_033.txt.gz
Wind_Speed
88 92 94 95 94 96 96 97 100 100 102 95 90 83 78 76 77 76 78 75 80 75 75 75 75 73 69 64 57 51 52 58 55 58 57 52 56 57 57 48 69 77 77
93 94 93 96 99 101 106 103 104 101 103 91 84 80 76 79 81 81 81 86 87 87 85 85 82 76 73 70 66 62 60 59 61 61 62 59 57 62 63 59 66 79 80
91 97 103 102 96 97 97 98 101 102 92 87 84 82 83 84 83 82 80 80 79 80 80 79 75 74 72 71 70 68 65 64 66 68 66 66 65 66 68 67 60 77 85
95 96 100 99 98 98 98 98 93 87 87 86 86 86 87 88 88 85 82 77 74 72 72 72 72 71 71 71 68 71 70 69 67 70 73 73 72 71 74 73 71 74 85
94 94 93 97 97 95 90 83 80 83 86 88 87 87 84 81 79 74 72 70 69 69 71 74 76 79 80 81 83 78 75 74 73 75 77 79 80 81 78 81 78 74 89
88 93 92 87 83 79 77 80 80 80 80 80 79 77 75 70 70 69 71 74 76 81 85 86 88 90 90 90 90 91 93 90 83 80 79 82 86 88 88 86 88 83 88
82 79 73 75 77 77 76 77 77 75 75 77 78 77 76 75 75 77 80 83 87 91 95 99 100 102 102 102 102 102 103 102 102 96 89 88 85 92 94 94 93 93 89
64 65 66 67 69 72 73 74 74 76 79 81 80 77 75 76 79 82 86 91 97 101 106 111 113 114 113 111 109 107 105 103 100 102 102 97 98 93 96 99 100 99 98
53 56 59 61 64 68 71 72 74 76 76 77 78 77 76 78 81 88 95 99 106 112 115 120 121 116 113 108 103 98 97 98 98 95 99 105 100 104 102 97 102 106 105
53 57 61 67 70 73 76 77 78 75 76 76 79 83 87 89 91 94 99 104 108 112 114 115 116 111 106 103 99 94 92 94 94 94 91 95 103 105 107 108 102 104 112
62 67 71 74 78 80 80 79 78 78 79 84 89 93 97 101 104 104 100 97 100 103 103 108 108 105 103 101 100 95 92 92 93 93 93 94 97 100 104 106 111 106 106
65 70 75 79 84 85 80 79 77 80 86 90 95 100 105 106 106 102 97 96 96 98 102 106 106 102 99 96 93 88 85 83 82 84 85 88 93 96 100 104 110 113 112
72 76 80 84 87 81 79 80 84 90 96 101 105 108 110 106 102 101 102 100 98 96 95 98 98 93 90 86 82 80 77 76 75 75 77 80 83 88 88 94 108 112 118
80 82 87 90 86 81 82 88 93 97 101 106 110 109 109 107 106 104 106 107 101 92 89 89 91 86 80 77 74 71 69 69 68 69 71 75 79 82 85 87 97 109 113
82 88 91 90 86 83 88 93 99 105 109 111 111 109 107 107 108 108 108 108 104 92 91 90 87 84 79 69 66 65 63 63 63 63 65 69 73 77 81 84 91 102 110
88 92 90 87 85 89 94 100 104 110 111 108 105 104 105 106 110 110 110 103 101 98 90 87 85 80 72 66 64 62 61 61 61 61 63 66 67 70 75 80 87 95 105
92 94 90 87 90 94 100 106 109 111 108 104 102 101 105 107 107 106 105 101 99 94 88 84 78 70 66 63 63 61 59 59 59 59 60 63 65 68 71 74 81 89 98
94 91 89 91 95 101 107 111 110 105 103 101 99 102 103 106 103 103 102 99 95 90 82 74 70 66 62 60 58 58 57 57 57 58 58 61 62 64 69 73 78 83 91
93 91 92 97 102 106 110 111 106 103 103 103 103 102 102 99 98 98 96 92 87 82 75 68 66 62 60 56 55 53 53 53 55 55 56 56 59 63 66 71 74 80 86
93 95 98 104 109 111 108 106 104 104 105 107 104 99 97 93 92 90 88 84 79 74 68 65 62 60 58 54 52 53 52 49 51 51 53 56 57 58 63 68 71 75 81
97 102 107 110 109 106 106 105 105 105 105 104 102 98 92 87 85 81 81 78 71 66 64 62 59 57 56 53 50 47 47 48 44 45 52 52 51 56 59 64 68 70 74
104 110 114 112 106 100 99 103 107 108 106 101 95 92 89 83 79 76 74 70 65 62 61 57 55 54 52 51 48 43 43 43 44 41 50 48 47 52 54 59 64 66 69
111 115 112 108 105 105 108 109 107 104 102 99 93 89 86 81 76 72 67 64 61 60 57 55 54 52 51 49 45 41 40 39 41 41 44 44 45 47 50 53 59 63 66
116 114 111 108 107 109 106 105 105 100 99 98 92 84 80 74 70 67 64 61 57 57 53 51 50 50 48 48 45 41 38 36 38 39 40 38 42 43 46 50 53 59 61
117 112 110 109 111 111 112 109 104 98 93 92 86 78 75 70 66 65 62 60 56 54 51 49 48 48 46 44 43 38 37 38 35 37 37 38 38 38 40 45 49 52 54
113 110 108 111 111 106 106 105 101 95 88 85 79 73 70 65 63 60 59 57 54 52 49 46 45 45 43 39 40 37 36 35 34 34 35 35 35 33 36 39 42 45 49

GFSMA_250_spd_036.txt.gz
Wind_Speed
73 72 77 83 88 96 98 97 96 98 99 91 92 92 94 90 94 89 86 83 80 79 78 78 79 80 82 78 76 74 71 69 66 58 54 58 62 60 62 58 60 61 58
76 80 83 88 89 91 97 100 96 98 90 96 97 90 88 91 92 90 87 85 86 84 81 79 78 77 79 79 81 82 80 78 74 67 60 58 63 64 67 63 64 67 62
80 84 89 91 90 89 87 85 85 88 94 89 90 90 89 89 87 91 91 85 82 80 79 76 73 72 72 71 71 71 70 67 67 64 65 64 66 72 72 71 67 71 70
85 85 85 89 93 93 83 84 89 85 84 87 88 87 86 89 88 88 84 78 76 74 72 71 72 71 72 72 73 73 72 69 65 63 64 65 66 70 75 78 75 73 78
86 91 89 91 91 81 85 79 77 80 81 82 82 84 83 83 82 83 82 80 79 78 76 75 76 77 78 79 80 80 81 82 82 76 72 71 69 72 79 83 83 79 81
80 83 85 86 77 77 73 72 70 72 73 75 76 77 80 82 81 80 79 77 78 78 78 78 81 84 87 90 92 94 94 94 93 92 91 83 80 77 79 86 89 88 85
79 80 80 83 79 70 68 69 69 72 75 79 83 83 81 81 79 77 78 81 85 88 88 89 90 94 97 99 102 105 106 106 106 104 101 98 94 88 88 85 90 94 94
79 77 79 72 67 67 66 69 73 75 79 85 87 81 77 78 77 80 84 89 93 97 100 101 104 105 107 110 112 114 113 114 113 112 108 105 103 101 98 95 93 96 101
70 69 66 64 64 67 71 73 76 80 85 89 85 79 76 77 80 87 93 98 102 107 108 109 108 108 107 109 109 108 103 99 97 98 95 96 98 100 103 103 100 99 101
63 60 59 63 68 73 77 79 81 86 91 90 85 83 84 85 88 91 96 103 106 106 105 105 105 107 109 108 106 101 95 93 92 90 89 89 90 90 95 102 103 103 105
60 63 64 69 74 78 80 82 87 91 92 89 86 85 90 95 99 102 103 107 104 102 103 104 107 108 104 101 100 99 93 90 87 85 85 85 88 90 89 94 103 105 108
66 68 72 75 79 81 82 87 92 96 96 91 89 91 96 100 105 110 111 103 102 100 100 107 106 106 105 101 95 88 81 81 77 77 78 78 79 82 86 91 95 103 108
65 69 73 76 78 81 85 90 96 97 92 91 93 98 102 107 112 113 108 104 101 101 103 108 110 108 102 92 84 78 76 72 71 72 74 75 76 76 78 84 91 96 105
69 71 72 77 82 86 89 95 95 93 92 95 100 106 110 112 111 108 106 106 104 104 104 108 111 107 101 90 83 80 72 66 63 62 64 67 71 73 77 81 84 91 101
71 70 77 84 87 90 95 97 95 95 98 102 108 113 113 109 105 104 106 108 111 107 101 100 101 101 96 89 82 74 67 62 58 57 58 61 64 68 72 77 83 88 95
72 78 82 86 90 96 97 95 96 100 105 110 113 110 104 101 102 105 108 111 109 107 98 93 94 94 89 84 79 69 65 60 56 54 55 57 60 64 67 71 78 85 91
79 83 86 90 96 97 96 98 102 108 112 111 103 100 99 101 105 109 109 109 105 100 93 90 90 86 82 78 72 65 61 57 53 51 52 54 57 61 65 69 73 78 87
85 88 90 96 97 97 99 104 108 110 108 105 103 101 101 102 105 109 108 105 101 94 89 87 86 81 75 69 65 61 57 53 53 52 52 54 56 58 62 67 71 74 80
90 92 97 96 96 98 104 108 111 107 104 103 104 104 106 106 105 103 99 95 93 88 85 82 78 74 70 63 61 57 54 51 51 50 51 54 54 56 59 62 66 72 78
94 95 95 95 99 105 107 108 107 105 104 104 106 107 106 106 99 94 92 90 87 82 80 76 72 69 63 59 57 55 52 50 48 47 52 52 52 53 55 58 64 67 73
94 94 95 101 105 108 111 108 106 106 106 108 109 108 103 100 97 92 87 85 80 77 75 71 67 63 58 57 53 51 48 51 46 46 49 43 47 49 51 55 59 64 68
96 98 103 105 110 114 110 107 108 110 109 109 103 102 100 99 93 87 81 77 74 69 68 65 61 56 56 53 51 48 48 47 45 41 46 38 45 44 45 49 53 58 63
99 106 109 113 116 114 111 111 111 110 107 103 100 98 95 91 86 81 77 71 67 64 62 61 59 54 53 49 49 46 45 44 39 42 39 34 43 41 42 44 48 52 58
106 109 114 118 117 114 113 113 112 109 104 99 96 91 87 83 77 75 72 69 65 61 57 55 54 54 50 47 46 45 46 41 36 37 38 32 39 36 39 41 44 48 54
111 115 119 120 117 115 113 112 110 105 97 93 89 84 81 76 74 72 68 64 61 56 54 52 51 48 46 45 44 43 41 39 35 35 37 33 33 32 34 37 41 46 49
116 120 120 118 113 112 111 109 105 98 92 88 83 79 76 72 70 68 66 62 59 56 52 49 48 45 43 42 40 41 39 36 35 33 35 32 32 30 31 35 37 42 47

GFSMA_250_spd_039.txt.gz
Wind_Speed
63 64 70 76 76 73 75 83 87 90 92 94 95 96 94 91 91 83 79 77 78 77 78 78 76 74 71 69 69 68 67 67 67 73 74 72 68 61 60 60 62 61 60
63 64 67 69 68 77 83 85 86 92 97 92 90 88 79 75 70 70 71 74 77 77 75 75 74 73 72 71 70 68 67 65 62 64 65 66 66 65 65 58 61 63 60
72 73 78 83 85 87 91 89 87 91 85 79 77 73 69 69 69 70 73 76 80 80 78 75 74 72 71 71 71 70 69 69 69 67 64 65 66 65 61 63 64 64 64
79 82 85 81 82 82 84 84 80 79 73 74 73 70 70 69 72 76 79 83 82 79 74 73 72 70 70 69 70 71 73 74 75 76 74 72 69 67 63 61 62 67 69
81 84 83 86 82 81 87 73 76 75 73 71 71 73 74 77 80 83 85 87 83 75 70 70 70 72 73 75 77 80 81 82 83 84 85 84 81 75 71 69 64 66 71
78 79 81 80 78 73 74 75 73 74 71 73 74 77 78 83 86 87 89 91 86 80 77 75 76 78 81 83 85 89 91 93 94 94 93 93 94 93 86 81 74 67 71
79 77 73 71 71 69 70 72 74 70 73 76 80 83 85 88 90 92 94 94 90 86 85 85 87 90 93 94 95 99 98 96 97 100 102 103 104 102 100 97 85 82 77
72 72 72 71 71 71 74 73 73 75 78 81 86 87 88 90 93 97 99 96 92 90 91 93 97 100 102 104 104 99 94 94 95 98 101 103 106 108 106 105 99 90 85
70 69 69 71 73 74 75 77 78 81 84 87 89 88 90 93 98 100 99 94 94 96 100 103 108 111 112 109 103 101 98 95 93 92 91 92 92 95 95 98 106 106 101
63 66 69 72 75 75 75 78 79 82 84 84 87 91 96 99 102 98 95 97 101 105 109 112 113 112 109 109 109 108 103 102 98 94 85 80 82 86 90 89 92 99 104
64 69 72 74 75 74 75 77 79 79 83 88 90 94 99 102 99 97 97 103 108 111 113 111 108 108 108 108 108 107 104 101 97 88 77 71 75 82 86 88 89 91 95
67 70 69 69 71 74 76 74 78 83 88 91 94 98 99 97 98 102 106 110 111 110 105 105 107 106 109 112 111 105 100 94 89 79 66 66 68 72 78 82 87 87 90
66 66 68 72 71 71 75 79 83 87 90 92 96 94 95 100 105 110 112 112 108 103 103 106 108 108 110 111 108 105 95 86 81 74 66 63 65 70 75 77 79 79 87
67 68 67 68 72 76 80 84 88 91 93 94 93 95 100 107 112 113 113 110 108 107 105 106 107 110 111 110 106 96 88 81 76 68 62 60 61 64 68 71 76 78 84
69 67 69 73 78 83 84 88 92 93 92 94 96 103 107 111 111 112 111 110 110 109 108 111 106 104 102 100 97 91 84 77 72 63 57 56 56 59 65 68 72 77 82
67 70 74 78 82 83 90 95 93 93 95 99 104 107 110 109 109 110 111 113 114 113 109 106 101 95 94 91 88 84 79 72 66 58 54 53 52 54 57 61 67 75 80
71 75 78 82 84 88 96 94 92 96 103 105 107 110 110 109 108 111 113 113 112 108 102 98 93 88 84 81 79 77 72 66 59 54 52 51 52 53 55 60 63 68 75
75 79 82 84 89 95 94 93 94 101 103 108 109 109 110 110 111 110 110 108 105 101 95 89 85 81 77 74 71 70 65 60 56 52 51 52 51 51 53 57 61 64 69
82 86 87 88 95 96 94 96 101 104 108 110 109 109 110 110 111 108 106 102 97 92 85 81 78 75 72 68 66 62 60 56 52 51 52 51 48 48 51 54 58 62 66
86 89 90 94 99 95 97 102 104 109 113 110 109 110 111 111 109 106 101 94 89 84 80 76 74 71 68 65 62 60 56 53 49 49 51 46 47 49 51 52 54 58 64
90 91 93 99 98 99 104 105 109 114 114 113 113 113 113 110 106 99 93 87 83 79 76 74 71 67 63 61 58 55 53 51 45 48 48 40 48 49 50 50 53 57 62
91 94 99 99 101 105 107 111 116 119 116 114 116 114 111 109 102 94 88 83 79 76 73 69 66 62 58 55 53 52 50 48 45 47 46 37 48 47 49 47 49 53 58
95 98 99 101 105 109 112 116 119 118 117 117 116 113 108 103 95 89 84 78 74 71 68 64 62 58 56 53 51 48 46 45 43 45 45 37 42 43 43 44 45 48 52
99 102 101 105 108 112 116 118 120 121 118 116 113 109 102 96 89 83 79 75 72 67 64 60 59 57 55 52 49 46 44 42 41 42 44 37 36 38 38 41 44 44 48
101 101 103 107 111 114 116 120 120 117 115 112 109 102 95 90 84 78 74 71 68 65 61 58 55 53 51 49 48 45 42 41 38 39 42 36 32 31 32 37 41 42 45
103 103 107 111 114 116 120 120 116 114 110 108 103 95 90 84 78 73 70 66 64 60 57 54 52 50 49 48 45 43 40 38 39 37 37 31 30 30 27 33 37 39 41

GFSMA_250_spd_042.txt.gz
Wind_Speed
50 52 54 55 63 66 68 74 76 79 83 81 85 85 90 93 93 76 70 64 61 64 66 68 73 75 77 77 75 71 68 62 56 55 56 58 60 59 59 60 59 59 60
57 63 67 68 67 70 75 77 80 85 87 88 89 89 86 80 70 65 69 68 67 69 72 73 75 77 79 78 76 71 66 62 58 54 54 55 55 57 58 58 56 56 58
60 60 63 68 73 78 81 84 90 88 86 84 85 73 66 64 68 67 71 72 73 75 76 79 81 80 80 79 76 74 71 68 66 65 62 62 62 61 60 61 60 56 54
66 72 78 79 82 83 85 87 84 80 75 72 72 65 64 68 71 73 78 77 79 82 85 86 86 85 85 83 78 73 74 72 72 74 75 74 73 72 70 68 67 64 60
71 77 79 79 78 82 79 77 74 74 69 67 68 70 70 73 77 79 83 85 86 87 90 90 90 90 89 86 80 76 75 78 80 81 82 84 84 83 84 80 79 73 70
77 78 76 75 75 73 74 74 68 69 69 71 73 75 78 81 83 86 87 88 90 93 92 92 94 94 91 87 83 81 82 84 85 88 90 91 93 94 94 93 90 88 80
69 67 70 74 74 73 68 67 70 72 74 77 80 80 81 83 82 81 83 87 91 94 96 98 99 97 95 91 89 91 93 95 97 99 99 98 98 98 97 97 96 94 95
68 72 71 69 68 66 68 70 73 76 78 77 78 79 81 83 83 85 88 91 95 98 100 100 98 98 99 99 101 103 104 103 100 96 94 93 93 92 92 92 93 95 96
67 66 65 65 64 67 69 72 75 76 75 77 78 80 79 80 85 90 93 96 98 100 100 102 103 105 108 111 112 111 106 103 98 96 93 90 88 88 86 86 86 88 92
61 61 63 64 66 69 72 74 74 76 78 74 77 81 84 86 89 90 93 95 97 100 103 106 110 114 115 113 113 109 105 103 101 97 95 93 90 83 82 84 86 88 91
59 61 64 66 68 71 72 74 76 75 76 79 83 87 87 92 94 93 90 93 98 104 109 114 118 116 113 112 109 108 106 104 101 99 96 94 88 82 79 82 83 85 90
61 64 66 68 69 72 74 75 74 76 80 83 85 86 92 95 95 95 95 100 105 109 112 113 114 111 110 109 107 105 101 99 94 91 89 87 84 78 73 72 73 77 83
63 65 66 67 70 72 73 73 75 80 83 85 85 93 96 95 96 99 104 108 107 106 106 108 110 112 109 107 103 98 96 93 88 82 81 79 75 70 69 69 69 72 82
62 64 67 69 68 68 73 78 81 83 84 86 90 97 96 96 101 106 107 108 105 105 107 111 111 109 108 105 101 96 91 88 84 80 76 74 69 65 65 67 68 72 78
63 65 68 67 69 73 79 82 83 85 89 91 96 97 97 102 107 106 108 109 110 110 110 111 108 104 100 97 92 89 85 81 77 73 68 65 62 61 60 62 66 70 74
65 69 69 71 75 79 82 84 87 88 92 96 99 98 102 105 106 109 110 113 113 112 109 104 100 96 91 87 84 82 80 76 72 68 62 59 57 56 55 56 61 66 69
69 70 70 75 79 82 85 88 90 93 96 98 99 103 107 106 109 111 113 114 113 109 102 99 94 88 84 80 78 75 73 70 66 60 57 55 53 51 51 55 57 61 65
72 75 75 79 83 86 89 92 93 96 100 99 102 106 107 110 112 114 115 113 109 106 100 93 90 85 81 77 74 71 70 64 60 56 55 53 48 48 49 50 52 55 58
74 77 82 84 87 91 92 95 97 101 101 103 108 109 112 114 116 117 114 111 108 103 96 89 87 82 78 72 69 65 64 60 54 52 53 50 46 46 46 47 51 53 56
76 81 86 89 92 95 97 99 101 104 106 109 113 115 116 118 118 116 113 110 104 97 91 86 81 77 72 67 63 60 60 54 52 49 51 46 46 47 45 48 48 51 54
81 85 90 94 98 100 101 103 106 108 108 113 116 116 118 119 117 115 113 106 98 91 86 81 77 72 67 63 59 56 55 51 47 48 46 41 48 45 44 45 46 49 51
86 89 92 97 98 101 103 106 108 108 112 117 118 118 118 118 117 115 108 99 92 85 80 76 72 68 64 60 56 53 50 50 47 46 44 38 47 41 44 44 46 48 51
92 95 99 100 102 105 106 109 109 111 116 120 118 118 119 118 115 109 100 93 87 79 75 71 67 64 61 57 54 50 46 45 45 45 45 37 44 38 41 44 47 48 49
97 97 100 103 106 108 110 110 112 117 120 119 118 119 119 116 109 100 94 89 82 75 71 66 63 60 57 55 52 49 46 42 41 42 45 36 40 37 39 44 46 45 47
98 102 105 108 108 111 110 113 117 120 119 117 119 118 115 109 101 93 88 84 77 71 67 62 60 58 56 53 51 49 44 41 39 38 43 37 37 37 36 39 43 44 43
101 104 106 108 111 111 114 118 121 120 117 116 116 115 109 100 95 89 84 80 72 67 62 59 57 56 54 52 49 47 45 39 37 37 41 36 35 38 32 33 38 43 41

GFSMA_250_spd_045.txt.gz
Wind_Speed
57 39 42 51 54 57 62 60 64 65 69 72 81 82 86 87 79 68 65 63 63 64 64 66 69 72 74 76 75 76 77 77 76 74 69 64 60 56 56 56 55 57 58
48 51 55 58 63 62 68 69 74 76 74 78 80 79 73 70 68 67 65 64 67 69 69 72 75 78 78 82 82 82 82 81 81 78 76 69 62 59 57 55 54 53 55
53 55 58 61 63 67 68 70 75 80 78 80 76 74 69 66 64 66 68 70 73 74 75 74 75 75 79 78 81 83 87 84 84 83 80 75 68 63 63 62 61 57 55
63 64 65 68 71 73 74 77 79 80 76 74 74 66 64 66 68 71 73 75 77 78 79 79 78 78 80 81 83 84 87 89 88 87 82 78 73 70 68 69 70 68 65
63 68 68 71 72 73 73 75 76 73 74 70 64 64 66 70 73 74 74 74 75 75 77 78 79 82 84 87 89 91 93 93 93 90 87 83 80 77 77 76 76 78 76
65 69 72 73 72 74 73 72 69 68 65 63 66 69 71 73 74 74 75 73 75 77 79 81 84 88 90 92 95 97 97 96 93 91 90 89 88 88 88 89 89 89 88
58 62 70 69 71 73 71 66 65 64 65 67 69 72 73 75 77 76 77 79 81 84 86 89 93 95 96 96 96 96 96 97 98 99 100 100 100 99 97 95 96 97 99
70 66 68 70 70 65 62 62 63 64 67 69 72 74 77 78 77 78 80 83 86 88 91 94 96 97 95 97 99 102 105 107 108 108 106 103 101 98 97 94 93 92 94
67 68 66 63 62 61 60 61 65 67 69 72 75 77 74 74 77 81 84 87 88 90 94 97 96 96 100 104 108 111 112 112 111 109 107 105 101 99 96 92 91 92 91
63 57 58 58 59 62 63 64 68 70 72 72 71 71 75 79 81 83 85 89 91 97 99 97 98 102 107 110 112 112 112 111 110 108 107 104 100 96 94 93 92 92 92
51 53 54 60 63 65 67 69 69 71 73 70 71 76 79 82 85 85 87 90 95 98 97 99 104 110 112 113 112 111 110 107 105 102 100 97 95 93 91 91 90 90 91
51 54 60 63 67 69 66 68 71 72 70 73 77 81 85 87 88 90 90 95 95 96 100 107 112 113 112 112 111 108 107 105 101 98 94 90 88 87 86 86 87 89 90
53 58 62 66 67 68 70 71 72 72 75 79 83 86 88 89 92 93 96 97 98 99 105 110 111 111 111 112 110 106 102 98 96 94 90 85 83 81 80 79 81 81 83
59 61 62 66 69 68 71 74 74 76 80 83 86 88 90 92 96 99 101 103 101 105 110 111 110 110 110 109 106 101 95 90 85 83 81 76 74 72 72 73 74 75 78
63 64 64 69 69 71 72 74 75 79 84 84 88 91 93 95 99 103 106 106 107 109 110 110 109 109 107 103 97 91 87 83 78 74 72 70 67 65 65 66 67 69 70
62 64 73 73 74 73 73 76 80 82 87 89 93 94 96 99 103 106 107 109 113 113 112 112 112 107 100 92 86 85 80 76 71 67 66 64 63 61 60 60 62 65 66
66 73 75 76 76 76 76 80 84 86 89 93 95 98 101 103 107 107 110 114 116 115 113 114 110 106 96 88 83 79 73 69 65 63 61 60 57 57 57 58 59 61 62
70 75 78 79 81 82 81 86 90 92 92 96 100 102 104 107 108 111 115 118 117 116 114 110 109 101 94 86 80 74 68 63 60 58 57 57 54 52 52 53 56 59 59
73 76 80 84 86 86 86 89 93 95 98 101 103 105 109 109 111 115 119 120 118 116 111 108 104 96 88 82 76 70 66 61 56 54 55 53 51 49 49 49 52 53 56
76 79 83 85 88 90 91 92 94 98 101 103 107 109 112 112 116 121 121 120 117 113 108 103 97 90 82 77 72 67 64 57 53 50 51 49 50 47 46 48 48 49 51
79 82 85 86 88 91 94 97 100 103 105 108 110 114 113 116 122 123 121 119 114 108 104 97 92 81 78 73 68 63 59 55 49 50 48 43 49 45 45 45 46 47 49
82 85 86 89 92 95 99 102 103 107 108 112 114 117 117 122 125 123 119 115 110 104 98 91 84 77 74 69 64 59 56 53 50 49 47 39 47 41 42 42 44 45 46
86 86 88 91 95 98 102 105 109 110 112 115 117 118 121 126 125 120 116 111 105 100 92 86 78 74 70 65 61 58 54 51 48 49 51 37 42 39 40 41 43 44 43
86 89 91 95 98 102 104 108 110 111 113 116 119 121 125 126 122 117 113 108 100 93 86 81 74 70 66 61 59 57 53 50 45 45 50 41 37 38 39 40 40 41 43
89 92 96 98 102 106 108 110 112 113 115 119 121 124 126 122 117 112 107 100 94 87 83 75 71 67 63 60 57 54 51 49 45 41 46 41 35 36 35 36 37 40 43
93 97 100 102 106 108 111 112 114 114 118 121 123 126 123 117 114 108 101 93 89 83 78 71 67 61 60 57 53 51 51 49 45 41 41 38 37 34 29 33 36 40 42

GFSMA_250_spd_048.txt.gz
Wind_Speed
60 62 59 62 63 65 57 58 56 59 64 67 68 74 76 79 79 79 78 77 75 64 62 65 66 68 70 71 72 72 74 73 73 72 73 72 71 71 71 68 67 64 58
63 69 69 69 68 65 56 61 62 73 71 71 78 76 76 77 79 77 71 64 63 64 65 66 67 67 69 71 72 73 74 74 75 75 76 77 76 76 75 73 71 67 63
59 68 69 68 61 65 71 73 71 72 73 74 74 73 75 68 65 65 63 64 65 68 68 68 70 72 70 70 72 75 77 78 80 82 83 84 85 84 81 79 76 73 67
63 56 62 54 63 65 67 70 76 73 75 71 71 69 67 64 65 64 66 68 70 71 72 75 75 73 74 76 78 80 82 84 85 88 89 88 88 86 84 82 79 75 72
56 60 63 69 68 70 66 64 70 69 70 70 69 65 63 63 65 67 70 72 75 76 76 74 75 76 79 81 83 84 85 87 89 89 89 88 87 87 87 87 86 82 77
57 58 61 65 70 71 71 71 71 72 73 69 64 63 63 65 69 71 73 75 75 73 74 76 78 80 83 84 85 87 90 92 92 90 89 90 92 94 96 97 96 96 93
67 68 72 72 71 68 67 66 70 69 69 65 61 62 65 69 72 74 77 75 72 75 79 81 83 85 85 84 87 91 93 92 92 93 96 100 103 103 102 101 100 98 96
66 68 66 67 66 69 69 70 68 63 62 61 63 67 69 68 75 77 77 75 80 82 83 86 87 87 87 90 92 90 91 95 96 101 105 107 108 108 106 102 100 99 99
59 62 64 67 67 68 68 64 61 61 63 66 68 70 71 76 77 72 75 81 83 86 89 88 88 89 91 94 95 96 94 99 104 109 110 109 109 109 106 103 100 98 97
62 62 64 65 64 59 58 59 63 64 68 69 72 73 75 78 77 80 78 81 88 90 92 92 92 93 95 98 98 96 102 107 110 111 111 111 112 110 107 104 101 98 96
57 59 59 57 56 59 58 62 66 67 68 72 73 74 76 77 81 85 87 89 87 89 91 94 96 98 100 98 101 103 107 110 110 110 111 109 106 104 104 102 98 93 91
51 54 52 55 57 59 62 67 70 68 72 75 76 76 78 80 82 85 88 90 92 94 94 96 101 101 100 103 106 111 109 107 107 106 103 101 100 98 94 93 92 89 85
48 52 55 56 59 61 65 67 67 73 75 77 76 77 79 84 88 90 90 91 95 97 98 98 101 102 105 109 113 110 108 105 105 103 99 94 90 88 86 85 86 84 80
53 56 57 58 60 61 68 69 74 76 78 78 81 83 84 87 90 94 94 96 97 98 101 104 103 104 109 113 111 109 105 102 100 95 89 84 81 80 78 78 79 78 76
52 57 60 60 63 67 72 74 78 81 82 83 85 87 89 91 93 95 97 99 99 100 104 111 107 109 114 113 108 106 104 100 93 86 81 77 74 72 70 70 72 72 71
53 58 61 64 67 73 79 81 83 81 85 88 90 90 92 95 96 99 101 102 104 106 108 112 114 116 118 113 105 102 99 93 85 80 76 72 68 64 63 64 64 66 66
57 60 63 66 71 77 82 83 87 87 89 90 93 95 97 100 103 105 106 108 110 112 113 114 118 120 114 112 105 100 91 84 80 76 73 68 63 60 58 58 59 59 59
61 63 68 71 78 81 83 85 88 92 95 96 97 98 101 104 107 109 111 113 114 116 117 118 121 120 112 108 101 94 85 79 75 71 68 65 60 57 54 54 56 55 54
64 68 72 76 80 83 86 88 90 92 96 99 102 104 107 110 112 114 115 117 117 119 122 122 120 116 110 104 96 87 83 77 71 65 63 60 56 55 52 51 52 51 51
70 74 76 78 83 86 89 92 94 97 101 102 105 107 110 113 115 116 117 118 121 123 125 123 116 111 107 100 91 84 80 74 67 61 59 56 54 53 49 48 48 48 49
74 76 79 82 87 91 94 95 98 101 102 105 107 110 112 113 116 117 119 122 123 125 126 120 113 109 102 94 86 81 75 70 64 57 57 52 53 52 48 46 46 46 47
76 79 83 87 91 94 96 100 100 101 103 106 108 110 112 114 117 119 121 122 126 128 122 116 111 105 97 90 82 76 70 66 61 54 55 49 48 47 48 43 44 44 45
80 83 87 90 93 96 98 99 100 102 105 107 108 111 114 117 118 121 122 125 126 123 119 112 106 98 91 84 77 72 66 63 58 54 51 47 45 41 45 43 42 42 43
83 86 87 91 94 95 96 99 102 104 105 107 110 113 115 118 120 122 125 124 122 119 112 106 98 91 85 78 72 67 62 60 57 52 48 47 44 40 40 43 41 40 40
84 85 88 89 90 96 98 102 105 105 105 108 112 114 116 118 123 124 124 122 118 114 104 98 91 85 79 73 68 62 60 59 56 51 47 45 44 43 33 41 41 39 39
84 86 86 89 92 96 101 106 107 104 105 108 111 113 117 121 125 123 121 116 111 105 96 87 86 80 71 68 65 60 59 57 55 52 47 43 40 44 34 36 39 39 38

GFSMA_250_spd_051.txt.gz
Wind_Speed
47 47 53 60 60 63 59 60 66 68 71 68 69 69 74 73 78 78 76 75 78 80 73 67 64 63 63 63 65 67 69 68 67 67 67 67 68 68 68 68 68 68 67
58 50 55 61 64 61 62 69 72 64 71 68 69 72 72 69 75 76 76 76 76 76 68 62 64 65 68 70 71 69 68 68 70 72 73 74 75 74 74 74 74 73 73
48 56 61 57 63 69 71 74 57 60 66 69 75 77 71 76 80 78 78 71 71 66 66 65 67 70 72 72 70 70 72 73 75 77 78 78 78 79 78 79 77 78 75
53 53 58 62 60 64 63 65 67 70 73 69 74 76 80 75 74 76 73 68 65 63 68 70 72 73 74 71 71 75 76 78 79 80 80 81 82 83 85 85 82 79 75
59 60 58 57 62 61 61 62 62 70 75 78 78 71 73 75 73 70 68 68 70 70 69 72 76 76 75 74 77 79 81 82 83 83 83 83 85 86 86 86 86 84 83
57 57 60 61 64 63 64 70 77 75 77 73 73 73 70 69 67 68 67 69 71 74 78 80 80 78 79 82 83 85 84 86 85 84 85 86 87 88 88 88 89 90 92
57 61 69 68 68 70 76 78 73 70 70 69 69 68 66 66 65 68 70 73 75 77 79 81 83 85 85 84 84 85 86 90 88 87 88 89 88 87 88 90 93 96 100
58 58 62 68 75 74 67 70 71 68 66 74 66 65 67 66 62 65 77 77 77 80 79 81 84 86 89 90 89 87 86 89 89 91 91 89 90 93 96 98 101 105 106
69 67 71 67 72 73 71 69 72 68 67 67 70 69 68 68 69 69 67 78 79 80 81 86 87 86 86 88 91 90 89 90 90 94 94 94 97 102 105 107 108 107 107
65 75 79 73 69 68 71 70 69 69 66 66 66 68 70 71 75 77 76 75 77 83 86 89 91 91 91 90 92 91 93 93 94 97 97 99 105 109 110 109 109 107 106
67 67 63 65 68 68 66 66 66 65 66 66 64 66 71 76 81 85 87 87 82 83 85 87 92 93 94 94 95 93 96 97 99 102 102 104 106 105 106 106 105 102 100
60 62 62 61 60 62 62 63 64 65 65 69 71 74 78 82 85 85 84 87 90 93 94 93 93 97 99 100 99 98 100 101 102 104 103 104 102 102 102 100 97 94 91
56 56 54 55 56 61 64 65 65 66 69 73 76 79 84 88 89 88 89 90 93 95 97 99 99 100 101 102 103 103 103 106 104 106 107 103 100 99 96 90 88 85 82
49 49 51 58 62 65 67 68 67 69 74 79 81 85 90 92 90 89 92 96 98 101 104 106 107 107 104 102 105 107 109 108 107 107 107 105 100 94 88 83 80 79 77
49 54 58 62 64 66 66 67 71 74 79 82 87 93 93 92 93 96 99 103 106 107 108 110 112 112 111 109 110 111 111 112 111 106 104 101 94 88 82 77 74 71 69
56 59 63 63 62 65 68 72 76 78 81 85 90 94 95 97 98 101 104 107 110 112 111 113 114 115 116 117 116 115 115 111 107 104 100 95 89 82 76 71 66 63 62
60 63 62 62 64 68 72 75 80 81 86 90 91 95 97 100 103 106 109 110 111 114 115 113 116 118 118 119 117 116 117 110 103 99 93 87 83 78 71 64 59 58 58
60 62 63 65 67 72 77 82 84 88 89 93 92 95 100 103 104 107 109 113 115 115 115 114 116 120 120 122 121 116 113 109 103 95 87 83 78 73 67 61 55 51 53
61 63 65 69 73 76 79 83 88 90 90 94 96 99 102 104 106 109 113 114 115 114 115 116 117 119 121 124 119 115 107 104 99 89 82 78 74 68 62 57 52 50 51
64 67 69 71 76 79 83 86 87 90 94 96 98 100 101 104 107 111 115 116 114 113 116 118 120 122 124 122 116 109 105 100 90 84 77 72 66 63 59 55 52 48 51
66 70 73 76 79 82 84 86 89 92 95 98 99 98 102 106 110 114 117 115 114 115 118 120 124 125 122 118 114 107 100 91 86 78 71 67 60 58 56 53 51 45 46
70 74 76 78 80 83 86 89 91 94 97 97 97 102 107 112 114 117 117 115 115 117 121 128 128 125 121 118 112 105 95 87 81 75 65 63 57 55 52 49 50 48 45
66 69 73 77 81 84 88 91 93 94 93 97 100 104 109 114 116 118 115 113 117 120 127 126 124 123 120 116 108 96 88 81 74 69 61 61 55 53 50 48 48 48 44
67 71 76 80 84 87 91 91 90 92 95 99 105 109 114 114 116 117 116 118 118 121 124 123 121 118 116 110 99 88 82 75 71 66 60 60 54 52 49 48 48 47 43
72 76 79 82 85 85 88 93 96 98 101 106 110 114 114 114 115 115 117 120 122 123 124 121 116 111 105 97 90 83 76 70 67 66 59 57 53 51 48 46 45 47 41
71 73 76 83 89 92 94 97 101 104 106 109 109 109 112 114 114 115 120 125 123 120 120 117 111 102 96 89 83 77 73 68 65 64 58 56 50 47 49 42 41 45 38

GFSMA_250_spd_054.txt.gz
Wind_Speed
48 51 48 48 51 51 46 55 50 53 59 63 62 67 64 65 66 71 74 73 74 77 81 86 82 78 72 68 68 64 64 64 65 64 60 58 60 61 62 64 65 65 65
50 50 53 50 53 51 50 56 60 59 62 65 66 61 65 72 71 72 72 76 83 82 80 78 76 70 70 70 68 66 67 68 69 66 65 66 68 68 69 70 70 70 69
55 57 59 57 58 57 59 61 61 60 63 63 68 73 76 68 72 77 83 85 81 82 77 74 70 68 67 68 69 71 73 74 73 71 71 73 74 75 75 75 75 74 72
57 57 62 56 50 53 56 63 64 64 65 66 68 70 69 72 80 82 80 78 77 73 72 69 67 67 69 71 73 75 77 77 77 77 78 78 79 80 79 80 78 77 77
58 59 57 56 56 61 64 65 65 66 67 70 70 72 75 78 79 76 76 78 70 66 66 67 68 69 72 75 76 78 80 80 79 80 81 81 82 81 82 82 82 81 80
58 61 62 62 59 61 62 65 69 72 80 77 79 81 81 77 79 77 75 70 70 72 70 66 70 71 73 76 77 80 84 85 85 85 85 84 84 84 84 83 82 83 83
60 56 57 60 64 65 67 71 71 72 71 75 80 79 77 75 76 78 71 71 70 69 71 75 77 77 77 78 78 79 83 88 88 87 87 87 88 86 85 85 86 86 86
57 62 61 63 65 67 67 69 74 76 79 84 85 78 76 73 68 69 67 67 71 73 75 78 85 87 86 85 84 82 85 87 89 90 91 91 90 88 88 88 88 89 91
61 66 68 70 73 72 75 79 81 81 78 80 81 77 78 74 71 67 65 67 70 76 80 87 90 86 87 87 88 89 92 92 91 92 93 92 90 90 91 91 92 94 95
65 66 66 67 67 72 75 77 79 74 75 74 76 77 74 73 72 72 71 72 74 78 82 89 92 93 93 90 91 90 95 96 95 94 93 93 92 92 93 94 96 97 98
63 65 67 67 71 73 74 78 76 73 75 73 71 69 75 76 75 74 77 83 84 86 89 93 90 89 95 95 93 95 98 100 98 96 96 95 93 94 95 96 95 94 96
59 61 64 67 72 72 73 73 70 70 69 70 73 75 75 77 76 78 82 86 91 97 99 98 96 95 96 100 102 103 104 104 102 98 98 97 98 99 98 95 94 94 94
60 59 61 64 64 66 66 67 68 67 70 73 77 80 79 80 82 86 89 93 98 101 103 103 103 102 102 104 105 106 106 103 102 101 103 104 107 103 98 95 92 91 90
46 51 57 58 59 63 63 65 66 71 74 78 78 78 81 84 89 92 98 100 101 101 103 106 108 108 109 110 110 108 102 102 104 104 107 111 109 104 98 95 89 85 82
49 56 58 56 61 63 65 68 72 74 74 74 76 81 86 89 94 95 99 101 101 101 102 105 109 112 113 115 115 111 105 104 104 108 111 110 106 101 95 90 83 78 74
61 52 50 58 64 68 70 73 74 75 75 77 83 86 89 94 96 100 101 102 104 105 105 106 111 115 117 118 117 113 108 107 109 113 110 105 102 100 95 87 76 73 69
60 58 59 60 64 69 73 78 78 78 81 84 88 90 93 96 98 100 103 104 107 109 108 108 113 116 119 121 118 114 111 110 114 112 109 104 98 96 90 82 76 71 65
59 59 61 63 67 71 75 77 77 80 84 86 89 93 96 98 100 102 106 107 108 110 112 111 116 121 122 122 121 115 115 118 113 112 109 104 96 92 82 77 71 66 60
56 59 60 61 64 67 70 74 80 82 86 89 92 94 95 98 101 104 105 106 110 114 117 120 122 121 121 122 120 117 116 118 114 112 108 97 90 83 80 74 67 61 56
56 55 58 62 65 68 72 75 78 80 83 85 88 93 97 100 101 102 106 111 115 117 122 123 120 119 121 121 121 120 118 115 110 106 95 87 81 75 72 67 62 59 54
60 63 63 64 64 65 66 67 71 75 80 85 90 93 97 100 105 110 113 115 119 122 122 122 120 121 119 121 124 123 118 110 104 99 87 82 77 72 66 62 59 57 53
58 57 56 57 59 62 65 69 74 80 83 85 91 96 100 104 107 109 112 114 116 117 116 121 122 123 123 125 126 123 117 109 99 94 81 78 72 67 63 59 57 56 52
52 55 58 61 63 66 68 71 74 80 83 92 96 100 103 104 104 106 107 107 108 112 115 118 120 122 125 126 125 119 110 102 92 88 78 70 69 66 59 57 55 54 50
58 60 62 64 64 66 69 76 80 84 89 92 92 93 95 96 99 101 102 104 106 109 114 118 121 121 122 119 117 111 104 93 87 81 74 66 67 62 59 55 54 52 49
60 60 62 64 66 68 74 78 82 83 89 93 93 96 97 97 99 100 101 104 107 111 114 117 120 121 119 112 107 102 95 89 80 76 73 64 64 59 58 53 51 49 48
58 61 65 68 73 72 74 83 87 90 92 95 95 97 98 100 100 102 105 107 109 111 114 116 117 116 111 105 98 92 87 81 73 71 68 61 60 54 55 50 48 46 46

GFSMA_250_spd_057.txt.gz
Wind_Speed
44 44 42 45 45 45 50 47 47 45 47 48 53 56 60 62 62 62 69 73 74 76 73 72 79 76 76 82 83 72 68 66 64 63 62 62 62 62 61 60 59 60 61
45 47 48 48 50 52 48 50 50 55 52 51 58 61 60 59 66 67 74 77 72 73 76 80 79 84 86 81 70 70 68 66 65 65 65 66 66 65 65 64 65 65 66
52 49 53 54 54 51 52 52 51 49 51 56 61 59 67 66 70 73 71 76 78 79 83 84 85 83 76 74 70 65 68 67 67 67 68 70 70 72 72 72 71 70 70
48 51 47 50 55 55 55 57 59 60 59 62 64 68 67 69 72 74 80 82 79 81 85 85 82 75 71 68 64 65 66 68 71 72 73 74 75 76 75 75 76 76 76
48 47 49 50 52 57 56 57 60 61 63 63 64 69 72 75 76 80 78 79 83 82 82 77 73 69 68 67 67 69 71 73 74 76 77 78 79 78 78 78 78 79 80
61 55 52 53 53 52 57 62 62 64 62 69 74 75 74 75 78 79 82 83 78 72 73 73 69 68 68 71 73 77 81 82 81 83 82 82 82 81 80 80 80 82 82
66 59 54 59 62 67 68 67 69 69 74 74 74 77 74 76 79 81 80 78 76 78 75 70 71 71 72 73 77 82 87 92 92 90 88 89 87 86 85 85 84 83 81
55 58 64 60 60 60 63 66 67 67 67 72 74 73 78 78 82 79 80 75 75 71 72 74 75 76 77 78 82 86 92 95 96 93 92 91 88 86 88 87 84 81 80
53 53 57 61 59 60 62 64 67 70 76 76 77 78 81 83 81 77 73 73 72 73 76 75 76 79 83 87 89 93 97 100 98 97 95 94 90 91 90 86 82 81 81
52 52 53 60 58 63 64 69 71 72 75 76 77 80 78 79 77 73 72 75 75 77 78 78 82 86 89 91 94 97 99 99 102 100 98 94 93 94 94 88 85 83 83
55 58 56 62 65 62 64 64 65 67 71 74 76 80 76 75 74 74 75 81 80 79 81 83 88 89 93 99 103 103 101 101 102 104 101 98 99 99 97 91 88 87 90
61 59 60 60 61 57 62 62 66 69 72 74 73 74 73 73 77 80 80 82 85 88 90 91 94 96 99 99 98 102 105 107 108 109 108 108 106 104 100 95 92 94 95
55 58 62 62 64 62 62 59 62 68 70 74 75 73 74 77 79 80 83 86 90 96 98 101 103 104 103 105 104 106 107 107 109 111 113 114 111 107 102 97 95 96 93
56 53 53 52 53 61 68 68 71 75 73 72 74 76 79 83 87 89 89 91 96 98 104 107 109 108 109 110 111 112 111 112 111 115 116 113 110 109 104 100 98 95 90
48 46 43 48 61 66 71 75 77 75 75 75 78 80 83 89 92 94 98 97 102 102 103 104 106 113 114 115 116 116 116 115 116 113 110 110 111 108 106 101 99 94 88
43 44 49 58 62 66 68 67 69 71 74 77 80 86 89 91 94 95 97 100 102 101 98 104 108 112 117 120 120 118 117 115 112 109 110 110 109 108 107 98 97 92 85
51 52 58 64 67 70 73 72 73 75 77 79 82 86 87 87 90 94 96 96 97 101 102 103 109 115 118 123 123 119 115 111 110 109 109 109 110 109 105 95 93 85 77
53 56 62 67 71 74 78 78 74 76 75 76 78 81 84 86 86 87 91 96 98 102 106 108 112 112 110 111 113 114 114 113 111 110 111 109 108 107 103 94 89 80 73
55 59 67 71 74 75 73 72 72 73 75 76 76 77 77 79 83 87 92 97 102 104 104 103 102 106 108 108 108 109 113 115 114 113 112 108 104 99 93 87 79 77 72
73 74 75 73 69 71 71 72 73 73 71 71 72 75 77 80 84 89 94 99 102 105 108 108 109 105 104 105 108 111 113 115 115 115 113 104 99 92 83 75 73 70 66
72 68 70 70 69 68 67 66 66 68 70 72 75 76 79 84 87 91 95 103 105 106 105 105 104 102 102 107 111 113 117 118 116 113 107 99 90 82 77 72 67 63 62
70 68 65 63 61 62 64 66 68 70 72 75 74 77 81 84 89 94 96 99 100 98 98 102 100 103 103 109 115 120 120 120 115 109 100 89 84 79 74 69 64 62 60
59 59 60 61 63 65 67 70 71 73 74 76 79 79 82 89 91 93 95 98 100 100 100 101 101 104 108 114 120 120 119 116 110 103 93 83 80 76 71 67 62 59 56
57 59 61 63 65 68 70 71 71 74 77 78 77 80 84 88 91 94 95 101 101 100 99 104 108 110 115 119 120 117 114 110 101 95 88 77 77 73 68 65 59 56 53
60 62 63 65 67 69 70 71 76 76 72 75 80 83 88 90 94 99 103 105 100 100 101 107 112 117 121 118 117 115 109 101 95 90 83 71 73 68 65 62 56 55 52
59 61 64 64 68 72 76 76 76 76 79 83 84 88 90 94 101 109 111 105 105 107 107 107 112 120 119 117 114 110 103 96 89 84 79 70 70 63 62 60 53 52 49

GFSMA_250_spd_060.txt.gz
Wind_Speed
42 42 39 41 42 44 43 45 44 43 46 47 49 47 46 45 48 56 58 63 62 68 69 71 72 75 77 78 77 79 81 80 79 70 68 67 67 65 64 62 61 60 59
47 46 45 41 46 47 45 46 45 49 48 46 47 49 53 49 53 61 63 65 67 66 72 76 79 81 80 78 81 80 78 77 71 67 64 63 62 64 65 65 65 65 64
48 50 47 49 47 48 48 51 52 53 51 52 54 51 51 58 64 65 66 66 69 74 79 78 78 78 78 81 80 80 77 71 67 67 66 65 66 68 68 67 69 69 70
53 52 51 52 48 50 53 55 52 50 56 60 55 60 64 64 65 69 66 71 77 79 78 78 77 77 77 80 79 73 71 72 72 72 71 72 73 73 74 75 75 74 75
60 60 58 56 54 52 52 50 47 51 54 57 61 60 61 62 68 69 73 79 79 80 76 75 75 77 80 78 74 72 75 74 75 72 74 76 78 79 81 82 82 81 81
57 61 64 61 61 59 55 53 55 52 55 56 61 67 73 70 73 74 78 78 76 75 75 76 78 80 74 73 75 78 77 77 77 78 81 81 83 85 88 89 88 86 84
59 59 60 63 63 66 65 68 67 64 67 70 67 71 71 74 74 73 71 73 76 76 78 77 75 76 76 77 78 78 80 82 85 88 86 89 91 93 91 91 91 91 88
57 57 59 64 64 65 65 66 69 72 75 73 70 69 68 68 72 74 74 76 78 78 74 74 77 79 80 80 80 84 87 92 94 95 96 97 99 96 95 95 95 92 89
60 61 58 59 61 64 63 63 63 66 65 67 66 66 65 72 70 72 73 77 79 76 77 77 79 80 83 84 86 89 95 97 100 102 105 104 99 98 100 101 98 97 95
57 61 61 62 62 63 60 63 65 67 64 64 66 69 69 66 68 72 75 77 77 77 78 79 80 81 87 91 93 97 100 101 105 105 103 104 104 104 103 102 99 98 95
46 50 56 60 61 62 66 66 67 65 65 65 67 66 67 69 70 72 76 77 77 77 79 81 84 89 93 96 101 102 106 103 102 105 107 110 110 109 107 104 103 100 99
48 52 56 59 64 67 66 67 66 63 62 67 68 67 66 75 76 81 83 83 82 82 85 90 95 97 100 100 100 100 100 101 106 109 111 110 110 107 105 103 102 100 98
45 48 50 52 55 60 64 66 69 71 74 73 74 70 71 77 80 81 84 84 84 87 92 96 99 100 100 100 99 100 103 105 108 108 111 113 115 112 111 110 108 103 100
45 48 48 49 48 52 51 58 65 67 67 69 73 77 77 81 84 85 86 87 88 91 94 96 96 97 98 101 105 105 108 109 110 113 113 113 114 114 114 114 112 107 100
51 51 48 46 48 51 53 62 67 68 72 77 79 79 81 83 85 88 88 89 88 86 89 89 93 97 100 104 106 107 107 109 111 112 112 111 111 110 111 114 113 109 102
43 44 42 47 50 57 61 66 69 73 75 76 78 82 82 86 84 84 82 86 87 84 83 87 93 99 103 108 110 111 113 115 112 112 111 111 110 109 111 113 113 110 99
49 52 54 53 53 54 62 68 71 75 78 81 85 86 88 85 85 85 87 84 81 84 86 91 93 101 102 106 109 116 117 115 112 111 110 107 108 111 113 113 111 104 99
63 61 52 55 60 62 62 64 68 74 82 88 88 87 86 86 88 81 79 83 84 87 88 92 96 99 100 105 110 107 106 107 106 107 110 110 113 115 114 109 103 95 91
61 63 66 68 63 65 69 74 82 88 85 83 84 86 83 77 77 81 83 86 86 88 92 95 93 92 98 102 106 108 106 106 106 108 112 117 117 116 110 102 91 89 82
66 72 74 76 73 75 78 85 87 84 84 87 80 76 77 79 81 83 83 84 89 92 91 92 94 93 99 105 107 108 104 106 107 111 113 117 117 113 104 96 87 81 77
72 72 73 75 80 86 85 83 84 84 79 77 77 78 79 81 82 82 86 92 91 90 94 96 97 96 101 106 110 109 110 111 112 117 118 118 114 107 100 90 83 76 70
67 70 70 73 74 76 80 78 74 75 77 78 79 80 80 81 81 88 88 85 91 92 92 93 97 98 105 110 112 110 110 113 115 114 116 111 106 97 92 85 79 72 66
65 69 71 71 71 71 72 73 73 75 74 74 76 79 82 85 86 84 86 89 94 97 95 94 98 104 106 114 112 110 108 112 112 115 114 103 99 93 86 82 74 69 64
59 60 62 63 66 67 67 68 69 68 69 73 78 79 80 82 83 86 89 93 93 101 96 98 105 109 116 116 116 113 114 115 113 110 110 98 93 88 82 79 70 65 61
44 47 46 49 50 53 56 57 60 63 63 66 68 68 71 76 79 84 86 87 92 94 95 102 107 114 118 119 120 118 120 114 111 106 104 95 90 83 80 77 67 61 59
44 46 50 50 53 57 59 58 62 68 68 73 73 75 79 81 83 84 86 86 86 90 97 104 111 118 121 121 121 122 117 110 107 101 99 91 87 80 75 72 65 57 55

GFSMA_250_spd_063.txt.gz
Wind_Speed
43 48 46 46 50 38 41 42 39 41 46 46 43 45 45 50 50 52 49 51 50 55 61 64 69 68 72 76 79 78 80 78 83 77 78 78 74 69 67 67 67 67 64
54 54 49 43 44 43 45 42 44 46 45 46 47 46 50 53 54 55 60 57 55 65 68 68 71 74 77 79 79 80 80 80 77 79 79 73 69 69 71 69 71 70 69
59 59 49 49 53 55 51 46 47 44 47 50 50 51 53 54 51 57 57 60 65 67 70 73 77 77 80 81 79 76 79 79 80 79 76 74 74 74 71 73 70 71 71
67 68 62 63 59 58 56 52 48 51 47 52 52 57 51 51 53 55 60 61 68 77 75 74 76 78 81 79 81 79 81 80 78 76 75 77 75 75 75 77 79 79 79
69 62 66 62 59 56 57 55 58 57 58 58 55 56 57 58 58 58 61 73 78 75 74 76 76 75 80 81 82 82 80 79 79 80 81 80 81 81 84 85 86 86 87
66 65 66 62 58 62 63 58 60 62 63 64 62 63 67 67 65 66 74 76 76 75 75 68 73 75 77 78 81 82 80 81 83 82 83 86 87 90 91 90 92 94 89
63 61 64 61 59 64 61 59 59 61 63 63 62 65 67 68 73 70 71 74 73 70 68 71 69 72 76 80 82 83 84 84 83 87 90 93 95 94 94 95 89 89 91
59 58 58 55 56 58 57 61 60 59 62 65 68 70 67 69 68 70 72 70 69 70 72 70 72 77 81 83 84 84 84 88 90 93 97 99 99 98 93 92 93 94 95
57 57 59 61 56 59 61 64 68 70 73 71 68 71 68 70 69 71 72 70 71 68 70 72 77 81 83 87 84 87 89 92 97 100 101 102 100 98 99 99 97 93 94
50 56 53 58 65 65 66 68 70 71 72 68 67 66 68 67 68 69 70 67 72 72 74 78 78 83 84 83 87 92 93 99 99 100 102 100 103 104 104 102 102 104 105
47 49 48 49 53 55 55 57 56 59 58 58 61 60 64 63 67 67 70 71 73 75 76 79 83 85 87 89 88 92 94 96 98 97 101 104 107 110 109 108 106 105 103
40 40 41 47 45 48 47 48 49 54 55 56 59 60 60 62 65 72 72 72 72 77 81 84 88 89 87 86 88 95 94 94 95 99 101 105 109 110 112 111 112 107 106
39 37 41 42 43 42 46 48 50 52 60 67 65 64 66 69 69 70 71 72 80 82 84 89 93 91 91 92 95 92 92 96 97 100 104 108 108 111 110 114 112 110 108
35 38 40 41 42 44 44 48 50 43 58 68 70 64 65 69 69 72 78 82 85 89 91 96 92 95 95 89 89 93 94 97 100 104 105 109 110 109 111 112 110 109 111
39 41 40 40 40 42 42 41 40 43 45 62 67 70 74 74 75 77 81 87 92 93 90 91 92 91 88 90 93 93 96 101 104 104 107 109 110 108 112 112 112 113 113
36 40 38 39 41 38 46 38 40 57 60 63 67 73 73 73 75 81 90 97 91 93 89 82 83 89 90 91 92 96 99 100 104 109 108 110 110 111 114 117 114 113 116
28 34 40 44 49 46 49 56 57 53 59 67 71 72 72 78 85 92 97 92 89 84 83 82 86 87 87 93 97 97 97 100 106 108 111 112 112 117 115 116 117 116 114
35 29 46 51 54 56 62 64 69 69 73 79 82 82 85 90 94 97 90 83 84 84 84 85 81 85 90 92 95 98 102 102 105 106 107 111 114 117 119 119 118 116 113
43 38 44 51 60 65 69 78 83 85 82 83 86 86 90 93 89 83 83 84 83 85 83 82 84 89 91 95 97 100 101 103 105 108 108 112 114 117 118 118 118 115 110
60 58 52 61 68 71 77 82 86 85 84 86 88 91 89 80 80 82 84 84 82 83 86 88 87 89 91 95 96 96 97 103 102 107 109 115 117 119 118 118 116 113 105
61 56 61 66 70 73 77 79 82 85 87 85 82 86 84 83 81 78 75 75 76 81 82 81 82 85 89 91 96 99 100 99 97 105 111 113 120 119 119 117 114 105 96
60 63 66 69 67 76 79 79 80 84 86 82 79 78 76 70 66 66 69 71 72 74 77 80 84 88 93 98 98 98 100 98 94 106 107 107 114 112 114 112 106 98 90
65 68 73 73 74 77 74 73 73 69 62 60 59 60 62 62 65 68 73 75 77 79 82 84 85 90 94 94 95 98 101 99 99 104 109 104 111 110 110 107 99 92 87
64 65 64 63 57 55 55 60 57 55 54 54 57 59 62 65 69 72 76 81 84 85 87 89 90 94 95 97 100 102 100 95 95 104 113 108 112 108 106 102 96 86 81
55 53 53 54 55 54 54 54 56 57 58 59 61 65 66 69 73 76 81 85 88 90 92 94 94 97 99 104 105 102 100 100 99 108 119 111 113 106 100 97 89 81 75
52 54 56 57 58 58 57 59 62 60 62 65 66 67 71 76 78 80 84 88 91 92 94 94 97 100 104 105 106 107 107 106 111 109 117 108 108 102 94 91 84 75 68

GFSMA_250_spd_066.txt.gz
Wind_Speed
40 38 36 37 39 38 43 48 37 39 43 47 42 43 41 41 42 43 43 49 51 48 48 52 53 57 61 65 72 70 72 74 76 78 82 79 78 79 78 75 71 68 66
35 32 34 35 38 40 45 42 37 36 41 44 46 45 44 43 45 46 47 52 52 53 55 53 57 61 65 73 72 73 72 76 80 78 73 76 80 80 78 73 72 73 75
48 44 44 47 50 47 48 45 47 48 49 51 51 47 46 46 51 50 52 54 53 59 61 61 61 68 70 72 72 74 78 79 72 72 75 76 78 78 76 78 79 74 74
59 59 61 58 59 59 57 59 55 53 53 52 54 51 51 54 55 56 56 57 62 65 64 65 67 69 72 72 75 78 74 74 70 74 75 76 76 77 80 78 80 81 80
62 61 60 60 59 63 63 59 58 59 59 58 55 52 53 54 56 56 60 64 65 66 65 67 68 73 75 74 73 74 70 71 73 74 77 75 75 78 82 84 86 85 84
67 70 71 67 66 67 65 62 60 59 56 59 56 53 55 59 58 57 62 65 67 63 68 68 72 75 76 72 71 74 73 75 78 80 80 80 82 83 84 86 87 86 85
66 67 68 73 68 61 58 61 61 61 64 54 52 56 58 58 61 67 70 68 65 67 70 72 73 70 69 73 72 72 74 73 78 83 86 87 87 86 89 88 87 87 89
67 65 70 70 64 61 60 61 60 60 55 54 56 60 61 67 69 68 69 68 68 70 72 69 69 71 71 73 75 75 77 82 85 87 89 90 90 91 90 89 92 92 93
68 67 69 68 64 62 62 65 63 60 58 61 61 66 68 70 69 67 64 64 64 63 64 67 68 69 71 73 77 85 89 89 90 90 89 92 92 89 90 94 94 96 98
61 59 63 62 60 63 68 56 55 56 56 58 62 65 64 59 56 55 54 56 57 59 63 65 66 69 72 79 86 88 90 90 91 92 90 89 88 91 94 94 96 100 101
49 47 53 61 63 55 53 58 58 56 55 53 52 56 52 51 56 51 51 57 64 65 64 66 74 72 78 84 89 88 89 91 85 84 86 91 92 92 94 98 99 101 102
35 39 40 46 51 51 52 56 55 50 51 55 54 52 55 53 51 55 59 59 64 68 71 75 75 78 84 89 94 91 87 82 83 85 88 92 91 94 96 98 99 103 107
36 36 40 41 40 44 47 47 45 47 50 51 52 52 51 63 56 55 54 61 68 74 80 79 80 85 93 98 97 88 84 86 86 86 86 90 95 98 99 101 104 108 111
35 40 41 39 43 46 47 46 45 48 50 52 52 53 53 53 59 61 67 79 81 85 78 79 86 95 99 100 92 89 84 83 84 85 90 94 97 99 101 106 109 112 114
35 34 33 36 40 44 46 45 47 49 47 51 43 41 50 57 59 66 76 83 88 78 80 88 95 98 97 90 88 85 83 84 84 90 94 96 97 102 106 105 109 114 116
28 30 33 35 38 39 42 47 49 50 41 45 47 54 66 61 71 78 83 83 80 85 88 94 95 90 91 92 87 85 88 89 91 92 93 95 98 101 104 109 111 114 118
31 34 37 36 41 45 47 47 47 48 49 51 57 64 68 74 78 80 80 84 92 90 89 97 88 85 83 82 83 86 86 86 88 91 93 97 100 105 108 108 110 112 116
39 43 43 39 40 45 49 50 51 58 58 54 67 73 74 79 85 89 89 88 88 98 88 80 78 72 71 76 79 83 85 86 90 94 96 101 103 106 107 109 112 116 115
40 46 46 46 48 47 50 53 57 60 62 67 73 77 83 86 87 88 94 89 86 83 75 68 71 71 74 76 80 84 86 87 92 95 100 103 104 105 109 112 115 114 114
43 47 45 47 49 55 56 59 62 62 66 70 76 80 84 89 86 83 81 71 67 63 66 67 71 72 76 81 84 85 87 92 94 99 103 104 105 108 111 113 112 112 114
47 49 51 54 55 59 62 63 63 63 65 69 69 74 76 80 71 65 65 66 63 67 69 71 73 76 79 83 86 89 90 91 92 97 99 103 107 108 111 112 113 112 111
48 53 56 57 59 61 64 67 72 77 76 69 66 66 65 69 65 64 64 66 67 67 66 70 73 77 82 86 89 94 96 94 92 99 100 103 106 102 107 107 109 108 109
53 55 56 57 56 57 60 61 63 63 63 64 66 66 63 65 67 65 66 70 69 71 71 75 78 81 85 90 92 96 100 96 97 100 104 100 103 104 106 105 106 107 107
38 41 44 47 49 50 51 54 56 57 60 63 64 65 69 69 69 72 72 71 74 75 77 81 84 87 90 94 98 101 104 100 100 103 108 100 105 104 103 104 105 103 102
40 41 43 44 45 46 49 53 57 59 61 64 67 70 72 72 72 74 75 76 77 80 82 86 88 91 96 101 104 107 108 108 106 107 113 107 109 107 102 103 101 98 95
48 50 50 52 52 54 57 60 62 64 67 68 69 70 71 73 75 77 80 81 84 87 89 91 94 96 102 108 110 112 116 116 111 108 115 110 112 111 98 100 98 93 90

GFSMA_250_spd_069.txt.gz
Wind_Speed
43 44 45 47 43 42 43 35 41 32 38 41 44 45 41 35 35 37 38 37 40 39 40 44 47 50 53 55 54 56 59 63 65 68 71 74 77 77 72 72 78 82 76
46 51 47 42 41 36 37 31 34 36 40 39 35 36 38 40 39 44 43 44 42 45 48 50 51 54 56 57 57 59 61 64 67 72 75 79 72 68 73 75 75 73 72
48 51 45 46 46 37 38 39 41 43 44 46 41 45 43 43 46 45 44 47 49 49 50 50 53 57 60 59 61 61 64 68 72 75 69 66 70 72 75 78 76 69 71
42 43 45 46 43 44 45 48 53 51 51 50 50 51 49 48 43 47 50 54 52 53 52 54 55 61 63 63 62 65 68 72 76 68 64 68 67 68 72 75 77 75 75
50 48 48 49 50 51 52 51 54 56 56 58 54 52 51 54 54 56 55 53 52 51 53 58 61 62 62 62 66 69 73 77 68 65 66 68 71 72 75 79 80 79 76
53 57 57 54 54 57 59 61 60 61 60 52 54 56 56 57 56 59 55 54 53 56 59 63 63 62 65 66 69 71 68 68 69 69 72 72 77 77 80 81 80 77 76
57 61 61 63 63 63 65 66 67 66 56 56 56 57 56 61 61 58 53 53 57 64 64 60 62 62 66 66 62 66 67 65 70 71 72 77 82 83 82 79 77 77 77
53 53 54 55 60 62 62 67 68 69 65 60 57 59 59 60 55 54 55 58 61 59 58 57 58 59 59 61 63 60 66 69 65 68 76 84 91 88 80 79 80 78 79
64 65 61 60 63 63 63 63 63 59 56 57 56 60 63 56 54 54 56 58 55 58 56 53 54 56 59 63 64 70 70 68 76 82 85 89 87 84 82 81 78 79 81
68 60 63 65 68 68 64 61 60 58 53 52 60 57 57 55 54 53 59 60 61 55 54 55 54 51 69 69 70 74 70 76 84 90 94 91 84 82 82 81 80 81 83
66 64 65 65 61 51 46 46 49 53 56 59 56 50 49 60 63 58 57 61 56 55 60 62 57 66 72 75 78 77 77 82 88 93 91 87 86 84 83 81 82 85 91
46 47 49 44 42 40 42 43 45 46 46 50 53 59 59 60 62 64 60 52 50 55 57 58 66 72 77 82 75 77 86 88 88 88 85 84 83 82 83 83 85 86 88
27 29 30 34 35 36 39 43 45 47 51 53 54 57 57 54 56 57 56 46 51 54 60 68 70 77 81 78 77 86 89 90 87 87 83 80 81 81 82 85 87 90 94
31 37 42 40 40 42 45 47 46 47 49 48 51 54 54 57 55 60 54 54 54 63 66 70 77 81 77 78 84 87 87 85 83 77 76 78 80 83 85 87 91 94 97
34 35 38 45 46 44 44 44 44 44 46 50 50 54 56 52 49 48 56 59 61 68 72 80 79 78 82 83 88 89 83 76 77 76 76 78 82 84 87 91 95 97 101
45 45 46 43 44 41 41 42 43 45 44 45 49 46 43 46 49 56 58 63 68 69 76 77 80 78 84 88 82 74 72 74 77 79 81 83 85 87 91 95 98 101 103
44 44 43 43 44 45 41 39 42 44 47 48 49 51 48 51 57 61 62 67 71 76 79 74 81 83 79 71 73 73 76 77 80 82 81 85 88 91 93 97 102 103 103
48 50 51 52 53 50 44 42 46 44 49 49 49 51 62 61 62 62 63 70 75 77 79 73 73 70 70 69 73 76 75 78 76 80 85 88 90 92 96 100 103 102 101
45 48 52 54 55 49 47 44 43 43 46 51 53 56 59 63 61 66 69 73 78 70 73 71 71 69 70 75 75 75 81 82 83 83 85 89 93 96 99 102 103 104 104
46 50 51 54 56 56 54 50 49 49 51 52 55 58 59 56 61 70 75 67 72 74 70 66 70 66 68 72 74 78 82 82 83 87 89 93 95 99 102 104 107 110 111
50 52 51 53 50 49 51 52 56 58 62 62 61 56 64 64 64 64 65 65 69 70 72 70 71 74 74 73 75 78 81 84 86 91 94 96 99 103 107 109 113 116 116
29 35 38 42 44 46 49 54 59 58 48 45 48 51 55 59 61 63 66 69 71 72 73 73 72 73 77 79 81 81 83 85 87 91 94 96 102 104 109 115 118 118 114
29 30 33 36 38 38 40 42 45 45 43 45 50 52 54 57 61 64 67 69 71 73 74 75 77 78 83 84 85 88 89 89 93 97 96 96 105 106 114 119 121 117 113
36 36 38 40 40 41 43 45 46 47 49 53 55 57 60 64 67 70 72 72 73 75 77 79 82 84 86 89 89 92 93 96 99 102 105 102 109 112 117 121 120 117 113
42 43 45 45 46 46 49 51 54 55 58 61 63 64 66 69 70 73 75 77 78 79 82 84 87 89 92 93 94 97 98 100 102 106 111 111 114 116 120 121 122 117 115
50 53 52 52 53 55 57 58 60 62 65 67 68 70 74 73 74 77 80 82 85 86 87 90 91 94 97 99 100 102 103 104 107 110 117 115 119 122 118 121 119 115 115

GFSMA_250_spd_072.txt.gz
Wind_Speed
44 42 41 43 39 37 40 36 42 42 38 39 39 39 42 39 42 42 41 33 36 35 38 39 43 44 46 46 45 48 51 55 55 55 57 59 62 66 73 72 70 67 71
43 42 42 44 42 39 40 46 41 42 43 43 42 42 43 43 35 36 38 38 40 42 39 47 47 47 49 46 46 51 56 56 55 56 59 63 67 72 68 68 67 70 74
45 43 47 48 42 44 43 45 47 48 46 40 40 42 43 44 41 43 44 45 45 45 50 48 49 47 45 47 51 56 59 57 58 61 65 69 73 70 68 70 70 76 74
51 45 47 48 48 48 48 47 47 47 45 42 46 47 47 48 45 48 48 48 47 48 50 50 47 46 48 52 56 58 58 58 63 66 68 68 67 68 69 73 73 67 74
52 51 46 46 46 47 45 47 44 45 43 47 48 52 54 51 53 55 51 51 50 52 53 49 47 48 52 56 58 57 59 64 64 63 60 62 62 65 60 59 66 74 79
48 49 47 46 45 47 46 45 46 47 49 52 57 60 62 61 61 57 55 51 52 50 51 49 48 51 56 56 56 59 58 60 59 62 64 65 66 64 65 68 74 79 77
50 47 49 51 48 50 49 54 53 54 60 60 63 64 62 64 57 59 55 52 52 54 53 49 52 55 55 57 61 61 58 55 59 62 62 61 58 64 70 78 79 82 79
43 48 54 53 55 49 50 54 59 59 62 62 64 64 65 61 56 55 52 53 55 52 52 56 57 55 60 64 62 60 58 57 65 62 67 64 68 72 79 83 85 82 75
59 52 54 51 50 51 51 52 55 57 60 63 62 60 61 56 53 53 54 56 55 55 54 55 59 62 63 63 58 56 60 64 64 63 67 66 71 80 86 87 82 74 72
61 61 63 62 60 60 62 64 61 61 62 63 60 53 53 53 53 54 58 57 58 57 56 57 57 58 58 59 62 62 60 62 65 66 70 73 77 82 86 82 78 74 71
66 72 71 64 60 62 64 63 63 62 53 51 51 50 53 55 54 53 55 53 52 57 56 52 57 53 51 50 53 57 61 65 67 70 76 81 87 88 79 72 73 72 75
55 57 60 64 58 53 52 52 50 48 46 49 50 49 48 50 50 51 55 60 62 55 58 59 58 55 55 56 57 62 66 69 71 76 81 88 82 80 75 74 74 77 77
35 37 39 39 41 40 39 43 45 45 43 43 42 45 51 53 55 54 50 52 55 58 51 51 57 58 57 59 64 68 70 73 78 83 88 79 74 74 75 76 79 77 77
35 32 32 32 34 35 36 37 39 40 44 49 52 51 51 52 53 51 49 51 52 47 50 53 58 58 59 64 68 71 74 78 83 77 78 72 74 77 78 76 77 78 83
37 35 38 40 40 41 42 44 49 49 49 50 50 51 50 54 53 44 42 40 41 44 49 55 58 62 67 67 72 75 80 81 76 76 74 78 78 80 81 85 83 85 89
38 38 39 40 40 43 45 46 50 53 51 54 55 55 53 50 49 48 47 47 48 51 52 56 60 62 64 72 74 85 81 74 76 75 78 78 80 84 83 85 86 89 92
43 44 46 48 49 50 51 53 56 57 59 58 56 50 49 47 44 44 51 52 54 55 56 60 62 64 71 74 82 72 72 74 75 76 75 79 83 84 83 84 88 90 93
45 46 47 45 45 47 49 50 52 52 54 53 52 44 43 46 49 54 54 57 58 59 57 65 65 69 82 83 73 72 76 77 79 75 82 85 83 85 88 90 93 93 96
42 42 44 46 47 47 45 43 41 48 53 46 48 45 47 46 48 58 61 61 60 64 65 70 76 78 72 70 72 74 77 77 78 83 85 85 88 91 91 93 96 98 98
39 43 44 46 46 46 49 51 51 54 51 50 48 46 48 48 48 56 59 59 60 68 70 72 69 69 70 70 74 79 81 81 86 87 88 91 92 94 96 98 101 103 102
28 32 37 43 46 49 52 55 57 51 45 46 47 52 60 57 59 61 65 64 69 68 64 67 70 73 75 77 79 82 83 86 87 90 92 95 96 99 101 102 107 108 108
25 26 28 32 40 42 43 44 44 44 45 50 53 55 56 55 54 56 59 60 63 65 68 72 75 75 77 80 84 87 89 90 93 94 96 99 101 104 106 109 111 110 110
34 33 31 32 34 35 36 35 38 39 40 41 42 45 48 52 55 59 62 66 68 72 75 75 78 79 83 86 89 90 92 95 98 99 99 97 104 106 110 113 112 113 115
42 41 39 40 40 41 42 44 45 45 47 49 51 54 57 60 64 66 69 71 73 76 78 81 83 85 88 90 92 94 96 95 97 101 104 104 108 109 114 114 114 116 118
50 49 48 47 48 46 49 51 53 52 53 55 57 61 65 67 69 71 74 75 79 81 84 87 89 91 93 95 97 97 100 99 101 104 105 106 110 114 111 114 117 120 121
55 55 59 59 56 53 54 56 56 58 60 62 64 66 68 70 72 76 80 84 87 89 92 93 92 94 96 99 102 104 103 102 108 104 107 108 113 115 112 115 120 125 128

GFSMA_250_spd_075.txt.gz
Wind_Speed
41 43 34 32 31 32 39 41 39 38 41 40 37 37 36 36 35 37 35 37 41 43 40 41 46 41 42 45 47 46 45 43 45 46 48 52 55 54 58 63 64 66 68
42 41 40 32 35 38 40 38 37 36 39 38 38 37 39 37 35 35 36 43 40 38 44 47 46 42 45 47 49 48 46 46 46 49 53 58 56 58 63 67 68 70 72
42 43 39 37 40 40 40 44 41 40 40 40 35 39 41 37 37 37 41 42 46 46 48 45 49 46 48 49 49 48 47 46 53 57 57 56 59 66 66 65 67 69 70
44 42 46 44 42 42 43 44 42 43 41 38 43 41 44 40 43 43 45 48 46 50 53 52 53 51 48 49 50 49 48 54 58 55 57 61 65 63 61 60 61 62 65
42 46 50 51 52 47 46 45 44 46 44 38 41 42 40 42 46 49 53 52 53 55 54 53 50 51 50 51 50 47 53 58 56 56 62 67 67 62 61 64 62 64 59
52 49 48 47 48 50 45 44 43 45 45 46 44 45 46 49 52 57 58 58 52 52 55 53 50 52 54 48 48 53 56 58 61 63 66 67 62 63 64 66 65 63 65
50 53 53 48 51 50 47 50 53 46 51 52 47 50 52 56 62 62 62 59 56 52 54 49 50 56 52 51 53 55 58 61 64 64 60 59 61 67 69 65 61 66 72
49 50 49 48 53 53 52 52 53 51 53 52 53 55 60 60 64 64 63 56 54 53 53 52 55 55 53 56 56 59 62 61 61 60 63 67 67 63 59 61 68 73 78
54 55 55 55 50 48 51 53 52 53 55 56 60 63 64 64 66 63 57 56 54 56 53 56 57 56 57 59 59 58 60 57 57 58 58 60 59 62 66 72 78 80 75
55 51 54 52 53 52 52 56 56 53 61 65 63 63 65 66 63 59 55 55 56 53 56 52 53 58 58 54 54 55 53 53 54 56 58 55 63 69 72 74 83 76 77
61 64 63 63 60 62 66 65 63 62 68 72 70 68 64 65 62 62 57 52 52 50 53 57 56 53 53 54 55 52 55 57 56 55 55 59 65 72 75 86 77 74 72
61 64 66 67 71 71 68 68 70 71 70 69 66 64 66 61 54 52 51 52 50 49 46 50 50 53 53 51 49 55 56 58 57 56 61 66 71 79 87 77 75 74 76
53 58 61 64 64 63 68 68 68 66 65 67 62 58 56 54 49 46 50 53 50 53 54 53 51 50 46 53 57 56 57 57 54 60 69 74 81 76 72 74 77 79 78
40 39 41 47 50 53 59 65 63 58 55 52 48 46 46 47 49 54 56 58 59 58 56 51 49 47 48 50 51 54 53 55 56 63 71 76 81 76 75 77 78 79 82
35 37 37 37 37 38 39 39 40 38 41 42 42 43 50 52 56 56 58 60 55 54 54 53 54 53 48 49 52 54 55 60 64 69 75 74 70 73 77 78 79 83 85
27 30 32 36 36 38 39 42 43 45 46 48 51 52 50 55 57 60 52 52 52 53 50 54 51 50 52 53 55 58 61 69 72 76 69 71 74 77 79 79 81 83 85
34 34 37 43 47 47 44 43 45 46 46 50 52 49 49 53 50 54 51 49 53 54 53 54 54 56 56 55 57 63 65 69 71 70 74 76 79 82 84 86 89 91 92
39 42 42 45 48 49 47 49 48 46 44 45 44 47 45 50 51 51 50 52 49 51 54 59 57 63 64 66 60 67 72 68 71 73 75 79 83 86 88 91 92 95 97
24 33 40 43 43 45 46 46 45 45 47 46 48 50 51 53 53 54 53 52 51 51 53 53 58 63 70 70 72 67 72 73 75 76 80 83 86 91 93 94 95 96 95
23 23 30 39 43 44 45 48 48 48 47 49 53 54 55 55 58 55 54 53 54 58 59 60 61 64 67 66 70 73 75 79 80 84 85 87 90 94 97 98 100 100 100
28 29 29 28 30 38 46 49 49 51 50 53 55 56 57 57 54 52 50 55 59 64 64 61 62 66 69 72 75 78 81 83 85 88 91 94 94 99 101 102 103 105 105
33 31 34 33 34 33 34 35 37 41 45 52 49 46 48 46 47 49 51 55 57 58 62 65 69 73 75 77 80 82 86 89 92 95 95 96 101 104 106 108 106 109 111
40 40 39 40 39 38 39 39 40 40 41 43 43 44 47 48 50 52 55 57 60 63 66 68 71 74 78 81 84 88 90 91 94 97 98 100 108 108 108 109 110 113 116
45 47 45 46 45 46 47 47 44 42 48 50 51 52 54 54 52 55 57 61 63 67 71 74 77 79 84 89 90 92 94 96 99 100 103 108 112 109 111 110 112 116 120
50 52 53 52 52 52 53 53 54 55 52 51 54 54 57 58 59 63 67 69 71 73 75 79 84 88 91 93 97 98 102 101 102 105 112 115 115 113 113 113 115 117 118
54 58 58 56 60 61 60 60 61 61 59 60 63 61 61 65 66 68 70 73 76 78 81 85 89 90 97 100 104 105 103 103 108 113 117 115 115 118 114 117 121 123 124

GFSMA_250_spd_078.txt.gz
Wind_Speed
36 35 26 24 29 22 22 23 31 33 24 27 26 28 30 28 32 30 31 32 32 32 36 40 40 41 42 45 45 46 44 44 46 49 48 46 45 49 56 60 56 58 60
37 37 31 31 29 27 26 29 31 35 31 32 29 29 29 31 35 31 34 33 33 36 37 43 46 47 46 49 52 51 47 46 47 49 48 45 50 56 58 56 59 60 66
40 41 34 37 27 27 29 36 31 35 36 35 35 32 37 35 35 38 35 37 40 39 41 44 47 50 52 54 52 51 48 47 50 49 44 48 55 56 57 59 63 67 69
38 37 39 40 37 31 32 34 35 38 37 37 41 44 35 37 36 35 41 38 43 44 46 47 51 48 57 54 53 50 49 51 48 46 51 53 56 54 58 65 69 72 71
44 42 39 41 39 39 37 38 39 38 41 42 42 38 34 38 40 45 43 45 47 47 51 55 54 58 54 56 52 48 51 55 50 51 51 56 56 60 67 70 70 67 62
48 49 46 43 39 41 37 43 45 45 47 44 45 41 42 47 45 51 46 50 48 52 56 60 59 59 54 53 49 52 55 57 51 54 56 57 62 67 68 66 66 67 64
49 40 41 44 43 47 47 42 44 46 47 49 45 48 49 50 51 48 53 53 56 58 60 67 62 55 54 56 57 55 58 53 56 58 59 61 64 63 65 66 65 64 59
51 50 44 50 46 50 51 50 50 52 50 49 50 51 53 55 51 54 56 55 59 65 68 64 56 60 57 59 56 56 54 57 57 59 62 63 62 58 61 59 57 57 63
49 54 48 51 53 56 57 54 50 49 53 55 56 55 53 55 56 56 59 61 62 68 73 62 58 64 57 57 56 56 58 56 57 59 58 60 65 66 62 65 68 65 63
52 53 52 53 55 55 52 54 58 53 54 54 55 58 59 64 65 65 66 70 73 73 67 64 62 56 53 53 55 53 51 50 51 56 59 61 60 61 58 58 60 71 71
63 60 60 54 53 51 53 55 59 59 59 59 62 61 63 68 71 69 72 72 71 69 68 55 55 52 51 53 52 51 54 55 54 58 59 60 59 53 45 53 58 70 74
64 65 62 62 65 61 59 59 61 62 66 67 69 68 70 71 74 78 72 68 66 60 53 49 50 54 56 53 54 58 56 57 56 61 61 58 55 55 51 56 65 71 67
60 59 65 66 68 72 72 70 67 70 73 74 75 75 75 76 71 71 68 63 53 48 48 54 50 52 55 55 51 52 53 54 58 58 55 51 50 49 54 64 64 65 70
50 53 61 63 64 68 66 67 69 72 72 73 75 77 76 74 68 63 52 46 47 50 51 55 57 56 54 54 55 58 57 55 53 50 48 48 48 50 56 59 65 68 72
37 39 46 54 59 65 74 77 76 79 70 55 50 50 46 45 42 44 47 50 51 55 55 55 53 55 52 56 56 57 54 50 50 47 49 49 53 56 64 67 68 73 75
28 29 29 31 39 43 40 36 37 36 37 39 40 42 44 45 47 50 52 55 48 45 48 53 54 56 59 61 61 56 51 51 49 50 52 56 61 66 68 72 76 79 80
31 31 31 31 31 34 34 36 39 40 42 42 44 45 48 51 54 53 47 48 46 47 51 54 55 57 58 61 57 56 49 48 53 55 59 66 73 71 73 77 80 83 87
15 19 37 41 39 37 40 45 45 48 50 51 50 50 53 51 49 49 47 50 52 53 54 56 57 59 57 57 54 54 54 55 59 62 69 71 73 75 77 79 83 88 89
20 20 21 20 34 43 45 48 50 51 52 53 53 50 49 50 52 51 51 53 56 59 60 58 56 59 57 54 53 56 60 61 63 66 68 73 75 78 81 84 88 92 93
22 25 25 24 24 24 26 34 45 50 52 52 52 50 51 52 51 52 54 56 59 61 59 59 57 52 54 55 59 62 65 68 70 72 72 74 79 83 87 89 92 94 98
27 31 30 33 31 30 31 32 32 32 31 34 41 49 52 52 52 52 53 54 52 53 53 54 56 57 58 61 65 67 70 74 73 75 76 78 83 86 90 97 97 99 100
31 33 32 33 37 38 38 38 38 37 36 37 39 40 41 43 43 43 46 48 50 54 56 57 59 60 63 64 66 69 72 77 79 83 88 88 89 92 95 98 101 105 105
42 44 39 38 40 40 43 44 45 43 42 44 44 43 42 45 46 50 54 55 56 55 58 58 66 68 73 70 74 77 82 82 86 92 93 94 96 98 99 103 106 107 109
51 49 47 51 52 52 49 49 53 49 48 49 51 51 50 53 52 52 54 56 58 57 56 65 67 72 80 78 81 86 87 91 93 97 104 101 102 103 105 109 112 111 113
56 58 59 57 60 59 57 53 53 57 61 56 57 58 57 57 59 62 62 62 64 63 68 70 72 75 79 83 86 89 94 97 100 101 103 104 106 110 112 114 114 116 116
58 62 63 66 66 64 61 62 59 61 58 64 69 66 66 67 66 67 69 70 72 73 75 77 80 82 84 86 89 94 97 99 102 104 105 108 111 113 113 113 114 120 122

GFSMA_250_spd_081.txt.gz
Wind_Speed
28 22 24 27 25 27 34 36 38 37 31 26 29 36 33 29 25 25 24 26 29 30 28 32 35 32 36 38 39 45 48 50 53 50 44 47 48 49 48 45 48 49 50
35 33 27 25 27 28 29 32 34 26 24 23 36 33 28 28 31 27 28 30 35 35 35 36 37 38 40 42 44 44 48 52 53 49 47 49 49 49 50 50 51 49 52
44 39 37 34 32 29 30 26 24 24 26 31 35 30 32 35 32 31 34 39 34 35 35 38 43 43 45 48 48 46 48 53 53 47 48 50 50 53 53 52 52 53 56
51 48 48 37 39 32 31 31 30 27 27 30 34 30 31 34 37 36 39 38 37 37 44 45 46 47 49 52 54 54 53 52 51 50 50 53 56 56 54 55 55 59 62
59 48 39 39 36 35 32 34 32 33 34 36 37 35 39 39 37 38 38 37 39 45 50 47 49 50 55 56 58 58 60 54 54 52 57 57 59 56 55 57 56 61 67
57 38 40 42 44 42 39 41 40 39 36 39 41 40 40 44 43 43 42 43 47 50 50 51 52 53 59 61 65 66 63 59 59 57 57 58 57 56 57 57 61 64 65
47 41 41 42 41 41 41 40 41 40 38 42 47 47 45 47 45 47 48 50 50 54 54 55 56 58 58 64 70 68 64 63 63 57 57 56 55 55 58 61 65 62 63
50 44 46 45 51 51 55 54 49 45 45 48 45 46 46 48 50 53 55 54 55 52 57 58 59 60 64 67 72 74 65 63 64 59 56 56 52 57 61 58 58 63 66
49 45 48 55 56 52 50 54 56 47 49 52 54 55 55 60 60 51 53 58 58 59 59 61 63 68 73 70 69 69 65 63 57 55 56 51 53 56 60 65 65 64 60
55 55 56 56 54 55 54 48 50 51 56 57 58 58 58 56 54 55 59 60 61 64 62 67 71 70 68 65 65 58 56 53 56 57 55 56 58 64 64 61 60 59 59
57 57 63 61 56 55 59 66 61 60 59 58 59 58 61 61 60 61 64 65 64 67 69 72 67 66 65 60 56 51 52 51 53 51 54 59 58 56 59 63 60 52 51
64 63 59 59 59 58 56 58 60 60 58 59 61 61 64 64 65 64 66 68 71 72 72 70 71 72 63 51 51 51 49 52 53 56 54 53 54 54 55 54 54 53 51
67 68 66 68 68 65 65 65 62 63 66 67 68 68 70 71 70 71 71 73 71 72 73 70 66 55 51 50 51 52 54 51 51 54 56 56 58 56 54 51 48 51 52
66 67 70 67 70 69 66 66 65 68 71 70 71 73 72 73 73 77 78 74 75 67 53 46 46 48 49 48 51 50 53 53 51 54 59 59 56 53 48 49 52 55 52
41 50 61 67 68 70 70 68 67 69 70 72 72 73 76 77 77 81 65 42 41 40 42 50 45 50 52 50 49 51 54 56 58 57 58 57 53 49 51 53 56 57 55
19 29 38 47 55 60 65 69 70 69 72 71 66 65 61 63 49 43 43 43 43 47 46 54 54 53 51 51 53 54 57 59 61 60 58 52 51 53 56 58 60 60 62
13 14 21 29 34 37 38 39 44 48 50 51 48 43 44 44 45 46 46 47 48 49 50 49 49 52 53 56 58 61 62 60 60 62 54 55 55 59 60 62 64 68 70
16 15 18 19 21 36 42 40 39 39 43 47 47 44 47 48 50 51 53 54 53 53 51 50 52 55 55 58 61 63 61 59 55 54 56 57 59 62 65 73 73 73 74
31 26 25 21 20 24 26 32 46 51 51 50 49 49 52 55 57 58 57 56 56 57 56 57 56 57 59 60 57 55 52 53 57 58 59 61 63 67 73 73 76 79 82
38 36 32 32 31 31 26 30 31 31 30 33 38 43 50 56 58 59 58 57 57 58 58 56 56 54 51 53 55 57 59 60 60 59 62 65 68 71 73 78 82 86 88
44 41 37 34 37 36 39 34 29 33 35 34 34 35 38 40 42 42 43 43 42 44 46 48 49 51 53 56 59 64 64 62 65 66 65 69 74 77 81 85 90 94 96
45 43 42 41 38 41 44 41 41 36 35 40 42 44 45 46 48 47 44 45 45 47 49 51 54 55 57 59 64 62 65 68 73 74 76 78 76 81 86 89 93 97 98
46 48 50 48 49 50 48 45 45 48 46 46 46 45 46 51 54 55 54 55 55 57 57 57 56 58 62 65 66 67 70 73 74 75 79 83 87 89 93 95 98 100 103
53 51 51 52 57 56 55 57 58 55 56 55 54 56 52 57 53 52 59 64 63 62 63 65 66 67 68 68 68 71 74 76 82 84 85 87 90 94 97 100 103 107 107
58 58 58 58 55 62 61 61 62 61 60 61 62 60 64 61 59 60 62 59 65 71 72 73 76 75 75 76 77 80 83 85 85 87 89 91 94 98 101 105 108 110 114
63 63 62 62 63 65 69 65 64 67 64 66 69 69 68 67 66 67 68 72 67 70 74 75 76 78 81 82 82 85 86 86 88 91 94 97 100 104 105 105 110 118 114

GFSMA_250_spd_084.txt.gz
Wind_Speed
55 55 42 28 19 21 21 20 27 17 18 33 38 40 30 26 30 34 35 30 29 27 26 27 29 31 31 34 35 39 41 40 46 44 44 49 51 53 51 50 54 55 56
55 52 41 21 24 25 22 24 30 20 17 28 36 36 32 28 36 40 36 35 33 29 30 33 33 34 34 38 41 45 44 44 48 48 51 56 52 54 56 53 56 57 57
53 50 45 34 28 23 28 29 25 28 29 32 36 39 36 32 38 40 36 36 35 34 35 35 37 37 41 44 47 48 48 50 52 54 56 55 54 58 59 58 59 58 57
48 45 46 36 33 35 36 29 31 27 29 35 40 40 33 37 41 34 39 36 39 39 38 40 40 40 45 49 48 50 51 54 54 60 62 64 61 63 58 58 58 58 53
49 47 48 45 41 42 40 35 31 29 28 34 38 32 27 30 34 30 38 39 42 36 41 41 45 47 52 52 52 54 55 55 56 60 64 68 64 62 59 59 59 58 56
55 52 54 52 50 46 43 38 31 37 35 33 32 34 38 38 37 34 40 44 45 46 48 48 50 53 54 56 56 58 58 58 59 63 68 65 62 62 63 62 58 58 58
62 66 62 58 54 40 45 42 38 37 36 39 40 43 41 41 45 42 44 48 51 50 51 53 59 56 58 60 61 61 61 62 67 70 67 65 65 63 61 56 56 59 58
61 63 66 68 63 48 46 48 47 45 39 42 46 47 45 45 49 43 45 46 50 52 55 56 55 60 65 64 63 64 64 67 70 70 65 64 59 56 54 53 54 55 59
48 54 63 60 51 55 52 54 55 49 47 45 49 52 54 54 53 47 50 53 56 59 63 57 57 62 68 67 66 67 70 67 67 65 61 57 51 49 48 52 53 56 60
44 48 48 48 48 49 49 49 51 52 54 51 56 57 59 59 52 57 60 62 59 61 61 60 61 66 69 69 71 73 72 73 70 61 54 50 49 48 48 53 56 60 60
49 49 48 48 47 46 47 46 51 53 53 56 51 54 55 54 57 61 61 58 61 63 64 65 66 68 69 73 74 71 72 65 58 50 50 51 50 51 53 52 54 57 59
56 51 54 52 57 59 57 59 60 59 60 56 57 60 61 63 63 66 69 66 67 69 68 71 73 71 72 77 79 74 64 52 49 48 49 49 52 54 52 55 58 60 59
55 60 59 59 58 62 65 62 64 67 62 58 61 62 63 66 69 69 73 70 70 70 73 74 70 77 80 75 67 55 47 45 47 52 55 57 55 54 56 56 60 59 59
44 50 57 61 61 63 66 67 67 67 63 62 63 63 65 67 69 71 71 74 73 73 71 78 77 75 62 52 49 47 50 50 54 54 52 54 54 56 57 58 58 57 52
25 34 43 50 55 61 67 70 70 71 72 72 70 72 71 73 73 74 76 77 77 80 79 74 60 50 50 50 49 53 54 55 53 52 54 55 57 59 59 59 59 54 53
22 20 22 29 34 41 48 58 68 72 73 73 71 70 72 74 76 77 77 69 65 57 53 58 54 54 52 52 55 56 55 51 54 56 60 61 62 59 58 56 54 55 58
28 27 24 22 20 21 29 35 40 45 50 58 63 67 69 72 70 61 57 57 54 50 47 52 51 53 53 55 55 54 53 57 58 62 62 63 61 58 54 56 59 60 62
32 33 33 30 27 26 23 24 25 29 41 42 42 43 44 44 46 48 52 55 54 55 53 55 60 57 56 56 56 60 59 61 62 66 62 57 57 59 60 62 61 65 69
36 37 39 41 39 36 35 30 25 23 28 30 34 45 52 53 55 53 53 54 57 57 58 59 60 60 58 59 59 61 62 65 59 55 57 60 63 65 67 68 69 71 71
37 36 36 38 39 39 39 36 35 35 32 32 31 34 35 36 39 40 42 44 45 43 43 42 41 44 45 48 53 56 57 57 60 62 62 65 67 67 67 73 75 75 78
43 39 40 38 39 41 42 42 38 36 40 43 41 40 38 37 37 37 37 43 45 46 47 47 46 47 48 50 54 56 57 60 63 65 67 69 73 75 79 80 79 77 81
48 48 46 45 44 44 45 45 47 47 45 45 44 45 49 49 48 46 46 44 42 46 47 53 53 56 59 61 64 65 65 69 71 74 75 78 81 80 79 79 79 81 84
51 51 50 50 50 51 53 51 49 48 49 52 53 53 54 58 58 57 55 51 51 54 52 53 51 56 56 64 69 72 73 76 77 78 79 76 74 72 75 79 81 83 88
55 54 53 54 53 54 57 58 57 55 56 55 58 62 62 63 65 63 63 61 58 61 62 63 62 60 64 67 64 70 77 80 80 79 78 80 83 85 85 86 88 91 95
57 56 59 61 55 57 61 62 63 59 60 60 63 67 68 64 63 68 67 68 65 68 67 68 73 74 71 73 76 77 78 82 83 82 82 82 83 85 87 89 90 95 101
61 64 64 61 62 63 67 67 68 68 65 68 76 74 76 66 66 68 70 72 73 73 71 69 71 74 81 82 77 82 81 77 80 80 83 86 87 90 97 96 95 100 106

GFSMA_250_spd_090.txt.gz
Wind_Speed
49 54 60 50 42 30 32 28 23 16 16 19 21 18 20 26 21 20 35 39 34 31 21 29 31 33 30 25 26 27 27 30 33 33 40 42 44 44 46 50 51 53 56
54 57 52 48 36 33 31 25 26 21 16 18 12 14 20 24 18 24 35 37 33 30 17 30 33 34 31 27 26 28 30 32 33 36 41 45 48 47 48 49 52 54 55
56 43 43 42 39 37 32 34 29 24 13 15 19 23 24 21 19 23 37 34 39 43 28 30 34 40 35 35 33 32 32 34 36 41 45 47 47 49 49 52 55 56 57
52 53 49 43 34 28 32 23 29 28 22 18 20 28 26 23 23 30 34 39 35 37 39 33 38 40 37 37 40 35 39 40 44 44 44 52 50 51 51 57 60 59 62
43 41 41 39 35 35 37 29 38 34 20 27 29 34 29 24 25 27 38 41 40 43 42 41 35 38 38 40 41 42 44 44 47 50 51 54 53 56 56 58 61 60 62
32 35 37 39 38 42 41 32 23 27 27 28 31 34 29 30 26 31 38 42 41 45 40 36 35 35 38 43 46 47 47 47 49 53 57 55 56 61 62 63 62 63 65
32 36 36 42 46 44 43 46 33 35 37 43 33 36 35 33 36 34 36 37 37 44 44 37 39 42 44 49 51 53 53 52 54 58 61 58 63 63 65 66 64 68 67
32 37 38 43 42 46 49 46 44 43 39 37 43 44 40 45 43 40 39 38 38 40 43 43 43 45 45 49 55 57 55 56 59 62 63 61 65 67 68 66 68 70 61
37 42 44 47 46 44 50 52 51 49 49 53 50 50 49 46 48 47 46 43 43 47 48 46 48 50 51 56 59 56 57 60 63 63 65 67 68 67 67 68 68 60 47
42 42 46 48 49 53 57 56 54 54 53 51 56 57 49 47 50 52 49 47 49 54 53 55 56 57 57 55 58 59 61 63 66 68 70 71 70 69 70 69 58 45 45
35 46 44 49 50 50 50 53 57 58 56 51 49 52 53 54 52 52 53 54 52 53 55 58 53 54 57 60 61 61 63 67 68 72 73 71 69 71 70 60 49 48 48
32 32 32 41 47 49 50 49 47 47 41 44 42 46 52 56 57 60 63 59 57 59 61 60 59 61 63 65 66 66 68 72 73 74 73 72 72 67 58 52 51 51 51
30 38 37 37 41 48 49 47 47 46 45 46 46 45 47 52 53 55 59 65 63 62 60 63 65 66 70 69 69 70 73 74 75 75 71 68 62 54 52 53 51 51 52
11 12 16 27 39 46 50 49 50 49 52 55 51 51 52 53 58 58 60 62 64 67 66 68 69 70 71 71 73 75 76 73 74 73 65 58 54 57 51 54 53 53 57
4 5 8 8 8 9 16 30 45 56 59 58 58 57 59 60 62 65 68 70 72 73 72 72 70 72 75 76 74 71 69 70 66 63 60 58 56 56 60 57 57 60 60
12 9 8 8 9 11 13 12 11 12 16 21 31 44 55 63 68 71 73 72 71 68 64 67 68 70 71 69 63 59 58 59 61 61 59 60 59 60 60 59 59 61 59
20 17 17 16 16 17 18 16 15 16 19 20 20 19 19 21 27 32 36 38 42 45 45 48 47 48 47 47 50 52 55 58 59 61 61 61 59 57 56 56 54 53 53
24 25 24 23 24 24 25 24 24 23 22 22 23 25 25 26 25 24 23 23 26 30 30 35 40 41 40 42 42 43 45 46 46 47 48 48 49 50 51 52 52 54 58
32 31 29 28 28 29 31 31 30 31 30 29 28 31 33 33 34 33 31 32 31 30 27 25 32 36 37 40 41 43 44 43 42 45 46 49 52 53 54 56 58 58 55
40 38 37 36 36 36 36 37 36 35 36 36 36 35 35 37 39 39 40 40 38 37 36 35 37 40 42 48 48 49 49 50 49 50 48 50 51 54 55 60 61 64 65
44 43 43 43 40 42 42 41 39 40 40 41 41 42 42 41 42 42 40 42 44 43 45 46 44 45 48 52 55 59 57 59 56 57 57 58 57 59 62 65 66 69 70
51 49 47 47 48 48 50 50 46 45 46 45 47 48 49 49 48 48 48 48 47 46 45 46 45 45 48 54 62 66 66 64 63 73 71 63 67 65 64 66 69 73 76
55 51 52 53 52 52 53 54 56 53 53 52 51 53 53 54 54 54 53 55 54 52 54 57 51 53 55 64 62 65 67 70 72 73 69 68 69 67 68 70 74 77 77
59 59 59 59 56 59 58 59 63 63 60 56 56 57 57 59 61 61 59 56 58 60 64 60 56 57 57 64 69 71 73 70 69 71 73 72 75 77 77 75 76 79 82
66 63 63 63 63 64 63 64 65 64 63 62 63 63 64 64 62 66 64 63 63 68 65 66 68 68 67 69 71 80 78 79 76 71 71 75 77 81 81 84 80 82 84
67 67 65 63 63 62 63 63 67 69 69 67 68 70 69 66 68 67 70 74 75 71 68 70 69 71 80 77 78 82 78 80 76 76 75 78 81 83 85 87 88 91 86

GFSMA_250_spd_093.txt.gz
Wind_Speed
28 40 48 48 52 52 47 39 36 23 17 19 19 16 15 17 15 19 20 17 24 30 31 31 27 29 26 25 26 27 25 25 23 23 25 27 32 33 34 40 40 43 43
26 38 50 52 57 49 48 36 35 26 20 16 23 16 14 13 14 18 21 15 20 28 29 31 27 21 30 32 32 31 27 27 24 23 27 32 37 38 40 43 43 46 49
26 38 52 56 58 45 49 34 34 27 24 24 28 17 13 19 19 24 15 14 18 27 28 35 35 29 26 28 36 35 30 33 26 31 34 38 40 41 42 45 47 49 53
19 42 55 57 55 47 48 31 29 23 26 29 21 19 19 16 18 22 14 16 19 30 29 31 40 40 39 38 36 37 35 32 34 35 39 41 44 45 46 48 51 53 56
14 46 55 56 47 44 43 37 28 32 34 29 20 18 18 17 18 23 25 20 21 23 34 34 35 42 38 41 34 35 37 39 40 42 45 48 49 48 52 53 55 55 58
11 45 52 52 49 40 35 33 28 31 26 26 27 20 20 26 28 26 23 25 30 29 31 36 37 43 44 38 35 38 39 41 45 47 49 50 52 52 53 56 57 59 62
18 44 42 44 44 38 33 35 36 39 30 28 30 32 27 26 25 32 33 33 36 33 37 37 38 40 44 37 37 40 42 43 45 50 51 54 53 54 57 60 62 64 62
19 33 41 45 40 37 32 37 39 39 42 41 39 32 37 35 42 41 37 38 40 42 41 42 42 38 37 39 42 45 44 48 50 53 50 54 55 59 61 63 65 65 66
30 34 38 36 37 38 47 40 42 42 46 45 46 44 40 43 45 42 40 45 43 44 41 41 40 41 43 44 44 48 51 52 54 52 55 58 58 60 63 65 68 67 65
40 41 39 38 35 41 48 49 48 48 49 48 47 49 51 52 50 47 48 46 49 50 49 47 46 42 47 51 50 55 56 55 54 56 60 62 63 63 67 69 67 65 64
35 40 44 44 46 51 51 54 51 51 52 52 56 56 54 54 51 51 52 51 50 50 49 50 49 51 53 53 56 57 59 60 60 61 66 66 65 67 69 67 68 64 51
37 39 42 43 46 50 53 54 56 58 56 54 53 52 56 56 45 46 49 52 52 53 52 54 55 57 59 64 65 66 64 63 63 67 68 69 68 72 69 69 60 55 46
41 46 45 49 50 48 49 48 53 54 48 51 52 49 47 46 47 46 46 47 50 55 60 61 60 62 63 63 63 65 66 68 69 70 69 70 72 70 66 57 52 50 51
29 40 45 45 45 46 46 48 52 54 56 54 50 49 50 52 53 53 54 54 55 57 56 60 64 67 66 65 68 71 72 73 73 70 72 74 67 58 55 52 53 52 53
18 18 22 30 35 40 43 47 48 51 54 54 55 56 54 56 57 55 55 59 59 59 60 62 65 68 71 73 75 76 75 72 74 70 62 52 51 53 54 56 55 53 52
17 17 18 20 21 21 20 18 17 19 22 27 34 43 50 52 51 53 59 61 63 64 65 68 69 71 72 72 73 68 65 62 53 49 50 52 53 50 46 41 41 44 43
24 22 20 20 19 18 20 21 19 21 20 22 24 25 25 24 23 23 23 26 28 31 33 42 43 46 44 46 47 46 46 47 45 41 42 42 43 44 43 44 45 44 45
32 29 26 26 25 25 24 24 25 25 24 24 24 25 25 26 29 29 30 29 30 29 25 28 31 31 32 32 34 34 35 35 35 41 41 42 44 46 45 46 46 47 49
37 37 33 31 31 30 30 30 30 30 30 31 30 30 29 31 34 34 34 36 36 36 35 33 38 37 38 39 39 40 41 40 42 43 46 49 51 52 51 53 54 54 55
44 44 43 41 40 38 38 36 36 36 36 36 37 39 38 38 40 40 40 42 41 40 40 39 43 47 45 51 47 51 48 49 49 52 53 56 57 57 57 58 62 65 64
48 49 47 47 46 45 44 43 42 41 41 43 43 43 43 44 46 46 46 50 49 48 48 47 44 47 51 53 51 53 54 59 58 54 55 59 58 56 60 64 67 67 67
51 50 49 48 50 51 50 48 46 47 46 48 50 50 53 50 51 52 54 54 53 54 55 55 53 51 53 56 56 57 60 61 58 63 58 61 66 66 67 68 67 70 70
55 55 55 56 57 56 58 56 55 53 53 54 55 56 57 57 60 58 60 59 58 59 60 61 60 60 59 59 60 62 67 64 64 68 69 64 64 68 74 72 71 71 74
58 60 61 61 59 58 58 57 59 60 61 60 63 65 62 61 62 60 60 62 64 67 67 66 67 64 66 65 67 69 73 73 71 72 76 76 78 76 82 73 72 74 75
63 61 59 59 58 59 61 65 68 68 68 68 68 65 61 61 58 66 68 68 70 70 70 68 70 68 71 70 70 74 70 73 74 75 75 80 78 80 82 76 73 74 76
66 66 68 69 71 70 71 71 67 67 67 67 66 64 65 68 69 69 69 69 68 70 70 71 76 75 75 77 74 76 76 74 76 77 79 81 83 79 86 81 78 82 86

GFSMA_250_spd_096.txt.gz
Wind_Speed
21 25 33 38 45 46 43 50 53 51 43 40 33 32 22 18 18 17 19 17 12 16 16 21 24 29 30 31 29 28 26 26 30 27 26 23 22 25 27 31 35 36 37
23 26 30 39 45 42 50 52 50 50 50 35 37 30 28 25 16 15 23 15 13 18 19 21 23 25 25 30 31 30 30 30 29 31 31 26 27 30 32 37 38 42 42
22 23 31 34 48 47 49 50 55 49 47 34 32 30 27 24 20 17 23 26 18 19 15 20 22 23 23 23 20 19 31 37 37 32 31 29 30 35 36 39 42 43 46
22 26 29 34 53 57 47 49 49 46 44 39 25 28 28 26 23 21 20 20 14 14 13 17 21 28 36 37 37 34 36 33 40 31 34 37 36 38 43 44 45 48 48
26 28 28 36 55 60 50 53 40 46 38 30 29 32 33 26 24 20 21 20 25 19 16 18 20 27 34 38 40 45 41 36 33 38 39 39 42 42 44 46 49 50 52
23 20 26 38 58 58 52 53 49 39 34 36 29 36 30 24 22 23 26 30 20 22 27 24 23 25 35 39 45 41 42 36 39 40 39 41 42 45 48 47 49 54 55
21 12 23 34 53 51 49 51 54 39 30 33 37 38 30 25 25 26 21 24 30 31 29 32 31 35 37 37 38 48 41 39 41 40 42 43 47 48 49 49 53 55 57
20 16 23 36 50 48 45 42 48 44 32 33 35 37 31 31 38 40 42 39 40 35 35 40 36 41 46 46 46 41 34 38 41 44 46 49 52 53 53 53 58 60 61
18 22 30 40 40 44 42 38 39 38 38 38 39 38 38 40 43 45 43 42 42 43 39 42 47 46 44 44 44 41 42 44 47 49 51 53 55 56 56 58 60 64 64
24 18 33 37 36 36 39 38 37 36 39 41 43 43 44 47 47 51 48 47 47 46 46 46 48 48 49 48 47 45 47 44 48 53 55 56 57 60 60 60 64 65 65
35 35 36 35 37 35 34 40 41 44 43 51 55 56 50 51 53 54 54 54 50 45 49 49 51 50 50 49 50 51 54 57 59 61 62 66 65 68 64 65 67 70 68
37 43 45 45 41 44 48 42 43 48 59 58 54 57 58 54 58 57 55 51 52 52 48 51 51 49 49 51 53 56 59 60 64 66 68 69 67 67 70 70 72 71 72
36 43 44 51 50 49 49 51 54 55 54 57 58 63 58 58 58 53 54 59 56 53 50 52 55 54 57 59 61 63 64 64 65 65 64 67 70 69 70 72 75 71 53
41 43 44 46 50 53 54 55 61 60 59 57 61 62 57 55 53 56 58 58 57 53 55 57 55 57 59 60 60 61 61 64 68 67 67 69 75 77 75 73 66 59 54
32 42 52 47 50 50 51 55 56 57 57 59 59 60 58 56 60 60 60 59 58 59 61 61 61 61 63 65 65 66 68 70 71 74 77 75 74 72 65 55 53 56 53
25 28 37 53 57 55 58 57 57 56 55 55 56 60 61 64 66 66 67 67 69 68 70 70 69 68 68 70 71 72 72 73 72 71 68 65 59 53 50 46 43 42 42
30 28 32 35 42 53 57 57 56 57 57 56 52 47 45 43 42 43 42 38 36 36 35 40 40 41 42 44 46 47 49 51 51 49 50 49 43 38 41 41 42 43 45
34 32 32 33 35 38 40 39 39 38 35 34 34 34 32 33 34 33 32 34 35 35 36 40 40 41 41 41 41 40 40 37 38 41 43 43 44 44 42 43 48 51 50
37 36 37 37 36 35 34 35 34 34 35 35 35 37 38 37 37 37 37 37 38 38 38 40 46 46 47 48 49 50 50 46 46 48 50 51 54 53 52 53 54 41 46
41 43 42 43 44 43 41 40 40 41 41 41 41 42 42 41 41 42 43 45 43 44 44 44 49 52 51 55 53 54 53 53 55 57 57 57 57 58 59 59 58 59 63
45 47 50 50 49 47 45 46 46 47 47 47 46 46 46 45 46 47 46 50 51 49 50 52 52 55 58 59 59 58 57 59 58 60 60 61 61 63 63 64 60 61 60
48 50 52 53 53 51 53 51 50 51 52 52 53 53 53 54 54 53 53 54 55 56 58 58 58 58 61 62 62 62 63 64 61 66 67 63 67 68 67 71 71 71 73
56 59 60 58 53 54 56 57 56 56 55 55 57 59 60 61 60 60 61 62 62 65 63 65 63 57 57 63 67 70 69 69 68 72 72 72 78 78 76 78 78 79 79
62 63 61 61 58 56 57 60 61 61 62 62 63 62 63 63 62 64 67 69 70 70 68 64 62 63 66 66 68 71 73 73 71 72 75 78 82 83 81 81 82 82 83
60 65 64 64 63 63 65 65 65 66 68 67 66 64 65 68 71 73 75 74 72 71 65 68 71 71 68 67 66 69 69 71 72 76 78 81 83 90 88 87 86 80 82
69 69 72 72 70 70 69 67 67 67 66 68 70 70 73 74 76 75 72 73 70 72 75 76 77 77 74 73 74 74 74 77 79 82 84 87 89 89 91 92 95 93 91

GFSMA_250_spd_099.txt.gz
Wind_Speed
28 24 27 27 34 37 46 45 49 51 44 43 36 34 32 26 25 22 19 18 24 19 15 19 10 17 19 18 23 24 25 28 28 26 29 27 30 31 30 27 28 31 33
30 21 20 22 30 38 42 46 45 52 51 48 43 34 37 33 24 22 21 23 24 20 19 25 17 11 16 15 18 29 30 29 31 32 29 32 33 32 30 33 33 34 39
29 20 23 28 27 39 45 51 45 47 47 55 47 38 37 38 29 25 22 22 28 21 22 20 18 17 16 19 17 21 32 30 23 26 31 38 36 28 32 37 37 39 40
33 25 24 25 28 34 45 50 47 49 52 54 52 41 32 32 36 33 25 25 28 21 22 19 16 18 18 22 23 27 30 33 32 34 38 36 41 39 37 39 40 42 44
30 30 26 26 31 31 40 51 49 57 49 50 45 45 37 36 38 33 30 26 22 25 23 17 21 20 18 22 26 29 36 38 41 43 42 39 38 41 40 42 42 45 46
32 32 28 27 26 34 36 53 58 51 47 48 46 43 37 37 36 34 32 27 23 18 18 22 26 26 25 24 28 35 38 39 43 45 46 41 41 43 45 46 46 49 50
31 31 28 25 23 28 34 53 56 50 48 48 47 47 39 38 39 36 35 25 22 25 32 36 33 31 31 30 29 35 40 40 44 44 40 38 40 45 49 52 52 53 54
31 30 26 22 33 37 36 58 49 45 49 45 46 39 37 35 42 44 36 26 26 34 40 39 36 36 39 39 42 41 40 41 43 40 34 38 44 48 52 55 57 55 56
30 26 24 18 28 32 41 62 47 42 44 46 36 35 33 41 44 37 38 33 35 41 46 45 44 45 42 38 42 44 47 49 45 45 43 43 47 51 54 57 60 61 64
29 23 19 23 22 26 46 56 46 50 45 43 43 34 31 38 47 46 40 41 45 51 50 50 50 49 43 47 47 49 49 50 49 48 49 52 53 56 60 63 66 70 71
30 23 15 18 22 21 38 37 40 48 47 49 47 40 35 43 45 49 49 49 47 53 51 54 56 51 47 47 50 52 51 51 53 54 54 57 59 63 64 66 71 71 69
31 27 20 21 27 30 34 35 38 40 40 40 44 47 50 51 51 51 54 58 59 58 57 60 53 49 51 51 51 53 54 54 54 56 57 59 61 64 66 71 70 72 72
35 31 31 29 29 30 31 33 36 41 43 46 51 52 50 53 59 57 61 59 62 62 65 62 55 55 57 54 56 56 56 58 60 61 64 67 66 67 69 69 73 71 72
41 33 41 41 40 42 40 43 44 47 47 48 56 59 63 60 64 66 69 66 64 64 60 56 57 58 60 59 61 59 62 63 63 64 66 65 69 70 72 71 71 69 72
34 43 47 51 51 50 51 51 51 55 59 58 58 59 60 60 57 60 63 67 66 65 62 62 62 63 63 63 65 64 67 70 69 69 70 72 73 71 71 71 70 65 60
32 36 49 50 55 57 58 61 60 61 62 64 65 65 67 71 69 67 68 68 67 65 65 67 70 74 74 71 68 64 62 61 64 65 65 65 64 63 61 57 56 56 52
34 32 33 49 54 54 57 63 62 64 67 65 69 67 65 64 67 68 63 63 65 70 61 51 45 44 41 41 41 41 42 43 45 50 50 50 49 49 48 48 47 47 45
42 37 33 33 35 53 62 59 58 60 60 63 71 72 70 66 61 60 57 53 47 43 42 44 42 41 42 42 44 44 45 46 47 51 51 53 53 53 53 52 51 52 53
47 42 39 35 32 35 40 45 47 49 52 55 56 50 49 49 51 49 47 46 45 43 43 45 48 44 45 48 47 50 51 50 52 55 55 56 57 57 57 57 58 58 58
51 46 44 41 38 39 42 45 46 46 47 47 48 48 48 49 49 48 46 46 46 45 44 45 48 51 52 54 52 55 56 57 60 61 61 63 63 63 62 61 60 62 64
54 50 45 44 42 43 46 47 48 48 48 49 49 50 50 51 49 49 49 51 52 52 53 53 53 56 58 59 59 61 62 63 65 64 65 66 68 70 68 66 67 68 69
57 54 50 46 45 47 48 51 53 52 52 53 53 52 52 53 55 56 57 57 58 59 61 61 61 60 61 64 66 66 66 69 64 63 65 70 73 72 72 70 69 71 73
62 58 55 51 51 54 53 55 54 54 55 56 56 56 56 57 58 58 59 61 65 65 65 66 64 64 64 67 69 70 68 64 66 66 71 72 71 73 72 72 72 71 74
63 62 56 55 57 61 61 62 62 60 59 61 62 61 62 64 63 64 67 69 71 69 69 68 69 71 72 73 70 69 67 70 72 75 74 75 76 79 79 80 78 78 80
62 61 59 61 61 63 67 66 66 66 66 65 65 67 68 67 69 71 72 74 74 71 70 73 74 76 78 78 77 76 73 77 77 79 79 81 82 87 88 87 87 84 85
56 57 58 61 63 64 67 71 71 71 71 70 69 68 69 67 69 72 73 72 75 76 77 78 80 81 79 78 81 80 81 82 84 83 84 85 85 89 91 90 90 91 93

GFSMA_250_spd_102.txt.gz
Wind_Speed
34 31 31 32 38 42 40 39 39 49 58 54 51 40 37 32 29 25 32 28 22 15 15 16 17 17 17 16 11 13 17 18 24 25 27 23 29 31 29 31 31 27 31
35 31 29 28 32 31 35 41 41 50 52 58 50 39 32 31 32 26 26 28 25 20 21 14 17 17 13 15 13 17 17 19 23 26 29 31 31 32 34 36 28 30 33
36 34 31 26 30 32 33 41 44 47 45 46 47 44 36 29 32 30 27 25 25 23 24 23 20 17 14 13 15 18 16 17 23 27 26 22 26 31 31 36 36 38 34
38 36 33 29 29 32 34 38 46 46 49 46 47 45 42 34 31 36 36 29 24 26 26 18 22 18 18 16 16 16 22 23 26 27 31 36 37 38 33 31 37 38 41
39 35 33 31 27 29 30 35 45 46 47 45 48 45 45 40 36 38 41 33 27 28 26 24 22 21 24 21 22 25 24 26 28 31 35 38 38 38 38 31 33 43 46
40 35 34 34 30 29 31 33 38 49 49 44 46 46 43 41 42 42 39 35 34 30 30 23 22 22 24 27 25 28 30 30 32 37 37 40 42 43 37 34 37 43 49
40 36 34 34 30 32 30 28 32 38 51 50 52 47 42 41 44 45 37 33 36 35 31 24 27 24 26 30 31 34 36 38 37 37 42 43 45 42 34 36 41 45 49
39 38 34 32 29 31 27 23 23 26 51 53 52 44 39 42 47 46 38 35 40 39 39 29 28 30 32 32 36 39 44 38 36 38 43 41 46 45 38 36 41 48 52
38 37 33 29 27 28 26 32 33 37 45 55 48 40 41 45 44 44 41 36 40 42 33 31 31 34 38 40 42 45 47 43 42 43 45 47 46 42 44 46 49 54 56
37 36 31 25 27 24 28 35 36 33 45 49 39 42 45 47 47 37 36 40 42 44 42 35 37 41 44 47 48 49 53 49 50 47 47 50 52 51 50 54 56 57 58
35 33 25 24 24 25 30 33 37 31 45 45 40 44 50 44 38 30 32 39 44 45 43 43 44 47 49 54 56 54 54 50 49 50 51 51 53 54 54 55 57 59 63
35 31 24 25 21 21 19 22 27 38 44 42 42 45 45 41 40 36 32 46 47 48 49 50 52 55 58 60 61 64 64 58 53 54 54 56 59 60 59 61 63 65 71
35 30 26 26 19 22 20 17 23 35 35 40 36 44 49 52 46 43 41 51 51 53 54 57 56 61 63 66 66 67 62 56 56 57 59 59 62 62 62 63 66 68 70
36 30 29 28 25 27 26 23 25 29 36 43 44 42 42 43 52 49 49 52 54 58 61 65 63 66 68 66 69 62 62 60 60 63 61 63 67 67 65 62 65 67 68
39 35 31 35 33 32 32 32 31 32 36 40 43 46 51 55 55 55 59 59 61 65 64 68 64 66 64 62 62 64 64 69 73 61 58 55 54 54 51 51 52 53 55
42 41 29 44 44 39 38 38 38 42 44 46 51 53 55 55 58 63 61 61 62 62 66 68 70 64 62 56 61 51 44 43 42 41 40 42 44 45 46 46 48 49 50
44 44 36 45 52 48 44 45 48 53 53 54 55 59 62 62 64 63 62 62 63 63 65 63 65 58 62 60 46 42 41 42 43 43 43 44 47 48 48 49 51 51 51
44 50 43 35 48 55 55 49 52 58 58 60 63 63 63 64 65 68 69 70 68 67 70 67 63 51 46 44 45 45 44 44 45 48 48 49 50 52 53 54 56 57 58
46 54 49 42 38 50 58 60 56 55 62 65 64 66 66 67 66 62 64 68 68 61 55 49 45 46 48 45 47 48 49 49 51 52 52 54 56 58 59 61 60 55 57
49 56 56 49 43 40 44 56 64 67 67 66 66 67 67 70 73 74 68 57 49 48 47 49 52 52 51 51 52 54 55 55 57 56 56 58 61 60 62 60 55 55 58
51 54 61 55 51 48 48 47 46 47 53 59 57 56 57 54 52 50 51 51 52 53 53 52 54 53 56 58 58 60 59 61 62 60 59 62 65 64 63 60 60 63 64
54 52 63 61 58 54 50 51 50 48 48 49 50 52 52 49 51 52 54 55 54 55 59 59 59 61 62 62 65 66 65 63 64 66 68 71 71 69 67 68 67 69 70
49 53 62 66 63 60 56 52 51 51 49 49 50 51 53 53 54 57 60 59 61 61 61 63 64 65 65 66 68 67 67 68 71 71 71 73 74 75 77 74 75 73 74
51 51 58 68 67 65 61 58 58 56 56 54 56 55 53 55 59 62 63 63 65 66 68 67 67 68 71 71 70 72 72 74 76 75 75 75 77 78 77 78 78 80 84
51 50 53 65 69 68 65 63 61 58 60 62 63 63 64 63 65 67 68 68 68 67 67 69 72 71 72 74 75 76 75 76 77 78 81 85 83 80 80 83 87 89 87
51 47 49 57 66 69 68 67 67 67 62 62 61 67 69 68 70 73 74 73 71 73 71 72 73 74 77 78 79 78 81 82 85 85 86 87 85 86 87 91 93 95 97

GFSMA_250_spd_105.txt.gz
Wind_Speed
43 38 35 36 34 34 36 39 42 42 45 42 50 45 45 37 37 26 24 25 24 27 24 23 19 14 20 17 19 19 16 13 12 17 21 24 25 24 27 29 27 30 34
38 37 33 36 33 33 35 38 39 41 41 45 43 46 50 41 39 30 32 27 28 29 23 18 18 11 15 12 13 15 12 14 16 13 15 20 26 29 25 26 28 29 32
39 36 34 37 33 34 32 36 38 37 41 42 46 54 46 48 42 31 31 30 28 27 29 27 23 22 20 16 9 9 15 16 15 16 15 20 24 25 27 31 35 32 30
35 39 39 37 34 35 32 35 38 40 40 43 44 45 47 42 37 31 33 33 27 26 28 25 27 25 22 15 11 13 12 12 17 23 25 26 28 30 33 33 31 30 29
40 42 40 36 35 35 32 33 39 39 39 40 46 44 42 44 40 38 36 31 31 30 31 25 27 27 18 18 17 18 21 20 21 24 28 26 29 31 33 36 39 34 34
41 44 40 36 36 35 33 34 35 34 37 39 44 49 44 41 42 41 36 34 33 32 33 31 27 26 20 18 17 17 21 25 27 31 32 33 35 36 38 41 40 40 37
39 43 40 36 37 35 34 32 33 30 35 39 44 46 49 48 41 46 36 38 38 38 34 33 31 29 28 22 21 22 21 25 28 31 35 37 40 41 41 40 42 44 44
43 42 39 35 37 36 34 30 30 29 26 37 38 46 46 46 43 40 36 38 42 44 35 35 37 35 35 31 33 29 30 33 34 39 42 44 45 45 44 43 45 42 42
47 40 38 35 37 35 35 29 31 30 26 26 21 45 48 46 45 39 36 37 40 45 36 39 41 36 39 34 34 32 34 39 44 46 50 49 50 51 46 45 46 48 50
50 39 35 36 34 31 31 28 29 30 25 26 28 31 50 51 46 37 36 41 36 38 41 39 42 41 38 37 37 38 43 48 51 53 55 55 56 53 49 47 49 51 54
49 40 34 36 33 29 27 27 29 26 38 33 29 33 45 50 50 38 40 42 36 38 35 33 41 43 42 42 44 46 51 52 56 58 60 63 53 52 51 49 53 57 57
49 41 33 34 32 29 27 25 28 33 37 38 30 36 45 44 44 42 46 45 39 35 38 38 38 43 47 46 50 51 53 59 61 59 61 58 55 54 54 54 57 58 58
48 40 33 33 31 29 26 23 26 26 31 29 29 40 43 43 43 46 48 45 43 38 41 35 42 48 51 51 55 59 62 60 55 59 55 56 59 57 56 57 58 58 60
49 40 34 32 31 29 29 25 26 20 26 30 39 44 43 43 45 48 48 47 46 40 39 43 50 54 55 55 58 61 66 59 66 65 58 49 41 39 37 37 37 38 39
49 39 35 33 32 31 33 26 27 20 18 31 33 39 40 41 44 47 48 49 47 50 49 47 53 54 57 61 60 57 62 63 68 53 47 40 37 36 37 38 38 41 43
49 43 37 35 35 30 37 30 30 28 26 32 38 39 39 42 45 49 53 50 51 50 55 57 57 62 61 56 55 59 61 59 50 44 41 40 41 41 41 41 41 43 45
49 45 40 38 40 37 39 39 35 37 36 37 39 40 47 49 48 51 51 49 50 54 55 58 56 56 56 56 64 70 52 49 46 44 45 45 46 46 46 47 46 49 51
52 45 44 37 41 42 39 44 44 44 44 45 45 48 50 53 54 53 54 56 57 59 60 62 64 68 68 67 60 46 45 47 50 49 48 49 49 50 51 53 56 57 57
51 47 49 46 42 49 46 43 52 52 49 50 52 52 53 56 56 56 58 60 61 63 65 64 64 64 62 50 47 49 50 51 53 52 53 54 54 55 55 58 58 57 57
53 48 50 51 45 48 53 47 48 59 57 56 56 56 58 61 61 62 63 63 63 65 66 68 69 55 50 47 49 54 54 54 56 57 58 59 59 60 61 63 63 64 63
53 51 50 49 48 50 57 54 49 52 62 66 61 62 65 66 68 65 63 65 65 67 66 59 54 53 53 55 57 58 58 59 60 62 64 64 67 68 70 68 65 65 65
58 59 54 54 50 49 57 61 56 52 50 52 56 62 67 70 72 70 70 69 66 59 54 53 55 55 58 58 59 61 62 65 64 66 70 72 73 73 70 66 66 67 68
63 65 60 58 56 53 56 63 64 59 56 54 52 51 51 53 55 57 57 56 55 54 56 57 60 61 62 62 63 66 67 68 69 72 75 76 73 72 69 68 70 72 74
67 67 65 58 60 58 57 64 70 67 63 60 59 57 56 57 58 57 55 56 56 58 61 63 63 62 62 63 65 67 70 73 74 74 76 75 74 70 70 70 75 76 78
70 72 71 61 60 60 60 61 69 72 69 67 64 61 60 61 61 61 59 61 63 63 63 62 63 65 67 67 70 71 73 76 75 74 76 75 74 76 75 78 80 80 84
74 70 68 62 62 61 57 58 65 72 72 70 68 67 67 64 61 63 65 65 66 67 68 70 72 73 73 73 74 78 79 80 81 77 78 81 81 82 84 86 89 92 90

GFSMA_250_spd_111.txt.gz
Wind_Speed
28 31 29 32 32 34 36 37 36 37 33 28 33 40 37 35 41 45 46 44 39 39 37 26 22 26 24 28 26 23 21 19 22 19 13 16 16 16 19 18 20 22 23
30 27 29 27 31 30 33 36 34 37 35 27 27 31 34 35 35 43 48 48 46 41 38 32 31 28 26 27 24 22 17 16 15 12 11 14 13 14 15 18 19 22 25
31 28 28 25 30 28 32 34 36 36 34 29 27 27 31 33 36 40 48 46 46 47 44 35 30 27 26 30 29 23 25 19 17 14 13 13 13 15 16 20 24 28 31
26 27 24 26 31 32 32 34 36 35 31 29 28 28 28 29 36 35 36 43 46 44 42 36 31 37 30 24 28 28 25 23 17 15 10 13 13 17 19 21 21 26 28
21 22 22 27 31 33 34 36 35 35 32 28 28 29 29 28 29 35 43 46 43 41 37 33 35 30 30 29 32 28 27 20 16 13 13 14 13 14 17 23 27 33 34
18 18 22 26 27 29 34 37 35 34 33 29 28 31 31 31 29 36 43 50 42 42 37 36 35 31 30 34 32 29 28 24 22 21 18 17 16 20 26 31 34 38 39
25 24 25 27 29 32 35 38 38 35 31 29 29 33 33 35 34 31 41 48 45 47 44 40 37 37 36 29 34 36 32 30 29 24 20 26 26 25 33 34 39 40 40
31 30 28 29 31 33 34 37 39 34 32 30 29 32 34 33 34 33 42 48 42 45 44 44 39 38 38 37 28 39 37 37 31 29 26 25 26 33 37 41 42 44 45
34 35 32 32 34 36 35 37 41 35 32 31 29 30 29 30 32 31 38 51 46 45 42 45 41 40 42 36 35 34 38 40 38 35 33 31 34 37 39 44 48 48 49
40 39 35 35 36 36 36 38 43 37 32 29 28 28 27 31 35 38 37 46 53 51 48 45 42 43 40 38 36 37 39 38 40 36 33 35 40 45 45 45 50 52 47
43 42 40 38 39 40 39 40 42 37 32 27 27 26 28 26 29 32 35 42 51 56 53 49 47 36 38 38 36 39 42 38 38 34 39 39 43 41 46 46 50 45 51
47 43 42 40 44 42 40 41 41 37 33 29 27 30 27 31 34 33 36 36 47 56 60 55 40 44 43 36 30 26 30 30 35 37 37 44 43 47 49 51 50 50 57
45 45 44 42 44 45 40 42 40 38 34 30 27 30 31 35 39 38 36 38 39 56 59 54 45 47 46 41 42 42 39 38 41 43 46 46 48 51 52 54 51 55 46
52 52 48 45 43 43 41 42 40 38 34 33 31 31 35 33 35 42 41 41 39 48 58 57 53 49 45 43 45 46 45 41 44 46 45 50 50 52 50 53 52 52 44
54 52 48 47 42 41 42 44 43 41 34 34 31 32 36 33 38 39 41 42 41 46 58 59 58 53 50 44 40 40 38 41 43 48 48 50 53 52 53 52 52 54 47
53 51 50 47 46 45 44 44 46 43 38 36 33 31 33 35 36 38 42 36 38 49 57 62 61 58 54 52 49 45 41 43 48 49 51 52 52 54 53 54 58 49 45
50 53 54 51 53 49 45 47 47 48 41 38 36 32 32 39 39 32 40 36 40 44 54 57 58 54 56 58 57 57 53 53 52 53 54 53 58 56 56 57 61 48 45
49 53 52 51 55 52 48 45 49 52 49 43 40 37 34 39 40 26 34 38 39 44 51 51 55 61 60 58 52 51 52 55 58 55 52 58 60 61 62 63 62 47 49
50 52 55 52 53 51 48 49 52 54 53 46 43 39 41 40 42 31 32 34 41 48 54 55 55 54 54 54 53 53 54 59 61 58 60 61 64 65 65 66 56 52 54
57 59 60 58 59 59 57 60 60 58 58 48 42 43 43 45 44 43 41 43 51 56 56 57 59 59 60 59 57 58 60 63 60 61 63 65 66 65 65 62 55 56 58
69 65 65 65 68 67 66 65 60 61 55 48 43 43 47 46 51 51 51 53 56 59 61 62 61 59 60 62 61 64 66 64 65 67 69 68 68 68 63 59 60 58 60
71 70 69 68 68 68 71 70 69 65 60 53 48 49 47 53 51 57 60 62 64 66 65 66 66 64 65 65 67 68 70 73 71 72 72 70 70 64 61 62 61 62 63
66 49 58 72 72 76 81 76 71 69 63 60 53 55 51 55 57 57 60 66 70 71 72 72 72 73 75 75 73 73 73 75 74 76 77 74 69 66 65 65 64 65 65
68 69 75 80 79 76 72 75 68 63 64 64 58 58 55 55 56 60 64 63 71 74 73 74 75 76 76 77 77 76 78 81 81 77 72 68 69 68 69 69 66 66 69
72 60 59 63 76 69 70 69 74 74 75 67 62 62 63 61 60 60 64 70 70 70 77 79 76 78 79 81 83 84 81 77 74 72 72 72 71 72 71 68 68 72 76
76 79 91 87 79 69 72 76 73 67 64 64 64 64 68 69 66 65 65 67 72 75 74 74 77 83 84 83 80 77 76 74 73 75 75 74 75 75 74 75 77 80 84

GFSMA_250_spd_114.txt.gz
Wind_Speed
27 27 26 26 25 26 26 25 24 28 31 32 30 28 27 32 35 30 39 41 41 41 39 38 36 33 28 24 23 20 25 21 22 24 15 12 11 8 7 7 11 14 16
29 27 26 28 23 24 23 23 26 25 30 31 30 29 26 27 32 33 33 40 41 44 43 41 40 37 29 29 32 25 30 24 17 19 14 14 11 9 9 9 12 16 18
30 30 27 26 25 23 22 22 24 24 29 29 28 28 26 25 27 32 36 39 44 46 43 43 39 38 34 33 26 24 31 25 23 20 16 14 10 9 9 11 10 13 15
29 30 31 27 25 23 22 25 25 25 27 27 26 27 27 24 23 30 36 44 45 48 47 46 45 42 36 35 28 31 29 27 24 21 19 13 11 10 8 5 11 16 20
34 32 29 25 22 20 21 22 25 24 28 28 26 25 27 27 23 26 31 39 52 50 42 42 44 40 37 35 25 29 26 28 29 20 23 19 16 13 13 12 16 21 25
38 33 29 23 21 21 20 21 23 25 28 30 28 24 28 29 29 23 29 37 43 44 49 47 48 41 39 32 31 31 27 33 32 27 26 24 19 18 18 18 21 24 30
41 38 28 25 24 23 23 24 26 27 28 31 31 26 28 30 34 32 30 34 45 50 48 49 45 39 40 32 31 30 32 30 34 30 29 25 23 23 21 21 26 30 37
40 35 34 30 25 25 27 28 28 29 30 33 33 28 28 32 35 34 31 34 41 44 54 51 44 41 41 37 30 34 33 29 34 35 33 29 27 23 22 24 29 35 35
38 38 37 33 30 30 29 30 30 33 33 35 35 28 28 33 33 33 32 38 37 45 46 45 48 50 42 42 39 42 34 31 31 38 39 37 33 28 27 29 31 34 38
39 37 38 34 31 31 34 33 33 34 35 36 37 31 28 31 31 30 29 32 34 48 46 49 47 48 53 43 40 41 39 35 27 40 40 42 30 28 27 30 35 38 44
43 37 39 38 36 34 36 37 38 36 37 36 38 33 29 31 28 25 28 31 33 39 49 46 49 50 44 46 39 44 42 33 30 35 43 43 33 34 34 36 37 43 47
48 43 42 41 40 39 38 38 38 38 35 35 37 34 30 32 28 25 27 29 34 35 45 52 55 55 50 47 38 44 35 32 26 33 42 41 37 41 38 37 42 45 44
51 52 46 43 42 41 38 38 41 36 34 35 36 36 30 32 31 30 33 35 36 34 35 47 55 57 54 52 53 46 41 36 36 41 43 36 42 44 42 42 45 49 44
54 50 51 49 41 45 44 44 41 35 34 38 37 34 31 31 34 31 33 34 39 40 39 40 48 58 56 57 54 53 43 43 40 43 40 43 41 43 44 48 48 47 44
60 57 53 54 54 50 49 44 38 37 36 39 38 34 31 31 37 37 34 32 36 41 44 46 46 49 55 57 60 54 50 45 45 47 49 44 44 44 48 49 48 46 46
58 54 51 54 54 50 49 45 41 40 41 43 40 38 34 32 36 38 34 33 35 46 49 51 50 48 48 58 62 61 57 48 49 50 51 47 44 45 48 50 50 50 50
61 59 58 56 56 52 48 50 46 43 47 46 42 41 41 36 35 39 35 39 38 40 47 48 49 52 53 57 62 66 61 56 55 54 50 49 50 53 52 52 52 52 55
66 65 61 57 59 55 53 52 48 45 49 49 45 43 44 43 37 39 37 40 43 39 38 48 47 46 57 54 62 66 63 64 62 64 61 59 62 61 56 57 56 57 58
66 66 65 60 54 51 52 53 54 50 50 49 46 46 47 47 41 42 42 39 38 35 38 41 43 43 49 55 62 64 63 66 65 66 67 65 60 57 56 59 58 60 60
57 56 54 56 54 51 56 57 54 54 54 52 51 52 52 47 42 41 47 43 43 44 43 48 48 49 48 51 57 61 62 66 67 68 64 60 59 59 59 61 61 64 65
64 60 56 55 56 55 56 56 64 62 60 60 58 56 55 53 45 44 49 50 46 47 44 42 47 52 55 55 58 60 61 61 64 62 63 64 65 64 64 64 67 68 68
67 62 59 60 60 60 59 53 64 69 69 67 66 60 59 58 55 49 49 53 53 52 52 53 57 59 60 66 66 67 70 68 69 71 70 69 68 68 70 69 68 71 72
72 70 69 68 66 65 66 69 60 75 74 75 69 67 66 67 65 57 52 57 56 58 61 63 64 65 67 70 73 71 74 73 73 71 72 72 72 74 72 74 74 75 71
77 75 73 70 70 67 68 66 69 77 76 68 69 74 72 69 61 59 54 56 63 61 60 67 70 70 70 72 73 75 77 77 76 78 78 79 81 80 78 77 78 76 75
83 83 82 78 74 72 71 65 75 77 74 76 78 88 71 62 61 63 65 66 65 66 67 64 66 71 73 76 77 79 80 79 80 81 80 81 79 79 80 82 81 82 82
80 79 80 81 78 74 72 74 84 85 84 91 89 79 79 69 64 69 73 71 68 68 69 69 69 68 73 77 79 82 85 86 86 85 82 83 86 89 89 89 91 86 82

GFSMA_250_spd_117.txt.gz
Wind_Speed
39 30 30 27 25 24 26 26 22 22 24 25 28 28 26 23 23 30 34 35 38 39 35 36 36 35 28 25 26 24 25 20 20 21 20 18 13 13 4 3 3 6 9
40 38 29 28 27 26 26 24 21 20 23 23 30 29 27 23 24 28 35 37 39 39 38 41 44 37 35 33 32 28 29 29 25 26 22 12 14 12 7 4 4 4 5
38 39 33 33 30 29 27 23 23 21 25 26 29 28 27 24 23 26 32 40 40 41 35 40 46 42 39 32 34 30 30 22 24 24 21 19 15 17 11 8 7 5 6
36 41 34 34 30 34 30 26 22 21 20 23 25 28 26 24 22 24 27 38 43 44 50 46 40 47 45 38 38 33 34 30 24 30 25 20 19 17 16 13 10 11 9
37 40 37 35 37 36 32 28 23 19 16 21 24 27 26 25 25 26 26 32 42 45 49 51 50 49 48 41 36 37 35 26 25 26 27 21 23 22 22 19 16 12 10
40 40 39 38 41 36 31 26 22 18 22 22 22 25 28 27 28 28 28 29 44 42 51 50 52 46 52 47 42 38 36 30 27 26 31 26 29 28 24 23 20 18 15
43 40 40 41 38 34 32 26 24 22 24 24 24 25 28 29 29 29 32 31 37 46 43 53 55 53 44 47 40 37 36 32 30 28 35 33 34 32 30 28 23 20 18
45 43 41 43 42 40 33 26 25 25 24 22 27 27 29 31 29 30 33 35 35 41 50 52 54 56 53 51 47 40 38 31 32 33 33 38 38 34 34 32 29 23 19
48 45 41 40 42 43 37 32 30 30 26 24 25 27 29 33 30 31 33 34 35 36 44 46 51 53 52 52 46 39 41 39 37 32 30 37 38 38 38 36 31 25 26
51 46 42 41 42 43 41 33 30 32 33 31 26 27 28 31 34 33 33 31 32 40 43 47 51 56 52 50 49 44 43 47 42 43 36 33 43 42 41 37 34 28 30
53 48 44 42 43 42 38 35 31 31 35 35 30 28 29 29 34 33 34 29 30 31 37 38 44 44 54 48 46 49 44 44 45 46 39 35 40 46 43 38 35 33 35
54 50 49 43 42 41 39 39 35 35 36 35 34 28 29 30 32 32 31 28 26 25 26 32 38 49 51 49 52 53 50 48 48 44 35 28 33 45 47 35 38 36 40
57 57 54 49 49 47 45 43 40 37 36 35 35 31 30 32 30 30 32 29 31 30 28 31 35 41 47 53 58 58 57 49 48 47 39 37 30 36 43 41 41 41 47
60 59 59 55 54 53 48 46 41 40 37 38 38 35 34 33 31 32 29 32 35 33 36 36 35 36 43 52 53 53 52 55 49 48 46 44 40 40 43 47 43 44 45
65 64 63 59 57 52 51 49 47 45 44 44 42 36 35 35 36 32 32 30 36 37 37 40 38 41 41 43 54 58 56 58 54 55 55 48 48 42 45 47 47 49 49
67 65 65 63 60 57 57 53 51 52 50 48 45 43 39 39 38 36 34 33 33 38 42 41 38 39 44 50 50 51 55 58 58 62 61 59 57 46 48 52 54 55 54
69 66 64 65 57 54 56 55 55 54 53 49 48 48 42 43 42 41 40 36 35 37 43 42 36 38 45 49 54 54 55 51 57 62 67 63 60 57 52 56 59 61 55
67 67 63 66 58 58 56 54 53 53 55 56 53 52 52 49 46 45 43 41 36 37 42 47 42 41 44 55 55 56 58 55 55 58 64 63 64 60 57 56 59 62 64
79 79 72 64 61 59 60 58 58 57 57 55 55 54 55 52 48 46 44 45 38 36 39 48 49 43 41 43 50 56 54 57 59 59 60 64 63 63 65 64 65 66 68
77 75 77 74 67 64 65 64 63 60 61 57 59 57 55 53 50 48 50 47 44 38 39 47 49 48 43 46 51 57 61 55 53 63 62 65 66 67 68 71 65 68 66
76 74 76 75 68 64 63 63 57 59 54 55 54 55 53 53 56 52 55 53 52 45 37 43 54 48 47 47 54 58 56 53 52 55 58 67 73 70 70 69 74 75 70
76 75 75 74 73 67 66 59 57 60 57 52 53 58 57 57 53 59 62 62 56 56 50 44 50 58 54 50 53 53 61 55 56 57 60 62 68 72 73 74 73 70 71
77 75 75 76 73 70 69 66 68 66 61 61 51 69 60 60 63 62 60 65 66 63 60 58 52 56 58 55 66 66 64 64 62 68 69 68 69 69 69 70 70 73 76
79 76 75 74 73 72 72 71 68 69 67 66 74 74 72 74 71 70 74 75 67 61 63 60 54 55 59 64 63 66 70 70 72 74 75 73 75 77 76 76 77 79 81
77 78 78 76 75 72 74 73 73 71 73 69 75 73 73 77 76 77 79 78 72 68 66 59 52 55 53 60 69 77 77 78 80 81 80 75 76 78 77 80 80 82 84
79 82 83 83 81 80 80 79 80 81 79 80 77 73 74 80 79 83 82 78 77 78 77 81 76 68 69 69 69 75 76 75 79 85 83 81 82 84 85 86 86 88 89

GFSMA_250_spd_120.txt.gz
Wind_Speed
36 37 37 33 34 31 33 31 29 29 30 28 24 24 23 22 21 22 30 36 39 39 40 34 42 40 40 37 29 29 25 26 25 23 21 22 18 15 17 11 8 8 8
37 39 36 39 35 35 30 30 32 31 30 26 26 25 26 24 22 24 27 31 40 45 45 47 46 46 36 43 34 31 27 30 30 25 28 26 22 17 17 14 13 14 10
43 38 39 37 39 35 31 31 34 33 29 27 26 23 25 25 26 23 26 32 36 46 45 46 48 46 45 46 40 37 35 33 33 28 24 26 24 22 21 19 18 17 15
47 41 39 40 39 37 35 32 35 34 30 27 25 23 23 23 23 22 25 29 37 40 47 50 54 39 45 45 46 43 38 34 35 33 28 26 26 27 23 20 22 21 20
51 47 40 40 40 40 37 34 34 37 33 29 25 20 21 20 23 21 22 31 35 38 42 47 52 50 46 40 42 44 45 38 37 35 31 26 26 31 27 28 26 27 24
55 49 45 40 40 42 37 37 39 41 34 31 27 26 21 20 21 21 22 25 34 35 45 48 57 50 52 46 44 45 45 38 38 37 34 33 26 35 32 34 31 31 27
56 54 50 43 41 40 40 40 41 40 34 31 29 27 27 27 22 24 24 24 30 36 42 47 59 57 61 64 57 61 52 39 41 41 35 35 29 31 37 35 38 36 32
53 56 53 47 43 41 43 40 38 38 36 33 30 27 26 25 24 26 25 25 26 34 35 48 50 56 60 60 55 57 54 45 39 37 34 34 33 34 37 40 42 40 35
52 53 54 50 45 44 40 44 45 40 37 35 30 28 27 28 28 26 28 29 28 28 36 38 53 50 55 54 52 55 58 46 42 41 41 37 29 30 33 42 42 42 38
54 53 53 51 48 46 42 42 45 43 40 37 38 35 36 32 31 31 28 32 31 31 30 36 42 57 55 59 59 56 58 52 46 46 43 44 43 40 37 38 45 45 42
54 53 53 53 52 49 43 43 43 44 44 40 38 35 37 34 33 33 35 30 32 31 31 33 35 42 56 63 61 56 54 53 45 40 44 48 48 45 35 37 47 50 45
54 53 53 55 56 53 44 43 43 46 46 41 37 37 36 35 33 33 35 35 34 30 29 29 29 36 41 49 48 52 54 58 52 48 48 50 51 45 41 33 39 48 50
52 55 54 54 55 54 46 45 44 46 45 44 38 38 37 35 34 36 34 33 33 31 27 28 29 26 33 38 42 48 50 52 51 51 52 50 52 51 44 46 37 44 47
56 57 52 54 55 54 50 49 47 49 47 48 45 46 44 41 37 37 41 36 32 31 32 28 36 36 33 34 39 44 47 51 51 50 54 54 57 55 48 51 40 37 42
64 56 53 56 56 56 57 53 52 53 52 51 51 49 43 43 43 39 40 39 37 32 31 32 32 39 40 39 36 40 47 50 55 56 54 54 55 51 52 49 50 48 44
64 59 55 59 61 61 59 54 56 54 52 54 54 54 51 50 47 45 45 45 41 36 34 34 35 38 41 44 44 42 45 50 56 57 57 58 54 60 57 58 58 53 53
67 63 54 54 63 63 59 58 59 56 56 56 58 54 53 52 50 50 48 48 48 44 38 37 38 38 41 45 47 44 45 49 50 52 55 60 62 61 60 63 62 63 60
68 63 55 55 64 68 67 69 62 58 58 57 58 59 56 56 54 54 52 53 52 51 44 40 40 39 40 43 48 43 41 44 45 51 56 55 56 58 61 65 65 66 66
70 72 64 66 67 69 67 66 65 65 66 63 57 58 56 54 55 58 57 57 58 56 47 43 41 41 39 40 42 48 48 45 46 54 53 55 57 59 58 54 60 65 66
79 79 78 69 67 71 72 70 70 67 68 64 62 62 62 59 60 60 60 60 54 53 50 49 46 42 43 41 43 45 47 49 47 46 50 56 55 55 63 65 59 55 60
84 82 79 77 74 70 70 76 74 72 68 67 67 66 63 60 59 64 63 60 58 52 52 53 51 46 44 46 43 44 49 53 48 55 52 54 57 58 56 59 68 70 69
84 81 81 82 78 81 78 78 77 74 72 71 70 69 65 64 57 63 62 55 57 58 52 53 55 52 50 51 52 48 49 54 56 57 57 62 56 58 56 56 59 63 72
79 81 77 75 80 80 81 84 84 84 81 79 73 70 64 53 57 65 59 57 60 66 64 65 56 56 57 58 58 59 55 54 62 59 65 69 63 56 62 62 66 62 64
72 76 76 76 78 81 82 84 84 81 78 78 78 72 65 64 69 71 70 67 66 62 64 68 67 69 66 69 61 60 56 58 63 64 68 64 69 74 68 69 68 72 74
67 70 72 73 75 78 81 85 84 82 80 79 78 76 74 75 76 79 80 77 77 79 79 79 79 76 73 70 70 65 69 57 56 68 69 69 69 73 76 76 76 77 79
61 65 69 72 75 77 80 85 87 87 83 82 80 80 79 79 79 77 79 79 83 82 82 81 85 80 76 77 72 73 73 76 67 70 68 71 73 76 80 82 81 84 86

GFSMA_250_spd_123.txt.gz
Wind_Speed
41 41 38 37 36 37 38 37 31 30 31 28 28 28 28 24 25 20 21 26 33 35 43 46 40 43 32 34 37 40 37 32 28 27 27 27 22 24 21 19 16 16 13
45 44 43 40 39 37 38 38 34 31 31 32 30 30 29 26 25 22 18 25 30 37 43 50 38 35 37 40 47 43 45 37 31 29 31 28 27 26 25 26 19 18 17
47 45 46 45 40 42 39 38 36 30 31 33 32 30 30 28 27 23 22 21 31 38 44 48 55 54 47 39 39 41 46 42 36 35 33 32 27 25 25 27 26 20 21
41 46 46 47 45 43 43 39 40 36 33 34 34 31 31 30 26 24 24 20 25 32 37 51 53 57 57 54 52 54 50 51 45 38 37 37 36 27 26 27 31 28 24
50 47 48 47 48 45 44 42 39 40 37 35 36 34 31 31 24 23 23 22 21 30 37 39 57 54 57 59 52 49 42 44 45 43 41 37 35 33 29 33 30 31 28
55 48 49 47 47 49 45 43 42 41 36 38 39 37 35 33 25 23 24 25 23 22 32 41 44 52 60 55 55 57 46 45 44 43 40 42 38 34 32 33 32 35 34
56 49 48 48 45 51 48 45 45 44 36 39 42 40 38 36 31 30 28 28 28 25 24 30 41 44 50 57 57 51 51 48 43 43 48 41 37 36 34 35 33 35 40
56 50 46 47 46 48 51 47 47 44 42 40 42 43 40 38 33 29 29 28 29 29 28 28 31 42 43 57 57 58 56 56 56 57 55 48 39 37 36 33 32 32 36
67 55 47 43 50 47 50 51 49 45 42 42 41 40 41 38 36 31 30 30 30 31 31 31 31 33 39 49 59 60 61 62 64 66 66 52 41 42 35 33 27 28 33
71 57 42 45 49 50 49 55 48 47 42 45 47 44 45 43 38 36 33 32 31 32 33 33 35 34 38 45 54 62 65 68 69 68 62 54 49 46 43 44 43 38 31
69 64 45 44 50 48 48 53 50 46 43 44 49 48 48 46 41 40 39 36 33 35 35 33 35 35 34 38 45 55 58 57 56 52 50 46 47 43 39 45 45 37 34
66 68 50 47 47 53 49 52 50 46 45 44 49 47 50 47 46 42 40 37 35 34 33 35 37 34 34 31 35 40 52 51 57 57 53 55 49 46 44 45 47 49 47
65 60 53 52 49 51 53 51 50 50 48 46 49 51 47 48 44 40 38 41 35 37 37 33 35 35 31 31 30 33 44 51 57 59 55 48 51 55 55 49 48 48 50
75 66 56 60 54 49 54 52 50 52 52 48 48 48 48 48 47 43 44 44 43 41 41 39 34 33 30 31 33 33 34 38 42 45 47 54 50 50 44 48 54 49 53
62 65 63 66 60 48 49 52 51 50 49 49 47 46 47 49 49 52 49 44 42 43 40 44 39 37 34 33 31 37 38 38 38 45 49 47 48 51 56 51 55 54 54
85 73 68 66 69 59 60 51 53 50 36 59 50 47 49 51 53 55 53 50 46 46 43 45 45 41 41 39 37 35 40 42 42 42 44 49 51 56 56 56 57 56 58
83 81 76 74 76 77 64 55 55 53 55 52 44 47 54 53 49 53 53 52 52 52 45 49 45 46 46 46 42 38 38 42 46 45 46 47 48 52 56 58 58 57 59
84 74 77 80 83 76 62 56 57 64 57 53 52 47 52 58 56 57 56 56 53 55 51 51 51 51 49 52 48 41 39 40 45 46 48 48 52 58 58 59 59 63 63
91 91 90 86 92 72 70 67 63 64 63 60 60 61 62 59 57 56 58 56 57 56 54 53 54 54 51 52 50 47 42 39 37 45 49 49 50 49 49 56 59 59 58
97 100 100 99 96 77 71 73 69 66 68 70 69 65 63 65 60 58 61 60 59 58 58 58 59 56 59 54 52 52 48 43 40 40 43 48 51 48 47 57 53 50 54
110 106 104 102 98 92 84 82 74 74 71 75 78 78 72 69 68 72 69 64 63 61 62 63 60 62 61 57 54 52 50 46 43 42 43 44 46 47 49 48 49 54 56
114 112 109 103 96 93 91 86 81 79 74 74 76 78 79 79 77 70 72 69 67 66 62 66 64 59 57 55 51 52 56 50 51 49 49 48 52 52 54 58 59 57 53
105 101 99 100 98 97 97 91 86 87 85 81 81 84 84 77 77 79 76 75 74 72 68 70 67 65 61 60 63 62 63 63 57 59 59 55 55 55 58 61 62 62 63
106 106 103 103 104 104 100 96 92 89 90 89 84 86 90 86 83 82 81 81 78 77 72 71 67 61 61 65 63 64 60 63 65 66 69 66 63 61 57 62 66 67 66
99 101 105 106 103 102 99 96 93 89 88 92 91 90 93 94 89 88 84 85 82 83 78 75 72 70 71 66 67 67 72 72 70 73 73 73 68 62 60 57 64 69 74
66 71 74 76 79 82 84 86 86 86 87 87 90 91 94 100 97 94 94 90 88 84 84 81 81 78 81 79 81 85 85 83 83 76 75 77 75 66 65 72 72 73 72

GFSMA_250_spd_126.txt.gz
Wind_Speed
46 47 40 39 39 38 36 33 31 33 32 28 33 28 26 24 23 21 23 25 30 31 30 26 34 33 32 29 31 32 34 35 39 37 29 29 27 24 25 24 23 24 21
50 46 46 41 42 41 39 39 34 35 32 29 31 30 31 29 26 24 25 25 27 30 32 44 43 41 40 39 35 36 37 38 41 45 45 36 30 28 26 25 24 25 24
47 47 48 44 43 44 44 41 39 37 35 32 30 30 31 30 29 27 27 23 23 26 40 40 51 52 50 43 35 33 37 41 36 37 42 39 36 31 30 32 27 23 28
50 46 47 46 41 38 45 46 41 41 38 37 35 30 33 33 31 31 30 24 23 23 27 46 52 49 57 51 48 50 43 42 44 43 45 45 45 42 34 31 32 27 26
54 51 52 51 49 49 47 50 48 42 42 39 38 35 33 36 34 33 33 28 25 24 21 25 44 56 54 55 58 58 58 57 57 51 49 40 37 40 42 34 32 32 28
62 57 54 54 54 50 46 49 50 47 43 40 40 38 34 34 36 36 36 32 27 26 23 20 24 32 46 59 60 61 59 59 56 54 50 49 38 40 37 39 36 34 31
65 60 57 58 56 52 50 51 49 49 45 42 42 40 38 36 36 38 38 34 32 29 26 25 22 24 27 38 50 61 63 54 56 56 57 49 48 44 41 34 35 35 31
65 61 60 61 54 55 47 48 50 48 48 44 43 40 43 43 36 39 40 38 36 34 29 26 24 25 28 29 33 46 55 64 64 61 56 56 52 43 47 49 39 39 38
68 64 62 62 60 57 49 46 51 46 47 47 44 41 43 45 39 41 41 39 39 36 31 30 30 28 30 30 33 36 45 49 62 59 53 55 53 53 52 54 56 41 35
73 69 66 65 66 62 53 43 51 53 47 48 45 43 42 42 43 39 40 39 38 36 35 34 32 31 31 31 35 34 37 46 50 64 58 55 58 59 59 54 52 53 43
81 76 73 71 67 62 54 40 50 53 55 49 48 44 45 42 45 44 46 45 42 40 40 37 33 33 31 33 34 34 33 34 43 51 60 66 64 59 60 63 52 43 40
82 80 77 74 68 59 50 45 45 50 51 52 52 48 45 43 45 42 43 48 47 44 40 40 40 34 33 29 32 31 33 32 30 36 45 59 60 55 51 48 46 44 44
80 74 71 74 70 62 56 41 41 44 47 51 52 48 43 41 42 45 44 47 48 45 42 39 38 39 36 31 32 32 32 31 29 28 34 41 48 49 48 47 47 48 47
66 61 65 71 67 65 55 54 53 44 42 46 50 49 42 42 42 44 46 48 49 48 42 44 45 41 38 37 34 33 32 31 32 31 30 36 41 42 43 44 45 43 47
59 59 65 72 70 63 59 48 53 46 38 39 48 48 44 41 40 43 46 45 48 48 50 52 49 46 43 38 38 36 35 31 32 32 36 35 36 42 45 46 47 49 49
59 45 36 41 55 62 63 51 55 53 46 40 46 48 41 29 35 40 44 45 47 51 49 54 51 48 46 45 40 38 38 34 35 36 34 41 43 41 40 44 45 48 48
79 73 61 53 48 58 66 60 56 60 60 46 42 49 47 43 47 42 47 51 51 50 47 50 48 51 50 47 42 42 42 40 39 39 38 36 42 47 45 44 45 49 55
57 66 78 77 71 68 70 68 74 65 64 60 51 47 54 51 64 64 54 53 57 55 51 46 52 55 54 54 50 47 44 44 44 45 42 38 35 39 48 47 46 47 49
63 71 72 83 80 82 75 67 70 77 66 63 62 59 56 63 70 72 65 66 67 66 62 56 51 54 57 58 55 50 48 49 48 48 47 43 40 37 38 46 46 46 50
79 76 77 89 86 88 85 80 77 74 74 66 59 62 68 69 72 73 73 69 68 69 67 63 63 59 57 56 58 56 53 52 53 48 47 47 44 42 40 39 45 51 52
89 80 81 88 81 82 81 78 79 75 73 68 65 67 72 70 76 75 78 77 73 72 72 68 59 63 61 59 62 61 57 56 52 49 48 47 48 44 43 43 42 40 43
89 86 87 91 86 87 87 88 83 80 79 83 85 86 78 77 79 79 85 83 78 77 74 76 74 69 68 68 64 67 65 60 60 55 53 52 51 49 49 49 48 51 48
94 98 96 99 99 96 96 95 95 93 90 90 100 102 96 92 86 90 87 92 87 83 82 81 80 79 75 74 70 73 70 67 58 57 57 57 58 58 55 56 55 52 55
102 102 98 99 99 109 108 106 100 98 98 101 105 107 105 101 102 99 99 97 100 96 91 89 86 84 79 76 78 79 78 72 71 62 62 60 64 63 59 58 61 60 60
105 107 106 108 112 111 106 115 114 112 114 113 113 110 112 114 112 110 104 104 106 106 103 98 93 91 86 82 82 82 80 78 74 73 71 64 67 68 64 62 65 69 68
105 106 111 116 116 112 113 117 122 125 126 124 121 121 123 121 116 112 110 108 111 108 104 101 100 94 89 88 90 88 82 81 79 78 76 72 72 72 74 74 76 77 71